<?xml version="1.0" encoding="UTF-8" standalone="no" ?>
<gpx xmlns="http://www.topografix.com/GPX/1/1" xmlns:xsi="http://www.w3.org/2001/XMLSchema-instance" xsi:schemaLocation="http://www.topografix.com/GPX/1/1 http://www.topografix.com/GPX/1/1/gpx.xsd" version="1.1" creator="VisuGPX - https://www.visugpx.com">
  <metadata>
    <name>Etang de la Porte Baudet</name>
    <desc><![CDATA["mon" sentier et un autre retour depuis cet étang]]></desc>
  </metadata>
  <trk>
    <name><![CDATA[Untitled]]></name>
    <trkseg>
      <trkpt lat="48.70319" lon="1.77273">
        <ele>179.60000610352</ele>
        <time>2011-08-16T10:40:10.000Z</time>
      </trkpt>
      <trkpt lat="48.7033" lon="1.77277">
        <ele>180</ele>
        <time>2011-08-16T10:40:11.000Z</time>
      </trkpt>
      <trkpt lat="48.70284" lon="1.77252">
        <ele>178.19999694824</ele>
        <time>2011-08-16T10:40:23.000Z</time>
      </trkpt>
      <trkpt lat="48.70288" lon="1.77255">
        <ele>178.19999694824</ele>
        <time>2011-08-16T10:40:24.000Z</time>
      </trkpt>
      <trkpt lat="48.70298" lon="1.77252">
        <ele>178.60000610352</ele>
        <time>2011-08-16T10:40:28.000Z</time>
      </trkpt>
      <trkpt lat="48.70288" lon="1.77241">
        <ele>178.60000610352</ele>
        <time>2011-08-16T10:40:31.000Z</time>
      </trkpt>
      <trkpt lat="48.70365" lon="1.77281">
        <ele>180.80000305176</ele>
        <time>2011-08-16T10:40:33.000Z</time>
      </trkpt>
      <trkpt lat="48.70371" lon="1.77281">
        <ele>180.80000305176</ele>
        <time>2011-08-16T10:40:36.000Z</time>
      </trkpt>
      <trkpt lat="48.70373" lon="1.77278">
        <ele>180.80000305176</ele>
        <time>2011-08-16T10:40:42.000Z</time>
      </trkpt>
      <trkpt lat="48.70391" lon="1.77267">
        <ele>181</ele>
        <time>2011-08-16T10:41:03.000Z</time>
      </trkpt>
      <trkpt lat="48.70401" lon="1.77262">
        <ele>181</ele>
        <time>2011-08-16T10:41:11.000Z</time>
      </trkpt>
      <trkpt lat="48.70411" lon="1.77256">
        <ele>181</ele>
        <time>2011-08-16T10:41:20.000Z</time>
      </trkpt>
      <trkpt lat="48.70416" lon="1.77254">
        <ele>181</ele>
        <time>2011-08-16T10:41:24.000Z</time>
      </trkpt>
      <trkpt lat="48.70428" lon="1.77246">
        <ele>181</ele>
        <time>2011-08-16T10:41:34.000Z</time>
      </trkpt>
      <trkpt lat="48.7043" lon="1.77245">
        <ele>181</ele>
        <time>2011-08-16T10:41:36.000Z</time>
      </trkpt>
      <trkpt lat="48.70438" lon="1.77241">
        <ele>181</ele>
        <time>2011-08-16T10:41:43.000Z</time>
      </trkpt>
      <trkpt lat="48.7045" lon="1.77235">
        <ele>181</ele>
        <time>2011-08-16T10:41:52.000Z</time>
      </trkpt>
      <trkpt lat="48.70462" lon="1.77234">
        <ele>181</ele>
        <time>2011-08-16T10:42:02.000Z</time>
      </trkpt>
      <trkpt lat="48.70471" lon="1.77235">
        <ele>181.19999694824</ele>
        <time>2011-08-16T10:42:09.000Z</time>
      </trkpt>
      <trkpt lat="48.70477" lon="1.77236">
        <ele>181.39999389648</ele>
        <time>2011-08-16T10:42:15.000Z</time>
      </trkpt>
      <trkpt lat="48.70479" lon="1.77235">
        <ele>181.39999389648</ele>
        <time>2011-08-16T10:42:17.000Z</time>
      </trkpt>
      <trkpt lat="48.70486" lon="1.77235">
        <ele>181.39999389648</ele>
        <time>2011-08-16T10:42:23.000Z</time>
      </trkpt>
      <trkpt lat="48.70491" lon="1.77236">
        <ele>181.60000610352</ele>
        <time>2011-08-16T10:42:27.000Z</time>
      </trkpt>
      <trkpt lat="48.70498" lon="1.77237">
        <ele>181.80000305176</ele>
        <time>2011-08-16T10:42:34.000Z</time>
      </trkpt>
      <trkpt lat="48.70507" lon="1.77237">
        <ele>181.60000610352</ele>
        <time>2011-08-16T10:42:42.000Z</time>
      </trkpt>
      <trkpt lat="48.70515" lon="1.77237">
        <ele>181.39999389648</ele>
        <time>2011-08-16T10:42:48.000Z</time>
      </trkpt>
      <trkpt lat="48.70525" lon="1.77236">
        <ele>181.19999694824</ele>
        <time>2011-08-16T10:42:57.000Z</time>
      </trkpt>
      <trkpt lat="48.70534" lon="1.77237">
        <ele>181</ele>
        <time>2011-08-16T10:43:04.000Z</time>
      </trkpt>
      <trkpt lat="48.70542" lon="1.77237">
        <ele>181</ele>
        <time>2011-08-16T10:43:10.000Z</time>
      </trkpt>
      <trkpt lat="48.70552" lon="1.77238">
        <ele>180.80000305176</ele>
        <time>2011-08-16T10:43:19.000Z</time>
      </trkpt>
      <trkpt lat="48.70563" lon="1.77241">
        <ele>180.80000305176</ele>
        <time>2011-08-16T10:43:27.000Z</time>
      </trkpt>
      <trkpt lat="48.70565" lon="1.7724">
        <ele>180.60000610352</ele>
        <time>2011-08-16T10:43:29.000Z</time>
      </trkpt>
      <trkpt lat="48.70574" lon="1.7724">
        <ele>180.39999389648</ele>
        <time>2011-08-16T10:43:37.000Z</time>
      </trkpt>
      <trkpt lat="48.70582" lon="1.77242">
        <ele>180.39999389648</ele>
        <time>2011-08-16T10:43:43.000Z</time>
      </trkpt>
      <trkpt lat="48.7059" lon="1.77243">
        <ele>180.19999694824</ele>
        <time>2011-08-16T10:43:49.000Z</time>
      </trkpt>
      <trkpt lat="48.70603" lon="1.77244">
        <ele>179.60000610352</ele>
        <time>2011-08-16T10:43:59.000Z</time>
      </trkpt>
      <trkpt lat="48.70613" lon="1.77246">
        <ele>179.19999694824</ele>
        <time>2011-08-16T10:44:07.000Z</time>
      </trkpt>
      <trkpt lat="48.70623" lon="1.77247">
        <ele>178.80000305176</ele>
        <time>2011-08-16T10:44:15.000Z</time>
      </trkpt>
      <trkpt lat="48.70634" lon="1.77249">
        <ele>178.39999389648</ele>
        <time>2011-08-16T10:44:24.000Z</time>
      </trkpt>
      <trkpt lat="48.70644" lon="1.77249">
        <ele>178</ele>
        <time>2011-08-16T10:44:32.000Z</time>
      </trkpt>
      <trkpt lat="48.70654" lon="1.7725">
        <ele>177.60000610352</ele>
        <time>2011-08-16T10:44:40.000Z</time>
      </trkpt>
      <trkpt lat="48.70663" lon="1.77252">
        <ele>177</ele>
        <time>2011-08-16T10:44:47.000Z</time>
      </trkpt>
      <trkpt lat="48.70673" lon="1.77251">
        <ele>176.80000305176</ele>
        <time>2011-08-16T10:44:54.000Z</time>
      </trkpt>
      <trkpt lat="48.70677" lon="1.77251">
        <ele>176.80000305176</ele>
        <time>2011-08-16T10:44:57.000Z</time>
      </trkpt>
      <trkpt lat="48.70684" lon="1.7725">
        <ele>176.60000610352</ele>
        <time>2011-08-16T10:45:01.000Z</time>
      </trkpt>
      <trkpt lat="48.70686" lon="1.77251">
        <ele>176.60000610352</ele>
        <time>2011-08-16T10:45:03.000Z</time>
      </trkpt>
      <trkpt lat="48.70687" lon="1.77251">
        <ele>176.60000610352</ele>
        <time>2011-08-16T10:45:06.000Z</time>
      </trkpt>
      <trkpt lat="48.70696" lon="1.77254">
        <ele>176.60000610352</ele>
        <time>2011-08-16T10:45:22.000Z</time>
      </trkpt>
      <trkpt lat="48.70702" lon="1.77254">
        <ele>176.60000610352</ele>
        <time>2011-08-16T10:45:26.000Z</time>
      </trkpt>
      <trkpt lat="48.70714" lon="1.77255">
        <ele>176.39999389648</ele>
        <time>2011-08-16T10:45:35.000Z</time>
      </trkpt>
      <trkpt lat="48.70724" lon="1.77255">
        <ele>176.19999694824</ele>
        <time>2011-08-16T10:45:43.000Z</time>
      </trkpt>
      <trkpt lat="48.70734" lon="1.77255">
        <ele>176.19999694824</ele>
        <time>2011-08-16T10:45:51.000Z</time>
      </trkpt>
      <trkpt lat="48.70744" lon="1.77254">
        <ele>176</ele>
        <time>2011-08-16T10:45:58.000Z</time>
      </trkpt>
      <trkpt lat="48.70753" lon="1.77252">
        <ele>175.80000305176</ele>
        <time>2011-08-16T10:46:05.000Z</time>
      </trkpt>
      <trkpt lat="48.70765" lon="1.77251">
        <ele>175.80000305176</ele>
        <time>2011-08-16T10:46:14.000Z</time>
      </trkpt>
      <trkpt lat="48.70774" lon="1.77249">
        <ele>175.60000610352</ele>
        <time>2011-08-16T10:46:21.000Z</time>
      </trkpt>
      <trkpt lat="48.70785" lon="1.7725">
        <ele>175.39999389648</ele>
        <time>2011-08-16T10:46:29.000Z</time>
      </trkpt>
      <trkpt lat="48.70787" lon="1.7725">
        <ele>175.39999389648</ele>
        <time>2011-08-16T10:46:31.000Z</time>
      </trkpt>
      <trkpt lat="48.70792" lon="1.77249">
        <ele>175.39999389648</ele>
        <time>2011-08-16T10:46:35.000Z</time>
      </trkpt>
      <trkpt lat="48.70803" lon="1.77248">
        <ele>175.19999694824</ele>
        <time>2011-08-16T10:46:44.000Z</time>
      </trkpt>
      <trkpt lat="48.70811" lon="1.77248">
        <ele>175</ele>
        <time>2011-08-16T10:46:51.000Z</time>
      </trkpt>
      <trkpt lat="48.70816" lon="1.77247">
        <ele>175</ele>
        <time>2011-08-16T10:46:55.000Z</time>
      </trkpt>
      <trkpt lat="48.70825" lon="1.77247">
        <ele>174.80000305176</ele>
        <time>2011-08-16T10:47:03.000Z</time>
      </trkpt>
      <trkpt lat="48.70835" lon="1.77248">
        <ele>174.80000305176</ele>
        <time>2011-08-16T10:47:11.000Z</time>
      </trkpt>
      <trkpt lat="48.70843" lon="1.7725">
        <ele>175</ele>
        <time>2011-08-16T10:47:18.000Z</time>
      </trkpt>
      <trkpt lat="48.70852" lon="1.77249">
        <ele>175</ele>
        <time>2011-08-16T10:47:26.000Z</time>
      </trkpt>
      <trkpt lat="48.70861" lon="1.77249">
        <ele>175.19999694824</ele>
        <time>2011-08-16T10:47:33.000Z</time>
      </trkpt>
      <trkpt lat="48.70872" lon="1.77251">
        <ele>175.39999389648</ele>
        <time>2011-08-16T10:47:41.000Z</time>
      </trkpt>
      <trkpt lat="48.70877" lon="1.77256">
        <ele>175.60000610352</ele>
        <time>2011-08-16T10:47:46.000Z</time>
      </trkpt>
      <trkpt lat="48.7088" lon="1.77267">
        <ele>175.80000305176</ele>
        <time>2011-08-16T10:47:53.000Z</time>
      </trkpt>
      <trkpt lat="48.70885" lon="1.7728">
        <ele>176</ele>
        <time>2011-08-16T10:48:01.000Z</time>
      </trkpt>
      <trkpt lat="48.7089" lon="1.77296">
        <ele>176.60000610352</ele>
        <time>2011-08-16T10:48:10.000Z</time>
      </trkpt>
      <trkpt lat="48.70891" lon="1.77298">
        <ele>176.60000610352</ele>
        <time>2011-08-16T10:48:11.000Z</time>
      </trkpt>
      <trkpt lat="48.70893" lon="1.77304">
        <ele>176.80000305176</ele>
        <time>2011-08-16T10:48:15.000Z</time>
      </trkpt>
      <trkpt lat="48.70899" lon="1.77319">
        <ele>177.19999694824</ele>
        <time>2011-08-16T10:48:23.000Z</time>
      </trkpt>
      <trkpt lat="48.70907" lon="1.77336">
        <ele>177.60000610352</ele>
        <time>2011-08-16T10:48:34.000Z</time>
      </trkpt>
      <trkpt lat="48.70914" lon="1.77347">
        <ele>177.39999389648</ele>
        <time>2011-08-16T10:48:42.000Z</time>
      </trkpt>
      <trkpt lat="48.7092" lon="1.77361">
        <ele>177</ele>
        <time>2011-08-16T10:48:49.000Z</time>
      </trkpt>
      <trkpt lat="48.70924" lon="1.77368">
        <ele>176.60000610352</ele>
        <time>2011-08-16T10:48:54.000Z</time>
      </trkpt>
      <trkpt lat="48.70932" lon="1.7738">
        <ele>176.39999389648</ele>
        <time>2011-08-16T10:49:02.000Z</time>
      </trkpt>
      <trkpt lat="48.70937" lon="1.77391">
        <ele>176</ele>
        <time>2011-08-16T10:49:10.000Z</time>
      </trkpt>
      <trkpt lat="48.70947" lon="1.77409">
        <ele>175.80000305176</ele>
        <time>2011-08-16T10:49:22.000Z</time>
      </trkpt>
      <trkpt lat="48.70951" lon="1.7742">
        <ele>175.60000610352</ele>
        <time>2011-08-16T10:49:28.000Z</time>
      </trkpt>
      <trkpt lat="48.70957" lon="1.77431">
        <ele>175.60000610352</ele>
        <time>2011-08-16T10:49:33.000Z</time>
      </trkpt>
      <trkpt lat="48.70961" lon="1.77439">
        <ele>175.39999389648</ele>
        <time>2011-08-16T10:49:38.000Z</time>
      </trkpt>
      <trkpt lat="48.70963" lon="1.77445">
        <ele>175.39999389648</ele>
        <time>2011-08-16T10:49:42.000Z</time>
      </trkpt>
      <trkpt lat="48.70967" lon="1.77448">
        <ele>175.19999694824</ele>
        <time>2011-08-16T10:49:46.000Z</time>
      </trkpt>
      <trkpt lat="48.70976" lon="1.77465">
        <ele>175</ele>
        <time>2011-08-16T10:49:57.000Z</time>
      </trkpt>
      <trkpt lat="48.70981" lon="1.77479">
        <ele>174.60000610352</ele>
        <time>2011-08-16T10:50:06.000Z</time>
      </trkpt>
      <trkpt lat="48.70984" lon="1.77487">
        <ele>174.39999389648</ele>
        <time>2011-08-16T10:50:12.000Z</time>
      </trkpt>
      <trkpt lat="48.70992" lon="1.77504">
        <ele>173.80000305176</ele>
        <time>2011-08-16T10:50:23.000Z</time>
      </trkpt>
      <trkpt lat="48.70997" lon="1.7752">
        <ele>173.39999389648</ele>
        <time>2011-08-16T10:50:32.000Z</time>
      </trkpt>
      <trkpt lat="48.71002" lon="1.77533">
        <ele>173</ele>
        <time>2011-08-16T10:50:40.000Z</time>
      </trkpt>
      <trkpt lat="48.71003" lon="1.77535">
        <ele>173</ele>
        <time>2011-08-16T10:50:44.000Z</time>
      </trkpt>
      <trkpt lat="48.71009" lon="1.77544">
        <ele>172.80000305176</ele>
        <time>2011-08-16T10:51:02.000Z</time>
      </trkpt>
      <trkpt lat="48.71015" lon="1.77557">
        <ele>172.39999389648</ele>
        <time>2011-08-16T10:51:09.000Z</time>
      </trkpt>
      <trkpt lat="48.71021" lon="1.77573">
        <ele>172.19999694824</ele>
        <time>2011-08-16T10:51:19.000Z</time>
      </trkpt>
      <trkpt lat="48.71028" lon="1.7759">
        <ele>171.80000305176</ele>
        <time>2011-08-16T10:51:29.000Z</time>
      </trkpt>
      <trkpt lat="48.71033" lon="1.77605">
        <ele>171.60000610352</ele>
        <time>2011-08-16T10:51:38.000Z</time>
      </trkpt>
      <trkpt lat="48.7104" lon="1.77623">
        <ele>171.39999389648</ele>
        <time>2011-08-16T10:51:48.000Z</time>
      </trkpt>
      <trkpt lat="48.71044" lon="1.77634">
        <ele>171.19999694824</ele>
        <time>2011-08-16T10:51:56.000Z</time>
      </trkpt>
      <trkpt lat="48.71044" lon="1.7764">
        <ele>171.19999694824</ele>
        <time>2011-08-16T10:52:00.000Z</time>
      </trkpt>
      <trkpt lat="48.71045" lon="1.77648">
        <ele>171</ele>
        <time>2011-08-16T10:52:04.000Z</time>
      </trkpt>
      <trkpt lat="48.7105" lon="1.77651">
        <ele>171</ele>
        <time>2011-08-16T10:52:07.000Z</time>
      </trkpt>
      <trkpt lat="48.71053" lon="1.77659">
        <ele>170.80000305176</ele>
        <time>2011-08-16T10:52:13.000Z</time>
      </trkpt>
      <trkpt lat="48.71055" lon="1.77665">
        <ele>170.60000610352</ele>
        <time>2011-08-16T10:52:17.000Z</time>
      </trkpt>
      <trkpt lat="48.71055" lon="1.77671">
        <ele>170.60000610352</ele>
        <time>2011-08-16T10:52:22.000Z</time>
      </trkpt>
      <trkpt lat="48.71057" lon="1.77672">
        <ele>170.39999389648</ele>
        <time>2011-08-16T10:52:23.000Z</time>
      </trkpt>
      <trkpt lat="48.71061" lon="1.77678">
        <ele>170.19999694824</ele>
        <time>2011-08-16T10:52:27.000Z</time>
      </trkpt>
      <trkpt lat="48.71063" lon="1.77686">
        <ele>170.19999694824</ele>
        <time>2011-08-16T10:52:32.000Z</time>
      </trkpt>
      <trkpt lat="48.71066" lon="1.77694">
        <ele>170</ele>
        <time>2011-08-16T10:52:37.000Z</time>
      </trkpt>
      <trkpt lat="48.7107" lon="1.77698">
        <ele>169.80000305176</ele>
        <time>2011-08-16T10:52:41.000Z</time>
      </trkpt>
      <trkpt lat="48.71072" lon="1.77703">
        <ele>169.80000305176</ele>
        <time>2011-08-16T10:52:45.000Z</time>
      </trkpt>
      <trkpt lat="48.71075" lon="1.77714">
        <ele>169.60000610352</ele>
        <time>2011-08-16T10:52:52.000Z</time>
      </trkpt>
      <trkpt lat="48.71078" lon="1.77721">
        <ele>169.39999389648</ele>
        <time>2011-08-16T10:52:57.000Z</time>
      </trkpt>
      <trkpt lat="48.71082" lon="1.77732">
        <ele>169.19999694824</ele>
        <time>2011-08-16T10:53:04.000Z</time>
      </trkpt>
      <trkpt lat="48.71087" lon="1.77744">
        <ele>169</ele>
        <time>2011-08-16T10:53:10.000Z</time>
      </trkpt>
      <trkpt lat="48.71091" lon="1.77749">
        <ele>169</ele>
        <time>2011-08-16T10:53:14.000Z</time>
      </trkpt>
      <trkpt lat="48.71092" lon="1.7775">
        <ele>169</ele>
        <time>2011-08-16T10:53:15.000Z</time>
      </trkpt>
      <trkpt lat="48.71097" lon="1.7775">
        <ele>169</ele>
        <time>2011-08-16T10:53:19.000Z</time>
      </trkpt>
      <trkpt lat="48.71102" lon="1.77745">
        <ele>169.19999694824</ele>
        <time>2011-08-16T10:53:27.000Z</time>
      </trkpt>
      <trkpt lat="48.71111" lon="1.77744">
        <ele>169.19999694824</ele>
        <time>2011-08-16T10:53:34.000Z</time>
      </trkpt>
      <trkpt lat="48.71121" lon="1.77743">
        <ele>169.39999389648</ele>
        <time>2011-08-16T10:53:40.000Z</time>
      </trkpt>
      <trkpt lat="48.71132" lon="1.77743">
        <ele>169.60000610352</ele>
        <time>2011-08-16T10:53:47.000Z</time>
      </trkpt>
      <trkpt lat="48.7114" lon="1.77747">
        <ele>169.60000610352</ele>
        <time>2011-08-16T10:53:52.000Z</time>
      </trkpt>
      <trkpt lat="48.71147" lon="1.77752">
        <ele>169.60000610352</ele>
        <time>2011-08-16T10:53:57.000Z</time>
      </trkpt>
      <trkpt lat="48.71155" lon="1.77756">
        <ele>169.80000305176</ele>
        <time>2011-08-16T10:54:05.000Z</time>
      </trkpt>
      <trkpt lat="48.71165" lon="1.7776">
        <ele>169.80000305176</ele>
        <time>2011-08-16T10:54:12.000Z</time>
      </trkpt>
      <trkpt lat="48.71173" lon="1.77765">
        <ele>170</ele>
        <time>2011-08-16T10:54:19.000Z</time>
      </trkpt>
      <trkpt lat="48.71177" lon="1.77768">
        <ele>170.19999694824</ele>
        <time>2011-08-16T10:54:24.000Z</time>
      </trkpt>
      <trkpt lat="48.71181" lon="1.77772">
        <ele>170.39999389648</ele>
        <time>2011-08-16T10:54:29.000Z</time>
      </trkpt>
      <trkpt lat="48.71189" lon="1.77777">
        <ele>170.60000610352</ele>
        <time>2011-08-16T10:54:37.000Z</time>
      </trkpt>
      <trkpt lat="48.71195" lon="1.7778">
        <ele>170.80000305176</ele>
        <time>2011-08-16T10:54:43.000Z</time>
      </trkpt>
      <trkpt lat="48.71201" lon="1.77783">
        <ele>171</ele>
        <time>2011-08-16T10:54:49.000Z</time>
      </trkpt>
      <trkpt lat="48.71209" lon="1.77789">
        <ele>171.39999389648</ele>
        <time>2011-08-16T10:54:58.000Z</time>
      </trkpt>
      <trkpt lat="48.71216" lon="1.77795">
        <ele>171.80000305176</ele>
        <time>2011-08-16T10:55:05.000Z</time>
      </trkpt>
      <trkpt lat="48.71233" lon="1.77809">
        <ele>172.60000610352</ele>
        <time>2011-08-16T10:55:28.000Z</time>
      </trkpt>
      <trkpt lat="48.71244" lon="1.77805">
        <ele>173</ele>
        <time>2011-08-16T10:56:47.000Z</time>
      </trkpt>
      <trkpt lat="48.71246" lon="1.77804">
        <ele>173</ele>
        <time>2011-08-16T10:56:48.000Z</time>
      </trkpt>
      <trkpt lat="48.71249" lon="1.77804">
        <ele>173.19999694824</ele>
        <time>2011-08-16T10:56:52.000Z</time>
      </trkpt>
      <trkpt lat="48.71242" lon="1.77808">
        <ele>173</ele>
        <time>2011-08-16T10:57:16.000Z</time>
      </trkpt>
      <trkpt lat="48.71238" lon="1.77808">
        <ele>172.80000305176</ele>
        <time>2011-08-16T10:57:22.000Z</time>
      </trkpt>
      <trkpt lat="48.71238" lon="1.77808">
        <ele>172.80000305176</ele>
        <time>2011-08-16T10:57:23.000Z</time>
      </trkpt>
      <trkpt lat="48.71256" lon="1.77819">
        <ele>173.39999389648</ele>
        <time>2011-08-16T10:58:14.000Z</time>
      </trkpt>
      <trkpt lat="48.71261" lon="1.77819">
        <ele>173.39999389648</ele>
        <time>2011-08-16T10:58:20.000Z</time>
      </trkpt>
      <trkpt lat="48.71269" lon="1.77821">
        <ele>173.39999389648</ele>
        <time>2011-08-16T10:58:27.000Z</time>
      </trkpt>
      <trkpt lat="48.71279" lon="1.77822">
        <ele>173.39999389648</ele>
        <time>2011-08-16T10:58:35.000Z</time>
      </trkpt>
      <trkpt lat="48.71285" lon="1.77826">
        <ele>173.39999389648</ele>
        <time>2011-08-16T10:58:41.000Z</time>
      </trkpt>
      <trkpt lat="48.71288" lon="1.77826">
        <ele>173.39999389648</ele>
        <time>2011-08-16T10:58:45.000Z</time>
      </trkpt>
      <trkpt lat="48.71296" lon="1.77825">
        <ele>173.19999694824</ele>
        <time>2011-08-16T10:58:51.000Z</time>
      </trkpt>
      <trkpt lat="48.71303" lon="1.77824">
        <ele>173.19999694824</ele>
        <time>2011-08-16T10:58:59.000Z</time>
      </trkpt>
      <trkpt lat="48.71312" lon="1.77822">
        <ele>173</ele>
        <time>2011-08-16T10:59:07.000Z</time>
      </trkpt>
      <trkpt lat="48.71318" lon="1.7782">
        <ele>172.80000305176</ele>
        <time>2011-08-16T10:59:12.000Z</time>
      </trkpt>
      <trkpt lat="48.71328" lon="1.77819">
        <ele>172.80000305176</ele>
        <time>2011-08-16T10:59:19.000Z</time>
      </trkpt>
      <trkpt lat="48.71336" lon="1.77817">
        <ele>172.80000305176</ele>
        <time>2011-08-16T10:59:25.000Z</time>
      </trkpt>
      <trkpt lat="48.71347" lon="1.77815">
        <ele>172.60000610352</ele>
        <time>2011-08-16T10:59:33.000Z</time>
      </trkpt>
      <trkpt lat="48.71355" lon="1.77813">
        <ele>172.60000610352</ele>
        <time>2011-08-16T10:59:40.000Z</time>
      </trkpt>
      <trkpt lat="48.71363" lon="1.77811">
        <ele>172.60000610352</ele>
        <time>2011-08-16T10:59:47.000Z</time>
      </trkpt>
      <trkpt lat="48.71364" lon="1.77811">
        <ele>172.60000610352</ele>
        <time>2011-08-16T10:59:48.000Z</time>
      </trkpt>
      <trkpt lat="48.71372" lon="1.77812">
        <ele>172.60000610352</ele>
        <time>2011-08-16T10:59:54.000Z</time>
      </trkpt>
      <trkpt lat="48.71373" lon="1.77812">
        <ele>172.60000610352</ele>
        <time>2011-08-16T10:59:55.000Z</time>
      </trkpt>
      <trkpt lat="48.71375" lon="1.77811">
        <ele>172.60000610352</ele>
        <time>2011-08-16T10:59:57.000Z</time>
      </trkpt>
      <trkpt lat="48.71385" lon="1.77809">
        <ele>172.60000610352</ele>
        <time>2011-08-16T11:00:05.000Z</time>
      </trkpt>
      <trkpt lat="48.71387" lon="1.77808">
        <ele>172.60000610352</ele>
        <time>2011-08-16T11:00:06.000Z</time>
      </trkpt>
      <trkpt lat="48.71392" lon="1.77803">
        <ele>172.60000610352</ele>
        <time>2011-08-16T11:00:12.000Z</time>
      </trkpt>
      <trkpt lat="48.71393" lon="1.778">
        <ele>172.39999389648</ele>
        <time>2011-08-16T11:00:15.000Z</time>
      </trkpt>
      <trkpt lat="48.71399" lon="1.77799">
        <ele>172.39999389648</ele>
        <time>2011-08-16T11:00:19.000Z</time>
      </trkpt>
      <trkpt lat="48.71402" lon="1.77796">
        <ele>172.39999389648</ele>
        <time>2011-08-16T11:00:24.000Z</time>
      </trkpt>
      <trkpt lat="48.71405" lon="1.77793">
        <ele>172.39999389648</ele>
        <time>2011-08-16T11:00:28.000Z</time>
      </trkpt>
      <trkpt lat="48.71413" lon="1.77788">
        <ele>172.39999389648</ele>
        <time>2011-08-16T11:00:34.000Z</time>
      </trkpt>
      <trkpt lat="48.71414" lon="1.77788">
        <ele>172.39999389648</ele>
        <time>2011-08-16T11:00:35.000Z</time>
      </trkpt>
      <trkpt lat="48.71418" lon="1.77786">
        <ele>172.39999389648</ele>
        <time>2011-08-16T11:00:40.000Z</time>
      </trkpt>
      <trkpt lat="48.71423" lon="1.77788">
        <ele>172.60000610352</ele>
        <time>2011-08-16T11:00:46.000Z</time>
      </trkpt>
      <trkpt lat="48.71428" lon="1.77795">
        <ele>173</ele>
        <time>2011-08-16T11:00:53.000Z</time>
      </trkpt>
      <trkpt lat="48.71432" lon="1.778">
        <ele>173.19999694824</ele>
        <time>2011-08-16T11:01:01.000Z</time>
      </trkpt>
      <trkpt lat="48.71434" lon="1.77797">
        <ele>173.19999694824</ele>
        <time>2011-08-16T11:01:03.000Z</time>
      </trkpt>
      <trkpt lat="48.71441" lon="1.77788">
        <ele>173.39999389648</ele>
        <time>2011-08-16T11:01:10.000Z</time>
      </trkpt>
      <trkpt lat="48.71446" lon="1.77774">
        <ele>173.39999389648</ele>
        <time>2011-08-16T11:01:18.000Z</time>
      </trkpt>
      <trkpt lat="48.71449" lon="1.77762">
        <ele>173.19999694824</ele>
        <time>2011-08-16T11:01:26.000Z</time>
      </trkpt>
      <trkpt lat="48.71454" lon="1.77752">
        <ele>173.19999694824</ele>
        <time>2011-08-16T11:01:32.000Z</time>
      </trkpt>
      <trkpt lat="48.71458" lon="1.77746">
        <ele>173.39999389648</ele>
        <time>2011-08-16T11:01:37.000Z</time>
      </trkpt>
      <trkpt lat="48.71469" lon="1.77741">
        <ele>173.60000610352</ele>
        <time>2011-08-16T11:01:46.000Z</time>
      </trkpt>
      <trkpt lat="48.71477" lon="1.77736">
        <ele>173.80000305176</ele>
        <time>2011-08-16T11:01:53.000Z</time>
      </trkpt>
      <trkpt lat="48.71484" lon="1.77731">
        <ele>174</ele>
        <time>2011-08-16T11:02:00.000Z</time>
      </trkpt>
      <trkpt lat="48.71493" lon="1.77726">
        <ele>174.19999694824</ele>
        <time>2011-08-16T11:02:09.000Z</time>
      </trkpt>
      <trkpt lat="48.71498" lon="1.77724">
        <ele>174.19999694824</ele>
        <time>2011-08-16T11:02:13.000Z</time>
      </trkpt>
      <trkpt lat="48.71508" lon="1.77718">
        <ele>174.60000610352</ele>
        <time>2011-08-16T11:02:20.000Z</time>
      </trkpt>
      <trkpt lat="48.71516" lon="1.77714">
        <ele>175</ele>
        <time>2011-08-16T11:02:26.000Z</time>
      </trkpt>
      <trkpt lat="48.71527" lon="1.77707">
        <ele>175.60000610352</ele>
        <time>2011-08-16T11:02:34.000Z</time>
      </trkpt>
      <trkpt lat="48.71533" lon="1.77702">
        <ele>176</ele>
        <time>2011-08-16T11:02:41.000Z</time>
      </trkpt>
      <trkpt lat="48.71541" lon="1.77701">
        <ele>176.60000610352</ele>
        <time>2011-08-16T11:02:48.000Z</time>
      </trkpt>
      <trkpt lat="48.71549" lon="1.77701">
        <ele>177.19999694824</ele>
        <time>2011-08-16T11:02:54.000Z</time>
      </trkpt>
      <trkpt lat="48.7156" lon="1.77702">
        <ele>177.80000305176</ele>
        <time>2011-08-16T11:03:02.000Z</time>
      </trkpt>
      <trkpt lat="48.7157" lon="1.77702">
        <ele>178.60000610352</ele>
        <time>2011-08-16T11:03:11.000Z</time>
      </trkpt>
      <trkpt lat="48.71573" lon="1.77702">
        <ele>178.80000305176</ele>
        <time>2011-08-16T11:03:13.000Z</time>
      </trkpt>
      <trkpt lat="48.71581" lon="1.77704">
        <ele>179.39999389648</ele>
        <time>2011-08-16T11:03:20.000Z</time>
      </trkpt>
      <trkpt lat="48.71584" lon="1.77705">
        <ele>179.39999389648</ele>
        <time>2011-08-16T11:03:23.000Z</time>
      </trkpt>
      <trkpt lat="48.71589" lon="1.77708">
        <ele>179.39999389648</ele>
        <time>2011-08-16T11:03:28.000Z</time>
      </trkpt>
      <trkpt lat="48.71596" lon="1.77715">
        <ele>179.39999389648</ele>
        <time>2011-08-16T11:03:36.000Z</time>
      </trkpt>
      <trkpt lat="48.71607" lon="1.7772">
        <ele>179.39999389648</ele>
        <time>2011-08-16T11:03:44.000Z</time>
      </trkpt>
      <trkpt lat="48.71616" lon="1.77725">
        <ele>179.39999389648</ele>
        <time>2011-08-16T11:03:52.000Z</time>
      </trkpt>
      <trkpt lat="48.71625" lon="1.7773">
        <ele>179.39999389648</ele>
        <time>2011-08-16T11:03:59.000Z</time>
      </trkpt>
      <trkpt lat="48.71629" lon="1.77732">
        <ele>179.39999389648</ele>
        <time>2011-08-16T11:04:02.000Z</time>
      </trkpt>
      <trkpt lat="48.71637" lon="1.77738">
        <ele>179.60000610352</ele>
        <time>2011-08-16T11:04:10.000Z</time>
      </trkpt>
      <trkpt lat="48.71643" lon="1.77743">
        <ele>179.60000610352</ele>
        <time>2011-08-16T11:04:16.000Z</time>
      </trkpt>
      <trkpt lat="48.7165" lon="1.77744">
        <ele>179.60000610352</ele>
        <time>2011-08-16T11:04:23.000Z</time>
      </trkpt>
      <trkpt lat="48.71658" lon="1.77748">
        <ele>179.80000305176</ele>
        <time>2011-08-16T11:04:30.000Z</time>
      </trkpt>
      <trkpt lat="48.71666" lon="1.77754">
        <ele>179.80000305176</ele>
        <time>2011-08-16T11:04:37.000Z</time>
      </trkpt>
      <trkpt lat="48.71676" lon="1.77761">
        <ele>179.80000305176</ele>
        <time>2011-08-16T11:04:45.000Z</time>
      </trkpt>
      <trkpt lat="48.71691" lon="1.77766">
        <ele>179.60000610352</ele>
        <time>2011-08-16T11:04:56.000Z</time>
      </trkpt>
      <trkpt lat="48.71703" lon="1.77771">
        <ele>179.60000610352</ele>
        <time>2011-08-16T11:05:05.000Z</time>
      </trkpt>
      <trkpt lat="48.71711" lon="1.7777">
        <ele>179.39999389648</ele>
        <time>2011-08-16T11:05:11.000Z</time>
      </trkpt>
      <trkpt lat="48.71723" lon="1.77765">
        <ele>179.19999694824</ele>
        <time>2011-08-16T11:05:19.000Z</time>
      </trkpt>
      <trkpt lat="48.71735" lon="1.77758">
        <ele>178.60000610352</ele>
        <time>2011-08-16T11:05:29.000Z</time>
      </trkpt>
      <trkpt lat="48.71746" lon="1.77751">
        <ele>178</ele>
        <time>2011-08-16T11:05:37.000Z</time>
      </trkpt>
      <trkpt lat="48.71757" lon="1.77745">
        <ele>177.80000305176</ele>
        <time>2011-08-16T11:05:45.000Z</time>
      </trkpt>
      <trkpt lat="48.71766" lon="1.77738">
        <ele>177.80000305176</ele>
        <time>2011-08-16T11:05:53.000Z</time>
      </trkpt>
      <trkpt lat="48.71769" lon="1.77736">
        <ele>177.80000305176</ele>
        <time>2011-08-16T11:05:56.000Z</time>
      </trkpt>
      <trkpt lat="48.71779" lon="1.77728">
        <ele>178</ele>
        <time>2011-08-16T11:06:05.000Z</time>
      </trkpt>
      <trkpt lat="48.71787" lon="1.77721">
        <ele>178</ele>
        <time>2011-08-16T11:06:12.000Z</time>
      </trkpt>
      <trkpt lat="48.71797" lon="1.77707">
        <ele>177.80000305176</ele>
        <time>2011-08-16T11:06:20.000Z</time>
      </trkpt>
      <trkpt lat="48.71806" lon="1.77693">
        <ele>177.80000305176</ele>
        <time>2011-08-16T11:06:29.000Z</time>
      </trkpt>
      <trkpt lat="48.71812" lon="1.77687">
        <ele>178.19999694824</ele>
        <time>2011-08-16T11:06:34.000Z</time>
      </trkpt>
      <trkpt lat="48.7182" lon="1.7768">
        <ele>178.80000305176</ele>
        <time>2011-08-16T11:06:40.000Z</time>
      </trkpt>
      <trkpt lat="48.71831" lon="1.77667">
        <ele>179.60000610352</ele>
        <time>2011-08-16T11:06:50.000Z</time>
      </trkpt>
      <trkpt lat="48.71837" lon="1.77657">
        <ele>179.39999389648</ele>
        <time>2011-08-16T11:06:58.000Z</time>
      </trkpt>
      <trkpt lat="48.71846" lon="1.77648">
        <ele>179</ele>
        <time>2011-08-16T11:07:06.000Z</time>
      </trkpt>
      <trkpt lat="48.71853" lon="1.77641">
        <ele>178.60000610352</ele>
        <time>2011-08-16T11:07:14.000Z</time>
      </trkpt>
      <trkpt lat="48.71858" lon="1.77637">
        <ele>178.39999389648</ele>
        <time>2011-08-16T11:07:18.000Z</time>
      </trkpt>
      <trkpt lat="48.71864" lon="1.77633">
        <ele>178.19999694824</ele>
        <time>2011-08-16T11:07:24.000Z</time>
      </trkpt>
      <trkpt lat="48.71865" lon="1.77631">
        <ele>178.19999694824</ele>
        <time>2011-08-16T11:07:28.000Z</time>
      </trkpt>
      <trkpt lat="48.71879" lon="1.77627">
        <ele>178</ele>
        <time>2011-08-16T11:07:46.000Z</time>
      </trkpt>
      <trkpt lat="48.71887" lon="1.77632">
        <ele>178.39999389648</ele>
        <time>2011-08-16T11:07:53.000Z</time>
      </trkpt>
      <trkpt lat="48.71888" lon="1.77634">
        <ele>178.60000610352</ele>
        <time>2011-08-16T11:07:55.000Z</time>
      </trkpt>
      <trkpt lat="48.71892" lon="1.77645">
        <ele>179.19999694824</ele>
        <time>2011-08-16T11:08:02.000Z</time>
      </trkpt>
      <trkpt lat="48.71898" lon="1.77656">
        <ele>180</ele>
        <time>2011-08-16T11:08:10.000Z</time>
      </trkpt>
      <trkpt lat="48.71903" lon="1.77664">
        <ele>180.60000610352</ele>
        <time>2011-08-16T11:08:17.000Z</time>
      </trkpt>
      <trkpt lat="48.7191" lon="1.77671">
        <ele>181</ele>
        <time>2011-08-16T11:08:23.000Z</time>
      </trkpt>
      <trkpt lat="48.71914" lon="1.7768">
        <ele>181.19999694824</ele>
        <time>2011-08-16T11:08:28.000Z</time>
      </trkpt>
      <trkpt lat="48.71916" lon="1.7769">
        <ele>181.39999389648</ele>
        <time>2011-08-16T11:08:34.000Z</time>
      </trkpt>
      <trkpt lat="48.71919" lon="1.77701">
        <ele>181.60000610352</ele>
        <time>2011-08-16T11:08:41.000Z</time>
      </trkpt>
      <trkpt lat="48.7192" lon="1.77704">
        <ele>181.60000610352</ele>
        <time>2011-08-16T11:08:43.000Z</time>
      </trkpt>
      <trkpt lat="48.71922" lon="1.77712">
        <ele>181.60000610352</ele>
        <time>2011-08-16T11:08:48.000Z</time>
      </trkpt>
      <trkpt lat="48.71925" lon="1.77718">
        <ele>181.60000610352</ele>
        <time>2011-08-16T11:08:52.000Z</time>
      </trkpt>
      <trkpt lat="48.71927" lon="1.77734">
        <ele>182</ele>
        <time>2011-08-16T11:09:00.000Z</time>
      </trkpt>
      <trkpt lat="48.7193" lon="1.77745">
        <ele>182</ele>
        <time>2011-08-16T11:09:06.000Z</time>
      </trkpt>
      <trkpt lat="48.71932" lon="1.77758">
        <ele>182.39999389648</ele>
        <time>2011-08-16T11:09:12.000Z</time>
      </trkpt>
      <trkpt lat="48.71934" lon="1.77774">
        <ele>182.60000610352</ele>
        <time>2011-08-16T11:09:20.000Z</time>
      </trkpt>
      <trkpt lat="48.71934" lon="1.77786">
        <ele>183</ele>
        <time>2011-08-16T11:09:27.000Z</time>
      </trkpt>
      <trkpt lat="48.71936" lon="1.77801">
        <ele>183.39999389648</ele>
        <time>2011-08-16T11:09:35.000Z</time>
      </trkpt>
      <trkpt lat="48.71937" lon="1.77815">
        <ele>183.60000610352</ele>
        <time>2011-08-16T11:09:42.000Z</time>
      </trkpt>
      <trkpt lat="48.71941" lon="1.77823">
        <ele>183.80000305176</ele>
        <time>2011-08-16T11:09:46.000Z</time>
      </trkpt>
      <trkpt lat="48.71947" lon="1.7784">
        <ele>184</ele>
        <time>2011-08-16T11:09:54.000Z</time>
      </trkpt>
      <trkpt lat="48.71948" lon="1.77845">
        <ele>184</ele>
        <time>2011-08-16T11:09:57.000Z</time>
      </trkpt>
      <trkpt lat="48.71951" lon="1.77852">
        <ele>184.19999694824</ele>
        <time>2011-08-16T11:10:01.000Z</time>
      </trkpt>
      <trkpt lat="48.71956" lon="1.77862">
        <ele>184.39999389648</ele>
        <time>2011-08-16T11:10:08.000Z</time>
      </trkpt>
      <trkpt lat="48.7196" lon="1.77869">
        <ele>184.39999389648</ele>
        <time>2011-08-16T11:10:12.000Z</time>
      </trkpt>
      <trkpt lat="48.7197" lon="1.7787">
        <ele>184.19999694824</ele>
        <time>2011-08-16T11:10:19.000Z</time>
      </trkpt>
      <trkpt lat="48.71978" lon="1.77863">
        <ele>183.60000610352</ele>
        <time>2011-08-16T11:10:25.000Z</time>
      </trkpt>
      <trkpt lat="48.71987" lon="1.77854">
        <ele>183</ele>
        <time>2011-08-16T11:10:32.000Z</time>
      </trkpt>
      <trkpt lat="48.7199" lon="1.77851">
        <ele>183</ele>
        <time>2011-08-16T11:10:34.000Z</time>
      </trkpt>
      <trkpt lat="48.71994" lon="1.77844">
        <ele>182.39999389648</ele>
        <time>2011-08-16T11:10:39.000Z</time>
      </trkpt>
      <trkpt lat="48.71998" lon="1.77835">
        <ele>182</ele>
        <time>2011-08-16T11:10:45.000Z</time>
      </trkpt>
      <trkpt lat="48.72001" lon="1.77829">
        <ele>181.60000610352</ele>
        <time>2011-08-16T11:10:50.000Z</time>
      </trkpt>
      <trkpt lat="48.72007" lon="1.77816">
        <ele>181</ele>
        <time>2011-08-16T11:10:57.000Z</time>
      </trkpt>
      <trkpt lat="48.7201" lon="1.77813">
        <ele>180.80000305176</ele>
        <time>2011-08-16T11:10:59.000Z</time>
      </trkpt>
      <trkpt lat="48.72017" lon="1.77804">
        <ele>180</ele>
        <time>2011-08-16T11:11:06.000Z</time>
      </trkpt>
      <trkpt lat="48.72022" lon="1.77794">
        <ele>179.39999389648</ele>
        <time>2011-08-16T11:11:13.000Z</time>
      </trkpt>
      <trkpt lat="48.72025" lon="1.77789">
        <ele>179</ele>
        <time>2011-08-16T11:11:17.000Z</time>
      </trkpt>
      <trkpt lat="48.72029" lon="1.77783">
        <ele>178.39999389648</ele>
        <time>2011-08-16T11:11:22.000Z</time>
      </trkpt>
      <trkpt lat="48.72037" lon="1.77777">
        <ele>177.60000610352</ele>
        <time>2011-08-16T11:11:28.000Z</time>
      </trkpt>
      <trkpt lat="48.72045" lon="1.77774">
        <ele>177</ele>
        <time>2011-08-16T11:11:34.000Z</time>
      </trkpt>
      <trkpt lat="48.72058" lon="1.77773">
        <ele>176.19999694824</ele>
        <time>2011-08-16T11:11:42.000Z</time>
      </trkpt>
      <trkpt lat="48.72067" lon="1.77776">
        <ele>175.80000305176</ele>
        <time>2011-08-16T11:11:49.000Z</time>
      </trkpt>
      <trkpt lat="48.72079" lon="1.77778">
        <ele>175.19999694824</ele>
        <time>2011-08-16T11:11:58.000Z</time>
      </trkpt>
      <trkpt lat="48.72091" lon="1.7778">
        <ele>174.39999389648</ele>
        <time>2011-08-16T11:12:07.000Z</time>
      </trkpt>
      <trkpt lat="48.72101" lon="1.77785">
        <ele>174</ele>
        <time>2011-08-16T11:12:15.000Z</time>
      </trkpt>
      <trkpt lat="48.72111" lon="1.7779">
        <ele>173.80000305176</ele>
        <time>2011-08-16T11:12:24.000Z</time>
      </trkpt>
      <trkpt lat="48.7212" lon="1.77795">
        <ele>173.60000610352</ele>
        <time>2011-08-16T11:12:31.000Z</time>
      </trkpt>
      <trkpt lat="48.72126" lon="1.778">
        <ele>173.39999389648</ele>
        <time>2011-08-16T11:12:36.000Z</time>
      </trkpt>
      <trkpt lat="48.72136" lon="1.77806">
        <ele>173.39999389648</ele>
        <time>2011-08-16T11:12:43.000Z</time>
      </trkpt>
      <trkpt lat="48.72145" lon="1.77813">
        <ele>173.39999389648</ele>
        <time>2011-08-16T11:12:50.000Z</time>
      </trkpt>
      <trkpt lat="48.72151" lon="1.7782">
        <ele>173.60000610352</ele>
        <time>2011-08-16T11:12:56.000Z</time>
      </trkpt>
      <trkpt lat="48.72157" lon="1.77827">
        <ele>173.80000305176</ele>
        <time>2011-08-16T11:13:02.000Z</time>
      </trkpt>
      <trkpt lat="48.72163" lon="1.77833">
        <ele>174.19999694824</ele>
        <time>2011-08-16T11:13:08.000Z</time>
      </trkpt>
      <trkpt lat="48.7217" lon="1.77837">
        <ele>173.80000305176</ele>
        <time>2011-08-16T11:13:13.000Z</time>
      </trkpt>
      <trkpt lat="48.72178" lon="1.77846">
        <ele>173.39999389648</ele>
        <time>2011-08-16T11:13:20.000Z</time>
      </trkpt>
      <trkpt lat="48.72188" lon="1.77854">
        <ele>173</ele>
        <time>2011-08-16T11:13:28.000Z</time>
      </trkpt>
      <trkpt lat="48.72196" lon="1.77859">
        <ele>172.80000305176</ele>
        <time>2011-08-16T11:13:34.000Z</time>
      </trkpt>
      <trkpt lat="48.72204" lon="1.77864">
        <ele>172.39999389648</ele>
        <time>2011-08-16T11:13:41.000Z</time>
      </trkpt>
      <trkpt lat="48.72208" lon="1.77867">
        <ele>172.39999389648</ele>
        <time>2011-08-16T11:13:45.000Z</time>
      </trkpt>
      <trkpt lat="48.72217" lon="1.77875">
        <ele>172.19999694824</ele>
        <time>2011-08-16T11:13:53.000Z</time>
      </trkpt>
      <trkpt lat="48.72227" lon="1.77881">
        <ele>171.80000305176</ele>
        <time>2011-08-16T11:14:00.000Z</time>
      </trkpt>
      <trkpt lat="48.72234" lon="1.77886">
        <ele>171.80000305176</ele>
        <time>2011-08-16T11:14:06.000Z</time>
      </trkpt>
      <trkpt lat="48.7224" lon="1.7789">
        <ele>171.80000305176</ele>
        <time>2011-08-16T11:14:11.000Z</time>
      </trkpt>
      <trkpt lat="48.72247" lon="1.77898">
        <ele>172.19999694824</ele>
        <time>2011-08-16T11:14:17.000Z</time>
      </trkpt>
      <trkpt lat="48.72254" lon="1.77905">
        <ele>172.19999694824</ele>
        <time>2011-08-16T11:14:23.000Z</time>
      </trkpt>
      <trkpt lat="48.7226" lon="1.7791">
        <ele>172.19999694824</ele>
        <time>2011-08-16T11:14:28.000Z</time>
      </trkpt>
      <trkpt lat="48.72264" lon="1.77917">
        <ele>172.19999694824</ele>
        <time>2011-08-16T11:14:33.000Z</time>
      </trkpt>
      <trkpt lat="48.7227" lon="1.77927">
        <ele>171.80000305176</ele>
        <time>2011-08-16T11:14:40.000Z</time>
      </trkpt>
      <trkpt lat="48.72272" lon="1.77932">
        <ele>171.60000610352</ele>
        <time>2011-08-16T11:14:43.000Z</time>
      </trkpt>
      <trkpt lat="48.72275" lon="1.77946">
        <ele>171.60000610352</ele>
        <time>2011-08-16T11:14:51.000Z</time>
      </trkpt>
      <trkpt lat="48.72275" lon="1.77948">
        <ele>171.60000610352</ele>
        <time>2011-08-16T11:14:52.000Z</time>
      </trkpt>
      <trkpt lat="48.72275" lon="1.77967">
        <ele>172.19999694824</ele>
        <time>2011-08-16T11:15:02.000Z</time>
      </trkpt>
      <trkpt lat="48.72273" lon="1.77977">
        <ele>172.60000610352</ele>
        <time>2011-08-16T11:15:07.000Z</time>
      </trkpt>
      <trkpt lat="48.72271" lon="1.77986">
        <ele>173</ele>
        <time>2011-08-16T11:15:12.000Z</time>
      </trkpt>
      <trkpt lat="48.72268" lon="1.77995">
        <ele>173.60000610352</ele>
        <time>2011-08-16T11:15:18.000Z</time>
      </trkpt>
      <trkpt lat="48.72265" lon="1.78003">
        <ele>174.19999694824</ele>
        <time>2011-08-16T11:15:23.000Z</time>
      </trkpt>
      <trkpt lat="48.72258" lon="1.78011">
        <ele>174.80000305176</ele>
        <time>2011-08-16T11:15:28.000Z</time>
      </trkpt>
      <trkpt lat="48.72247" lon="1.78017">
        <ele>175.60000610352</ele>
        <time>2011-08-16T11:15:37.000Z</time>
      </trkpt>
      <trkpt lat="48.72238" lon="1.78021">
        <ele>176.19999694824</ele>
        <time>2011-08-16T11:15:44.000Z</time>
      </trkpt>
      <trkpt lat="48.72237" lon="1.78021">
        <ele>176.19999694824</ele>
        <time>2011-08-16T11:15:45.000Z</time>
      </trkpt>
      <trkpt lat="48.72227" lon="1.78023">
        <ele>177</ele>
        <time>2011-08-16T11:15:51.000Z</time>
      </trkpt>
      <trkpt lat="48.72224" lon="1.78024">
        <ele>177</ele>
        <time>2011-08-16T11:15:53.000Z</time>
      </trkpt>
      <trkpt lat="48.72218" lon="1.78029">
        <ele>177.39999389648</ele>
        <time>2011-08-16T11:15:59.000Z</time>
      </trkpt>
      <trkpt lat="48.72211" lon="1.78038">
        <ele>177.80000305176</ele>
        <time>2011-08-16T11:16:05.000Z</time>
      </trkpt>
      <trkpt lat="48.72204" lon="1.78047">
        <ele>178.19999694824</ele>
        <time>2011-08-16T11:16:11.000Z</time>
      </trkpt>
      <trkpt lat="48.72203" lon="1.78053">
        <ele>178.19999694824</ele>
        <time>2011-08-16T11:16:14.000Z</time>
      </trkpt>
      <trkpt lat="48.72201" lon="1.78056">
        <ele>178.19999694824</ele>
        <time>2011-08-16T11:16:17.000Z</time>
      </trkpt>
      <trkpt lat="48.72201" lon="1.78069">
        <ele>178.19999694824</ele>
        <time>2011-08-16T11:16:24.000Z</time>
      </trkpt>
      <trkpt lat="48.72203" lon="1.78083">
        <ele>177.80000305176</ele>
        <time>2011-08-16T11:16:32.000Z</time>
      </trkpt>
      <trkpt lat="48.72203" lon="1.78092">
        <ele>177.80000305176</ele>
        <time>2011-08-16T11:16:38.000Z</time>
      </trkpt>
      <trkpt lat="48.72205" lon="1.78104">
        <ele>177.60000610352</ele>
        <time>2011-08-16T11:16:45.000Z</time>
      </trkpt>
      <trkpt lat="48.72199" lon="1.78116">
        <ele>178</ele>
        <time>2011-08-16T11:16:52.000Z</time>
      </trkpt>
      <trkpt lat="48.72198" lon="1.78119">
        <ele>178.19999694824</ele>
        <time>2011-08-16T11:16:54.000Z</time>
      </trkpt>
      <trkpt lat="48.72196" lon="1.78132">
        <ele>178.19999694824</ele>
        <time>2011-08-16T11:17:00.000Z</time>
      </trkpt>
      <trkpt lat="48.72194" lon="1.78141">
        <ele>178.39999389648</ele>
        <time>2011-08-16T11:17:05.000Z</time>
      </trkpt>
      <trkpt lat="48.72189" lon="1.78152">
        <ele>178.60000610352</ele>
        <time>2011-08-16T11:17:11.000Z</time>
      </trkpt>
      <trkpt lat="48.72188" lon="1.78158">
        <ele>178.60000610352</ele>
        <time>2011-08-16T11:17:14.000Z</time>
      </trkpt>
      <trkpt lat="48.72185" lon="1.78171">
        <ele>178.80000305176</ele>
        <time>2011-08-16T11:17:21.000Z</time>
      </trkpt>
      <trkpt lat="48.72183" lon="1.78178">
        <ele>179</ele>
        <time>2011-08-16T11:17:25.000Z</time>
      </trkpt>
      <trkpt lat="48.72181" lon="1.78186">
        <ele>179.19999694824</ele>
        <time>2011-08-16T11:17:30.000Z</time>
      </trkpt>
      <trkpt lat="48.72179" lon="1.78196">
        <ele>179.19999694824</ele>
        <time>2011-08-16T11:17:35.000Z</time>
      </trkpt>
      <trkpt lat="48.72175" lon="1.78204">
        <ele>179.60000610352</ele>
        <time>2011-08-16T11:17:39.000Z</time>
      </trkpt>
      <trkpt lat="48.72169" lon="1.78217">
        <ele>179.80000305176</ele>
        <time>2011-08-16T11:17:47.000Z</time>
      </trkpt>
      <trkpt lat="48.72168" lon="1.78219">
        <ele>179.80000305176</ele>
        <time>2011-08-16T11:17:48.000Z</time>
      </trkpt>
      <trkpt lat="48.72163" lon="1.78229">
        <ele>180</ele>
        <time>2011-08-16T11:17:55.000Z</time>
      </trkpt>
      <trkpt lat="48.72159" lon="1.78241">
        <ele>180</ele>
        <time>2011-08-16T11:18:01.000Z</time>
      </trkpt>
      <trkpt lat="48.72158" lon="1.78243">
        <ele>180</ele>
        <time>2011-08-16T11:18:02.000Z</time>
      </trkpt>
      <trkpt lat="48.72154" lon="1.78256">
        <ele>179.80000305176</ele>
        <time>2011-08-16T11:18:09.000Z</time>
      </trkpt>
      <trkpt lat="48.7215" lon="1.78271">
        <ele>179.60000610352</ele>
        <time>2011-08-16T11:18:16.000Z</time>
      </trkpt>
      <trkpt lat="48.72148" lon="1.78277">
        <ele>179.39999389648</ele>
        <time>2011-08-16T11:18:20.000Z</time>
      </trkpt>
      <trkpt lat="48.72146" lon="1.7828">
        <ele>179.39999389648</ele>
        <time>2011-08-16T11:18:22.000Z</time>
      </trkpt>
      <trkpt lat="48.72144" lon="1.78298">
        <ele>179</ele>
        <time>2011-08-16T11:18:31.000Z</time>
      </trkpt>
      <trkpt lat="48.72144" lon="1.78309">
        <ele>178.80000305176</ele>
        <time>2011-08-16T11:18:35.000Z</time>
      </trkpt>
      <trkpt lat="48.72143" lon="1.78318">
        <ele>178.60000610352</ele>
        <time>2011-08-16T11:18:39.000Z</time>
      </trkpt>
      <trkpt lat="48.72144" lon="1.78329">
        <ele>178.19999694824</ele>
        <time>2011-08-16T11:18:46.000Z</time>
      </trkpt>
      <trkpt lat="48.72139" lon="1.78341">
        <ele>177.19999694824</ele>
        <time>2011-08-16T11:18:52.000Z</time>
      </trkpt>
      <trkpt lat="48.72136" lon="1.78352">
        <ele>175.80000305176</ele>
        <time>2011-08-16T11:18:58.000Z</time>
      </trkpt>
      <trkpt lat="48.72135" lon="1.78356">
        <ele>175.39999389648</ele>
        <time>2011-08-16T11:19:00.000Z</time>
      </trkpt>
      <trkpt lat="48.72134" lon="1.78367">
        <ele>174.19999694824</ele>
        <time>2011-08-16T11:19:06.000Z</time>
      </trkpt>
      <trkpt lat="48.72132" lon="1.78377">
        <ele>172.80000305176</ele>
        <time>2011-08-16T11:19:12.000Z</time>
      </trkpt>
      <trkpt lat="48.72132" lon="1.78389">
        <ele>171.39999389648</ele>
        <time>2011-08-16T11:19:18.000Z</time>
      </trkpt>
      <trkpt lat="48.72132" lon="1.78395">
        <ele>170.60000610352</ele>
        <time>2011-08-16T11:19:22.000Z</time>
      </trkpt>
      <trkpt lat="48.72133" lon="1.784">
        <ele>170</ele>
        <time>2011-08-16T11:19:25.000Z</time>
      </trkpt>
      <trkpt lat="48.72134" lon="1.78406">
        <ele>169.19999694824</ele>
        <time>2011-08-16T11:19:28.000Z</time>
      </trkpt>
      <trkpt lat="48.72136" lon="1.78409">
        <ele>168.60000610352</ele>
        <time>2011-08-16T11:19:30.000Z</time>
      </trkpt>
      <trkpt lat="48.72139" lon="1.78423">
        <ele>167.19999694824</ele>
        <time>2011-08-16T11:19:37.000Z</time>
      </trkpt>
      <trkpt lat="48.72142" lon="1.7843">
        <ele>166.80000305176</ele>
        <time>2011-08-16T11:19:42.000Z</time>
      </trkpt>
      <trkpt lat="48.72147" lon="1.78438">
        <ele>166.19999694824</ele>
        <time>2011-08-16T11:19:49.000Z</time>
      </trkpt>
      <trkpt lat="48.72149" lon="1.78439">
        <ele>166</ele>
        <time>2011-08-16T11:19:54.000Z</time>
      </trkpt>
      <trkpt lat="48.72156" lon="1.78452">
        <ele>165.19999694824</ele>
        <time>2011-08-16T11:20:07.000Z</time>
      </trkpt>
      <trkpt lat="48.72159" lon="1.7846">
        <ele>164.60000610352</ele>
        <time>2011-08-16T11:20:12.000Z</time>
      </trkpt>
      <trkpt lat="48.72161" lon="1.78467">
        <ele>164.39999389648</ele>
        <time>2011-08-16T11:20:17.000Z</time>
      </trkpt>
      <trkpt lat="48.72167" lon="1.78477">
        <ele>163.80000305176</ele>
        <time>2011-08-16T11:20:23.000Z</time>
      </trkpt>
      <trkpt lat="48.72174" lon="1.78487">
        <ele>163.39999389648</ele>
        <time>2011-08-16T11:20:30.000Z</time>
      </trkpt>
      <trkpt lat="48.72179" lon="1.78491">
        <ele>163.19999694824</ele>
        <time>2011-08-16T11:20:36.000Z</time>
      </trkpt>
      <trkpt lat="48.72187" lon="1.78492">
        <ele>163.19999694824</ele>
        <time>2011-08-16T11:20:41.000Z</time>
      </trkpt>
      <trkpt lat="48.72196" lon="1.78493">
        <ele>163.19999694824</ele>
        <time>2011-08-16T11:20:46.000Z</time>
      </trkpt>
      <trkpt lat="48.72199" lon="1.78494">
        <ele>163.19999694824</ele>
        <time>2011-08-16T11:20:50.000Z</time>
      </trkpt>
      <trkpt lat="48.72219" lon="1.78496">
        <ele>163.19999694824</ele>
        <time>2011-08-16T11:21:13.000Z</time>
      </trkpt>
      <trkpt lat="48.72225" lon="1.78495">
        <ele>163.19999694824</ele>
        <time>2011-08-16T11:21:17.000Z</time>
      </trkpt>
      <trkpt lat="48.72236" lon="1.78494">
        <ele>163.19999694824</ele>
        <time>2011-08-16T11:21:25.000Z</time>
      </trkpt>
      <trkpt lat="48.72241" lon="1.78494">
        <ele>163.19999694824</ele>
        <time>2011-08-16T11:21:30.000Z</time>
      </trkpt>
      <trkpt lat="48.72249" lon="1.78494">
        <ele>163.19999694824</ele>
        <time>2011-08-16T11:21:35.000Z</time>
      </trkpt>
      <trkpt lat="48.72255" lon="1.78496">
        <ele>163.39999389648</ele>
        <time>2011-08-16T11:21:42.000Z</time>
      </trkpt>
      <trkpt lat="48.72266" lon="1.78499">
        <ele>163.80000305176</ele>
        <time>2011-08-16T11:21:50.000Z</time>
      </trkpt>
      <trkpt lat="48.72272" lon="1.78504">
        <ele>164.19999694824</ele>
        <time>2011-08-16T11:21:54.000Z</time>
      </trkpt>
      <trkpt lat="48.72276" lon="1.78507">
        <ele>164.60000610352</ele>
        <time>2011-08-16T11:21:57.000Z</time>
      </trkpt>
      <trkpt lat="48.72286" lon="1.78516">
        <ele>165.60000610352</ele>
        <time>2011-08-16T11:22:04.000Z</time>
      </trkpt>
      <trkpt lat="48.72294" lon="1.78526">
        <ele>166.60000610352</ele>
        <time>2011-08-16T11:22:11.000Z</time>
      </trkpt>
      <trkpt lat="48.723" lon="1.78539">
        <ele>167.39999389648</ele>
        <time>2011-08-16T11:22:19.000Z</time>
      </trkpt>
      <trkpt lat="48.72304" lon="1.78545">
        <ele>167.80000305176</ele>
        <time>2011-08-16T11:22:23.000Z</time>
      </trkpt>
      <trkpt lat="48.72307" lon="1.78553">
        <ele>168.39999389648</ele>
        <time>2011-08-16T11:22:29.000Z</time>
      </trkpt>
      <trkpt lat="48.72314" lon="1.78565">
        <ele>169</ele>
        <time>2011-08-16T11:22:37.000Z</time>
      </trkpt>
      <trkpt lat="48.72318" lon="1.78568">
        <ele>169.19999694824</ele>
        <time>2011-08-16T11:22:40.000Z</time>
      </trkpt>
      <trkpt lat="48.72322" lon="1.78578">
        <ele>169.60000610352</ele>
        <time>2011-08-16T11:22:47.000Z</time>
      </trkpt>
      <trkpt lat="48.72328" lon="1.78589">
        <ele>170.19999694824</ele>
        <time>2011-08-16T11:22:55.000Z</time>
      </trkpt>
      <trkpt lat="48.72333" lon="1.78597">
        <ele>170.60000610352</ele>
        <time>2011-08-16T11:23:01.000Z</time>
      </trkpt>
      <trkpt lat="48.72339" lon="1.78607">
        <ele>171.60000610352</ele>
        <time>2011-08-16T11:23:09.000Z</time>
      </trkpt>
      <trkpt lat="48.72346" lon="1.78615">
        <ele>172.19999694824</ele>
        <time>2011-08-16T11:23:16.000Z</time>
      </trkpt>
      <trkpt lat="48.72351" lon="1.7862">
        <ele>172.80000305176</ele>
        <time>2011-08-16T11:23:21.000Z</time>
      </trkpt>
      <trkpt lat="48.72357" lon="1.78627">
        <ele>173.39999389648</ele>
        <time>2011-08-16T11:23:28.000Z</time>
      </trkpt>
      <trkpt lat="48.72369" lon="1.78639">
        <ele>174.19999694824</ele>
        <time>2011-08-16T11:23:38.000Z</time>
      </trkpt>
      <trkpt lat="48.72375" lon="1.78646">
        <ele>174.60000610352</ele>
        <time>2011-08-16T11:23:45.000Z</time>
      </trkpt>
      <trkpt lat="48.72379" lon="1.78651">
        <ele>174.80000305176</ele>
        <time>2011-08-16T11:23:50.000Z</time>
      </trkpt>
      <trkpt lat="48.72384" lon="1.78657">
        <ele>175</ele>
        <time>2011-08-16T11:23:54.000Z</time>
      </trkpt>
      <trkpt lat="48.72395" lon="1.78667">
        <ele>175.39999389648</ele>
        <time>2011-08-16T11:24:03.000Z</time>
      </trkpt>
      <trkpt lat="48.72407" lon="1.78674">
        <ele>175.60000610352</ele>
        <time>2011-08-16T11:24:12.000Z</time>
      </trkpt>
      <trkpt lat="48.72416" lon="1.7868">
        <ele>175.80000305176</ele>
        <time>2011-08-16T11:24:20.000Z</time>
      </trkpt>
      <trkpt lat="48.72425" lon="1.78684">
        <ele>176</ele>
        <time>2011-08-16T11:24:27.000Z</time>
      </trkpt>
      <trkpt lat="48.72434" lon="1.78688">
        <ele>176.19999694824</ele>
        <time>2011-08-16T11:24:34.000Z</time>
      </trkpt>
      <trkpt lat="48.72446" lon="1.78691">
        <ele>176.39999389648</ele>
        <time>2011-08-16T11:24:43.000Z</time>
      </trkpt>
      <trkpt lat="48.72455" lon="1.78693">
        <ele>176.60000610352</ele>
        <time>2011-08-16T11:24:50.000Z</time>
      </trkpt>
      <trkpt lat="48.72464" lon="1.78693">
        <ele>176.80000305176</ele>
        <time>2011-08-16T11:24:56.000Z</time>
      </trkpt>
      <trkpt lat="48.72472" lon="1.78694">
        <ele>177</ele>
        <time>2011-08-16T11:25:02.000Z</time>
      </trkpt>
      <trkpt lat="48.72475" lon="1.78693">
        <ele>177</ele>
        <time>2011-08-16T11:25:05.000Z</time>
      </trkpt>
      <trkpt lat="48.72474" lon="1.78693">
        <ele>177</ele>
        <time>2011-08-16T11:25:06.000Z</time>
      </trkpt>
      <trkpt lat="48.72477" lon="1.78693">
        <ele>177.19999694824</ele>
        <time>2011-08-16T11:25:10.000Z</time>
      </trkpt>
      <trkpt lat="48.72481" lon="1.78693">
        <ele>177.19999694824</ele>
        <time>2011-08-16T11:25:11.000Z</time>
      </trkpt>
      <trkpt lat="48.72495" lon="1.78692">
        <ele>177.39999389648</ele>
        <time>2011-08-16T11:25:16.000Z</time>
      </trkpt>
      <trkpt lat="48.72504" lon="1.78693">
        <ele>177.60000610352</ele>
        <time>2011-08-16T11:25:20.000Z</time>
      </trkpt>
      <trkpt lat="48.72511" lon="1.78693">
        <ele>177.80000305176</ele>
        <time>2011-08-16T11:25:25.000Z</time>
      </trkpt>
      <trkpt lat="48.72521" lon="1.78693">
        <ele>178</ele>
        <time>2011-08-16T11:25:32.000Z</time>
      </trkpt>
      <trkpt lat="48.72524" lon="1.78693">
        <ele>178</ele>
        <time>2011-08-16T11:25:34.000Z</time>
      </trkpt>
      <trkpt lat="48.7253" lon="1.78693">
        <ele>178</ele>
        <time>2011-08-16T11:25:38.000Z</time>
      </trkpt>
      <trkpt lat="48.72536" lon="1.78693">
        <ele>178.19999694824</ele>
        <time>2011-08-16T11:25:43.000Z</time>
      </trkpt>
      <trkpt lat="48.72544" lon="1.78694">
        <ele>178.19999694824</ele>
        <time>2011-08-16T11:25:50.000Z</time>
      </trkpt>
      <trkpt lat="48.72553" lon="1.78693">
        <ele>178.39999389648</ele>
        <time>2011-08-16T11:25:57.000Z</time>
      </trkpt>
      <trkpt lat="48.72561" lon="1.78691">
        <ele>178.60000610352</ele>
        <time>2011-08-16T11:26:03.000Z</time>
      </trkpt>
      <trkpt lat="48.72569" lon="1.7869">
        <ele>178.60000610352</ele>
        <time>2011-08-16T11:26:09.000Z</time>
      </trkpt>
      <trkpt lat="48.72579" lon="1.7869">
        <ele>178.80000305176</ele>
        <time>2011-08-16T11:26:16.000Z</time>
      </trkpt>
      <trkpt lat="48.72588" lon="1.78692">
        <ele>179</ele>
        <time>2011-08-16T11:26:23.000Z</time>
      </trkpt>
      <trkpt lat="48.72593" lon="1.78692">
        <ele>179.19999694824</ele>
        <time>2011-08-16T11:26:26.000Z</time>
      </trkpt>
      <trkpt lat="48.72604" lon="1.78694">
        <ele>179.60000610352</ele>
        <time>2011-08-16T11:26:33.000Z</time>
      </trkpt>
      <trkpt lat="48.72614" lon="1.78697">
        <ele>179.80000305176</ele>
        <time>2011-08-16T11:26:40.000Z</time>
      </trkpt>
      <trkpt lat="48.72627" lon="1.78704">
        <ele>180.19999694824</ele>
        <time>2011-08-16T11:26:49.000Z</time>
      </trkpt>
      <trkpt lat="48.72637" lon="1.78712">
        <ele>180.39999389648</ele>
        <time>2011-08-16T11:26:57.000Z</time>
      </trkpt>
      <trkpt lat="48.72643" lon="1.78718">
        <ele>180.60000610352</ele>
        <time>2011-08-16T11:27:03.000Z</time>
      </trkpt>
      <trkpt lat="48.72652" lon="1.78723">
        <ele>180.80000305176</ele>
        <time>2011-08-16T11:27:10.000Z</time>
      </trkpt>
      <trkpt lat="48.7266" lon="1.78728">
        <ele>181</ele>
        <time>2011-08-16T11:27:17.000Z</time>
      </trkpt>
      <trkpt lat="48.72666" lon="1.78732">
        <ele>181</ele>
        <time>2011-08-16T11:27:22.000Z</time>
      </trkpt>
      <trkpt lat="48.72667" lon="1.78733">
        <ele>181.19999694824</ele>
        <time>2011-08-16T11:27:23.000Z</time>
      </trkpt>
      <trkpt lat="48.72677" lon="1.78739">
        <ele>181.19999694824</ele>
        <time>2011-08-16T11:27:31.000Z</time>
      </trkpt>
      <trkpt lat="48.72686" lon="1.78744">
        <ele>181.19999694824</ele>
        <time>2011-08-16T11:27:38.000Z</time>
      </trkpt>
      <trkpt lat="48.72696" lon="1.78747">
        <ele>181.19999694824</ele>
        <time>2011-08-16T11:27:47.000Z</time>
      </trkpt>
      <trkpt lat="48.72702" lon="1.78751">
        <ele>181.39999389648</ele>
        <time>2011-08-16T11:27:52.000Z</time>
      </trkpt>
      <trkpt lat="48.72711" lon="1.78757">
        <ele>181.39999389648</ele>
        <time>2011-08-16T11:28:00.000Z</time>
      </trkpt>
      <trkpt lat="48.72719" lon="1.7876">
        <ele>181.39999389648</ele>
        <time>2011-08-16T11:28:07.000Z</time>
      </trkpt>
      <trkpt lat="48.72727" lon="1.78767">
        <ele>181.60000610352</ele>
        <time>2011-08-16T11:28:14.000Z</time>
      </trkpt>
      <trkpt lat="48.72733" lon="1.78773">
        <ele>181.60000610352</ele>
        <time>2011-08-16T11:28:20.000Z</time>
      </trkpt>
      <trkpt lat="48.72735" lon="1.78774">
        <ele>181.60000610352</ele>
        <time>2011-08-16T11:28:22.000Z</time>
      </trkpt>
      <trkpt lat="48.72741" lon="1.78781">
        <ele>181.80000305176</ele>
        <time>2011-08-16T11:28:28.000Z</time>
      </trkpt>
      <trkpt lat="48.72751" lon="1.78784">
        <ele>182</ele>
        <time>2011-08-16T11:28:37.000Z</time>
      </trkpt>
      <trkpt lat="48.7276" lon="1.78791">
        <ele>182</ele>
        <time>2011-08-16T11:28:45.000Z</time>
      </trkpt>
      <trkpt lat="48.72772" lon="1.78794">
        <ele>182.19999694824</ele>
        <time>2011-08-16T11:28:54.000Z</time>
      </trkpt>
      <trkpt lat="48.7278" lon="1.78796">
        <ele>182.19999694824</ele>
        <time>2011-08-16T11:29:00.000Z</time>
      </trkpt>
      <trkpt lat="48.72789" lon="1.78798">
        <ele>182.19999694824</ele>
        <time>2011-08-16T11:29:06.000Z</time>
      </trkpt>
      <trkpt lat="48.728" lon="1.78798">
        <ele>182.39999389648</ele>
        <time>2011-08-16T11:29:14.000Z</time>
      </trkpt>
      <trkpt lat="48.72809" lon="1.78801">
        <ele>182.39999389648</ele>
        <time>2011-08-16T11:29:21.000Z</time>
      </trkpt>
      <trkpt lat="48.72819" lon="1.78801">
        <ele>182.60000610352</ele>
        <time>2011-08-16T11:29:28.000Z</time>
      </trkpt>
      <trkpt lat="48.72827" lon="1.78802">
        <ele>182.60000610352</ele>
        <time>2011-08-16T11:29:34.000Z</time>
      </trkpt>
      <trkpt lat="48.72834" lon="1.78801">
        <ele>182.60000610352</ele>
        <time>2011-08-16T11:29:41.000Z</time>
      </trkpt>
      <trkpt lat="48.72835" lon="1.78801">
        <ele>182.60000610352</ele>
        <time>2011-08-16T11:29:43.000Z</time>
      </trkpt>
      <trkpt lat="48.72837" lon="1.788">
        <ele>182.60000610352</ele>
        <time>2011-08-16T11:29:47.000Z</time>
      </trkpt>
      <trkpt lat="48.72846" lon="1.78799">
        <ele>182.80000305176</ele>
        <time>2011-08-16T11:29:52.000Z</time>
      </trkpt>
      <trkpt lat="48.7285" lon="1.788">
        <ele>182.60000610352</ele>
        <time>2011-08-16T11:29:56.000Z</time>
      </trkpt>
      <trkpt lat="48.7286" lon="1.78798">
        <ele>182.80000305176</ele>
        <time>2011-08-16T11:30:04.000Z</time>
      </trkpt>
      <trkpt lat="48.72865" lon="1.78794">
        <ele>182.80000305176</ele>
        <time>2011-08-16T11:30:10.000Z</time>
      </trkpt>
      <trkpt lat="48.72874" lon="1.78791">
        <ele>183</ele>
        <time>2011-08-16T11:30:18.000Z</time>
      </trkpt>
      <trkpt lat="48.72884" lon="1.78788">
        <ele>183</ele>
        <time>2011-08-16T11:30:24.000Z</time>
      </trkpt>
      <trkpt lat="48.72893" lon="1.78786">
        <ele>183</ele>
        <time>2011-08-16T11:30:29.000Z</time>
      </trkpt>
      <trkpt lat="48.72897" lon="1.78784">
        <ele>183</ele>
        <time>2011-08-16T11:30:33.000Z</time>
      </trkpt>
      <trkpt lat="48.72905" lon="1.78781">
        <ele>183.19999694824</ele>
        <time>2011-08-16T11:30:40.000Z</time>
      </trkpt>
      <trkpt lat="48.72909" lon="1.78782">
        <ele>183.19999694824</ele>
        <time>2011-08-16T11:30:44.000Z</time>
      </trkpt>
      <trkpt lat="48.72918" lon="1.78779">
        <ele>183.19999694824</ele>
        <time>2011-08-16T11:30:52.000Z</time>
      </trkpt>
      <trkpt lat="48.72927" lon="1.78778">
        <ele>183.19999694824</ele>
        <time>2011-08-16T11:30:59.000Z</time>
      </trkpt>
      <trkpt lat="48.72933" lon="1.78779">
        <ele>183</ele>
        <time>2011-08-16T11:31:03.000Z</time>
      </trkpt>
      <trkpt lat="48.72938" lon="1.78778">
        <ele>183</ele>
        <time>2011-08-16T11:31:08.000Z</time>
      </trkpt>
      <trkpt lat="48.72941" lon="1.78779">
        <ele>183</ele>
        <time>2011-08-16T11:31:10.000Z</time>
      </trkpt>
      <trkpt lat="48.72948" lon="1.78779">
        <ele>183</ele>
        <time>2011-08-16T11:31:16.000Z</time>
      </trkpt>
      <trkpt lat="48.72953" lon="1.78779">
        <ele>183</ele>
        <time>2011-08-16T11:31:22.000Z</time>
      </trkpt>
      <trkpt lat="48.72958" lon="1.7878">
        <ele>182.80000305176</ele>
        <time>2011-08-16T11:31:26.000Z</time>
      </trkpt>
      <trkpt lat="48.72965" lon="1.78782">
        <ele>182.80000305176</ele>
        <time>2011-08-16T11:31:32.000Z</time>
      </trkpt>
      <trkpt lat="48.72975" lon="1.78784">
        <ele>182.60000610352</ele>
        <time>2011-08-16T11:31:40.000Z</time>
      </trkpt>
      <trkpt lat="48.72986" lon="1.78787">
        <ele>182.60000610352</ele>
        <time>2011-08-16T11:31:48.000Z</time>
      </trkpt>
      <trkpt lat="48.72995" lon="1.78789">
        <ele>182.39999389648</ele>
        <time>2011-08-16T11:31:55.000Z</time>
      </trkpt>
      <trkpt lat="48.73006" lon="1.78792">
        <ele>182.39999389648</ele>
        <time>2011-08-16T11:32:03.000Z</time>
      </trkpt>
      <trkpt lat="48.73014" lon="1.78794">
        <ele>182.60000610352</ele>
        <time>2011-08-16T11:32:09.000Z</time>
      </trkpt>
      <trkpt lat="48.73025" lon="1.78796">
        <ele>182.60000610352</ele>
        <time>2011-08-16T11:32:16.000Z</time>
      </trkpt>
      <trkpt lat="48.73029" lon="1.78796">
        <ele>182.60000610352</ele>
        <time>2011-08-16T11:32:18.000Z</time>
      </trkpt>
      <trkpt lat="48.73036" lon="1.78797">
        <ele>182.80000305176</ele>
        <time>2011-08-16T11:32:23.000Z</time>
      </trkpt>
      <trkpt lat="48.73043" lon="1.78798">
        <ele>182.80000305176</ele>
        <time>2011-08-16T11:32:29.000Z</time>
      </trkpt>
      <trkpt lat="48.73048" lon="1.788">
        <ele>182.80000305176</ele>
        <time>2011-08-16T11:32:32.000Z</time>
      </trkpt>
      <trkpt lat="48.73052" lon="1.788">
        <ele>182.80000305176</ele>
        <time>2011-08-16T11:32:36.000Z</time>
      </trkpt>
      <trkpt lat="48.73071" lon="1.78798">
        <ele>183</ele>
        <time>2011-08-16T11:32:44.000Z</time>
      </trkpt>
      <trkpt lat="48.73071" lon="1.78803">
        <ele>182.80000305176</ele>
        <time>2011-08-16T11:32:48.000Z</time>
      </trkpt>
      <trkpt lat="48.73074" lon="1.78806">
        <ele>182.80000305176</ele>
        <time>2011-08-16T11:32:52.000Z</time>
      </trkpt>
      <trkpt lat="48.73076" lon="1.78808">
        <ele>182.80000305176</ele>
        <time>2011-08-16T11:32:54.000Z</time>
      </trkpt>
      <trkpt lat="48.73081" lon="1.78811">
        <ele>182.80000305176</ele>
        <time>2011-08-16T11:33:01.000Z</time>
      </trkpt>
      <trkpt lat="48.73089" lon="1.78807">
        <ele>182.80000305176</ele>
        <time>2011-08-16T11:33:07.000Z</time>
      </trkpt>
      <trkpt lat="48.73096" lon="1.78808">
        <ele>182.60000610352</ele>
        <time>2011-08-16T11:33:12.000Z</time>
      </trkpt>
      <trkpt lat="48.73101" lon="1.78808">
        <ele>182.39999389648</ele>
        <time>2011-08-16T11:33:18.000Z</time>
      </trkpt>
      <trkpt lat="48.73101" lon="1.78809">
        <ele>182.39999389648</ele>
        <time>2011-08-16T11:33:19.000Z</time>
      </trkpt>
      <trkpt lat="48.73111" lon="1.78811">
        <ele>182.19999694824</ele>
        <time>2011-08-16T11:33:33.000Z</time>
      </trkpt>
      <trkpt lat="48.7312" lon="1.78812">
        <ele>182</ele>
        <time>2011-08-16T11:33:39.000Z</time>
      </trkpt>
      <trkpt lat="48.73128" lon="1.78812">
        <ele>181.80000305176</ele>
        <time>2011-08-16T11:33:45.000Z</time>
      </trkpt>
      <trkpt lat="48.73139" lon="1.78813">
        <ele>181.60000610352</ele>
        <time>2011-08-16T11:33:53.000Z</time>
      </trkpt>
      <trkpt lat="48.73146" lon="1.78815">
        <ele>181.39999389648</ele>
        <time>2011-08-16T11:34:00.000Z</time>
      </trkpt>
      <trkpt lat="48.73153" lon="1.78818">
        <ele>181.39999389648</ele>
        <time>2011-08-16T11:34:07.000Z</time>
      </trkpt>
      <trkpt lat="48.73159" lon="1.7882">
        <ele>181.19999694824</ele>
        <time>2011-08-16T11:34:13.000Z</time>
      </trkpt>
      <trkpt lat="48.73165" lon="1.78821">
        <ele>181</ele>
        <time>2011-08-16T11:34:20.000Z</time>
      </trkpt>
      <trkpt lat="48.73167" lon="1.7882">
        <ele>181</ele>
        <time>2011-08-16T11:34:27.000Z</time>
      </trkpt>
      <trkpt lat="48.73167" lon="1.7882">
        <ele>181</ele>
        <time>2011-08-16T11:34:28.000Z</time>
      </trkpt>
      <trkpt lat="48.73169" lon="1.7882">
        <ele>181</ele>
        <time>2011-08-16T11:34:31.000Z</time>
      </trkpt>
      <trkpt lat="48.73178" lon="1.7882">
        <ele>180.60000610352</ele>
        <time>2011-08-16T11:34:33.000Z</time>
      </trkpt>
      <trkpt lat="48.73181" lon="1.78821">
        <ele>180.39999389648</ele>
        <time>2011-08-16T11:34:35.000Z</time>
      </trkpt>
      <trkpt lat="48.7319" lon="1.7882">
        <ele>179.80000305176</ele>
        <time>2011-08-16T11:34:40.000Z</time>
      </trkpt>
      <trkpt lat="48.73195" lon="1.78817">
        <ele>179.60000610352</ele>
        <time>2011-08-16T11:34:46.000Z</time>
      </trkpt>
      <trkpt lat="48.73197" lon="1.78817">
        <ele>179.60000610352</ele>
        <time>2011-08-16T11:34:47.000Z</time>
      </trkpt>
      <trkpt lat="48.732" lon="1.78817">
        <ele>179.39999389648</ele>
        <time>2011-08-16T11:34:50.000Z</time>
      </trkpt>
      <trkpt lat="48.73203" lon="1.78818">
        <ele>179.19999694824</ele>
        <time>2011-08-16T11:34:52.000Z</time>
      </trkpt>
      <trkpt lat="48.73214" lon="1.78827">
        <ele>178.60000610352</ele>
        <time>2011-08-16T11:35:00.000Z</time>
      </trkpt>
      <trkpt lat="48.73219" lon="1.78834">
        <ele>178.39999389648</ele>
        <time>2011-08-16T11:35:07.000Z</time>
      </trkpt>
      <trkpt lat="48.73223" lon="1.78842">
        <ele>178.19999694824</ele>
        <time>2011-08-16T11:35:12.000Z</time>
      </trkpt>
      <trkpt lat="48.73224" lon="1.78848">
        <ele>178.39999389648</ele>
        <time>2011-08-16T11:35:16.000Z</time>
      </trkpt>
      <trkpt lat="48.7323" lon="1.78858">
        <ele>178.19999694824</ele>
        <time>2011-08-16T11:35:23.000Z</time>
      </trkpt>
      <trkpt lat="48.73234" lon="1.78865">
        <ele>178</ele>
        <time>2011-08-16T11:35:27.000Z</time>
      </trkpt>
      <trkpt lat="48.73237" lon="1.78869">
        <ele>178</ele>
        <time>2011-08-16T11:35:30.000Z</time>
      </trkpt>
      <trkpt lat="48.73245" lon="1.78877">
        <ele>177.60000610352</ele>
        <time>2011-08-16T11:35:38.000Z</time>
      </trkpt>
      <trkpt lat="48.7325" lon="1.78889">
        <ele>177.60000610352</ele>
        <time>2011-08-16T11:35:45.000Z</time>
      </trkpt>
      <trkpt lat="48.73256" lon="1.78902">
        <ele>177.39999389648</ele>
        <time>2011-08-16T11:35:52.000Z</time>
      </trkpt>
      <trkpt lat="48.73262" lon="1.78915">
        <ele>177</ele>
        <time>2011-08-16T11:35:59.000Z</time>
      </trkpt>
      <trkpt lat="48.7327" lon="1.78926">
        <ele>176.19999694824</ele>
        <time>2011-08-16T11:36:06.000Z</time>
      </trkpt>
      <trkpt lat="48.73279" lon="1.78937">
        <ele>175.19999694824</ele>
        <time>2011-08-16T11:36:14.000Z</time>
      </trkpt>
      <trkpt lat="48.73285" lon="1.78952">
        <ele>174.60000610352</ele>
        <time>2011-08-16T11:36:23.000Z</time>
      </trkpt>
      <trkpt lat="48.73296" lon="1.7897">
        <ele>173.80000305176</ele>
        <time>2011-08-16T11:36:34.000Z</time>
      </trkpt>
      <trkpt lat="48.73302" lon="1.78982">
        <ele>173.39999389648</ele>
        <time>2011-08-16T11:36:40.000Z</time>
      </trkpt>
      <trkpt lat="48.73306" lon="1.78999">
        <ele>173.19999694824</ele>
        <time>2011-08-16T11:36:49.000Z</time>
      </trkpt>
      <trkpt lat="48.7331" lon="1.7901">
        <ele>173.39999389648</ele>
        <time>2011-08-16T11:36:56.000Z</time>
      </trkpt>
      <trkpt lat="48.73312" lon="1.79017">
        <ele>173.60000610352</ele>
        <time>2011-08-16T11:37:00.000Z</time>
      </trkpt>
      <trkpt lat="48.73318" lon="1.79028">
        <ele>173.80000305176</ele>
        <time>2011-08-16T11:37:07.000Z</time>
      </trkpt>
      <trkpt lat="48.73319" lon="1.79029">
        <ele>173.80000305176</ele>
        <time>2011-08-16T11:37:08.000Z</time>
      </trkpt>
      <trkpt lat="48.73319" lon="1.7903">
        <ele>174</ele>
        <time>2011-08-16T11:37:11.000Z</time>
      </trkpt>
      <trkpt lat="48.73315" lon="1.79033">
        <ele>174</ele>
        <time>2011-08-16T11:37:31.000Z</time>
      </trkpt>
      <trkpt lat="48.7331" lon="1.79022">
        <ele>173.60000610352</ele>
        <time>2011-08-16T11:37:35.000Z</time>
      </trkpt>
      <trkpt lat="48.73303" lon="1.79006">
        <ele>173.39999389648</ele>
        <time>2011-08-16T11:37:44.000Z</time>
      </trkpt>
      <trkpt lat="48.73304" lon="1.79001">
        <ele>173.19999694824</ele>
        <time>2011-08-16T11:37:47.000Z</time>
      </trkpt>
      <trkpt lat="48.73307" lon="1.79001">
        <ele>173.19999694824</ele>
        <time>2011-08-16T11:37:50.000Z</time>
      </trkpt>
      <trkpt lat="48.73311" lon="1.7901">
        <ele>173.39999389648</ele>
        <time>2011-08-16T11:37:56.000Z</time>
      </trkpt>
      <trkpt lat="48.73313" lon="1.79018">
        <ele>173.60000610352</ele>
        <time>2011-08-16T11:38:00.000Z</time>
      </trkpt>
      <trkpt lat="48.73313" lon="1.79021">
        <ele>173.60000610352</ele>
        <time>2011-08-16T11:38:02.000Z</time>
      </trkpt>
      <trkpt lat="48.73319" lon="1.79027">
        <ele>173.80000305176</ele>
        <time>2011-08-16T11:38:06.000Z</time>
      </trkpt>
      <trkpt lat="48.73322" lon="1.79036">
        <ele>174.19999694824</ele>
        <time>2011-08-16T11:38:13.000Z</time>
      </trkpt>
      <trkpt lat="48.73323" lon="1.79037">
        <ele>174.19999694824</ele>
        <time>2011-08-16T11:38:16.000Z</time>
      </trkpt>
      <trkpt lat="48.73315" lon="1.79032">
        <ele>174</ele>
        <time>2011-08-16T11:39:34.000Z</time>
      </trkpt>
      <trkpt lat="48.73315" lon="1.7903">
        <ele>173.80000305176</ele>
        <time>2011-08-16T11:39:35.000Z</time>
      </trkpt>
      <trkpt lat="48.73315" lon="1.7903">
        <ele>173.80000305176</ele>
        <time>2011-08-16T11:39:38.000Z</time>
      </trkpt>
      <trkpt lat="48.73319" lon="1.79038">
        <ele>174.19999694824</ele>
        <time>2011-08-16T11:39:45.000Z</time>
      </trkpt>
      <trkpt lat="48.73323" lon="1.79045">
        <ele>174.39999389648</ele>
        <time>2011-08-16T11:39:48.000Z</time>
      </trkpt>
      <trkpt lat="48.73325" lon="1.79049">
        <ele>174.60000610352</ele>
        <time>2011-08-16T11:39:51.000Z</time>
      </trkpt>
      <trkpt lat="48.73327" lon="1.79061">
        <ele>175</ele>
        <time>2011-08-16T11:39:58.000Z</time>
      </trkpt>
      <trkpt lat="48.73332" lon="1.79074">
        <ele>175.60000610352</ele>
        <time>2011-08-16T11:40:05.000Z</time>
      </trkpt>
      <trkpt lat="48.73338" lon="1.7909">
        <ele>176.39999389648</ele>
        <time>2011-08-16T11:40:14.000Z</time>
      </trkpt>
      <trkpt lat="48.73343" lon="1.79105">
        <ele>177.39999389648</ele>
        <time>2011-08-16T11:40:21.000Z</time>
      </trkpt>
      <trkpt lat="48.73346" lon="1.79121">
        <ele>178.39999389648</ele>
        <time>2011-08-16T11:40:29.000Z</time>
      </trkpt>
      <trkpt lat="48.7335" lon="1.79136">
        <ele>179.19999694824</ele>
        <time>2011-08-16T11:40:36.000Z</time>
      </trkpt>
      <trkpt lat="48.73353" lon="1.7915">
        <ele>180</ele>
        <time>2011-08-16T11:40:43.000Z</time>
      </trkpt>
      <trkpt lat="48.73358" lon="1.79164">
        <ele>180.80000305176</ele>
        <time>2011-08-16T11:40:51.000Z</time>
      </trkpt>
      <trkpt lat="48.73363" lon="1.79176">
        <ele>181.39999389648</ele>
        <time>2011-08-16T11:40:58.000Z</time>
      </trkpt>
      <trkpt lat="48.7337" lon="1.79191">
        <ele>182.19999694824</ele>
        <time>2011-08-16T11:41:07.000Z</time>
      </trkpt>
      <trkpt lat="48.73374" lon="1.79202">
        <ele>182.80000305176</ele>
        <time>2011-08-16T11:41:13.000Z</time>
      </trkpt>
      <trkpt lat="48.73381" lon="1.79213">
        <ele>183.39999389648</ele>
        <time>2011-08-16T11:41:20.000Z</time>
      </trkpt>
      <trkpt lat="48.73383" lon="1.79218">
        <ele>183.60000610352</ele>
        <time>2011-08-16T11:41:23.000Z</time>
      </trkpt>
      <trkpt lat="48.73386" lon="1.79231">
        <ele>184.19999694824</ele>
        <time>2011-08-16T11:41:30.000Z</time>
      </trkpt>
      <trkpt lat="48.73393" lon="1.79245">
        <ele>185</ele>
        <time>2011-08-16T11:41:38.000Z</time>
      </trkpt>
      <trkpt lat="48.73398" lon="1.79259">
        <ele>185.39999389648</ele>
        <time>2011-08-16T11:41:46.000Z</time>
      </trkpt>
      <trkpt lat="48.73405" lon="1.79275">
        <ele>186</ele>
        <time>2011-08-16T11:41:52.000Z</time>
      </trkpt>
      <trkpt lat="48.73409" lon="1.79285">
        <ele>186.60000610352</ele>
        <time>2011-08-16T11:41:57.000Z</time>
      </trkpt>
      <trkpt lat="48.73411" lon="1.7929">
        <ele>186.80000305176</ele>
        <time>2011-08-16T11:42:00.000Z</time>
      </trkpt>
      <trkpt lat="48.73417" lon="1.79302">
        <ele>187.39999389648</ele>
        <time>2011-08-16T11:42:08.000Z</time>
      </trkpt>
      <trkpt lat="48.73419" lon="1.79307">
        <ele>187.60000610352</ele>
        <time>2011-08-16T11:42:11.000Z</time>
      </trkpt>
      <trkpt lat="48.73427" lon="1.7932">
        <ele>188.19999694824</ele>
        <time>2011-08-16T11:42:21.000Z</time>
      </trkpt>
      <trkpt lat="48.73433" lon="1.79329">
        <ele>188.80000305176</ele>
        <time>2011-08-16T11:42:28.000Z</time>
      </trkpt>
      <trkpt lat="48.73444" lon="1.79337">
        <ele>189</ele>
        <time>2011-08-16T11:42:37.000Z</time>
      </trkpt>
      <trkpt lat="48.73454" lon="1.79344">
        <ele>189.39999389648</ele>
        <time>2011-08-16T11:42:45.000Z</time>
      </trkpt>
      <trkpt lat="48.73466" lon="1.79351">
        <ele>189.60000610352</ele>
        <time>2011-08-16T11:42:53.000Z</time>
      </trkpt>
      <trkpt lat="48.7348" lon="1.79359">
        <ele>190</ele>
        <time>2011-08-16T11:43:03.000Z</time>
      </trkpt>
      <trkpt lat="48.73492" lon="1.79365">
        <ele>190.39999389648</ele>
        <time>2011-08-16T11:43:11.000Z</time>
      </trkpt>
      <trkpt lat="48.73497" lon="1.7937">
        <ele>190.60000610352</ele>
        <time>2011-08-16T11:43:17.000Z</time>
      </trkpt>
      <trkpt lat="48.735" lon="1.7937">
        <ele>190.60000610352</ele>
        <time>2011-08-16T11:43:22.000Z</time>
      </trkpt>
      <trkpt lat="48.73505" lon="1.79372">
        <ele>190.80000305176</ele>
        <time>2011-08-16T11:43:29.000Z</time>
      </trkpt>
      <trkpt lat="48.73508" lon="1.79379">
        <ele>191.19999694824</ele>
        <time>2011-08-16T11:43:34.000Z</time>
      </trkpt>
      <trkpt lat="48.73512" lon="1.79387">
        <ele>191.60000610352</ele>
        <time>2011-08-16T11:43:40.000Z</time>
      </trkpt>
      <trkpt lat="48.73516" lon="1.79393">
        <ele>191.80000305176</ele>
        <time>2011-08-16T11:43:45.000Z</time>
      </trkpt>
      <trkpt lat="48.7352" lon="1.79396">
        <ele>191.80000305176</ele>
        <time>2011-08-16T11:43:49.000Z</time>
      </trkpt>
      <trkpt lat="48.73529" lon="1.794">
        <ele>192</ele>
        <time>2011-08-16T11:43:55.000Z</time>
      </trkpt>
      <trkpt lat="48.73538" lon="1.79404">
        <ele>192</ele>
        <time>2011-08-16T11:44:01.000Z</time>
      </trkpt>
      <trkpt lat="48.7354" lon="1.79406">
        <ele>192</ele>
        <time>2011-08-16T11:44:06.000Z</time>
      </trkpt>
      <trkpt lat="48.73542" lon="1.79407">
        <ele>192</ele>
        <time>2011-08-16T11:44:09.000Z</time>
      </trkpt>
      <trkpt lat="48.73544" lon="1.79407">
        <ele>192</ele>
        <time>2011-08-16T11:44:12.000Z</time>
      </trkpt>
      <trkpt lat="48.73554" lon="1.79421">
        <ele>192.19999694824</ele>
        <time>2011-08-16T11:44:27.000Z</time>
      </trkpt>
      <trkpt lat="48.73557" lon="1.79423">
        <ele>192.19999694824</ele>
        <time>2011-08-16T11:44:32.000Z</time>
      </trkpt>
      <trkpt lat="48.73558" lon="1.79423">
        <ele>192.19999694824</ele>
        <time>2011-08-16T11:44:33.000Z</time>
      </trkpt>
      <trkpt lat="48.73569" lon="1.79417">
        <ele>192</ele>
        <time>2011-08-16T11:44:47.000Z</time>
      </trkpt>
      <trkpt lat="48.73572" lon="1.79439">
        <ele>191.80000305176</ele>
        <time>2011-08-16T11:45:19.000Z</time>
      </trkpt>
      <trkpt lat="48.73576" lon="1.79443">
        <ele>191.60000610352</ele>
        <time>2011-08-16T11:45:22.000Z</time>
      </trkpt>
      <trkpt lat="48.7358" lon="1.79453">
        <ele>191.60000610352</ele>
        <time>2011-08-16T11:45:30.000Z</time>
      </trkpt>
      <trkpt lat="48.73584" lon="1.79457">
        <ele>191.39999389648</ele>
        <time>2011-08-16T11:45:34.000Z</time>
      </trkpt>
      <trkpt lat="48.73587" lon="1.79459">
        <ele>191.39999389648</ele>
        <time>2011-08-16T11:45:36.000Z</time>
      </trkpt>
      <trkpt lat="48.73594" lon="1.79464">
        <ele>191.19999694824</ele>
        <time>2011-08-16T11:45:41.000Z</time>
      </trkpt>
      <trkpt lat="48.73594" lon="1.79475">
        <ele>191</ele>
        <time>2011-08-16T11:45:48.000Z</time>
      </trkpt>
      <trkpt lat="48.73601" lon="1.79485">
        <ele>190.80000305176</ele>
        <time>2011-08-16T11:45:56.000Z</time>
      </trkpt>
      <trkpt lat="48.73609" lon="1.795">
        <ele>190.60000610352</ele>
        <time>2011-08-16T11:46:06.000Z</time>
      </trkpt>
      <trkpt lat="48.73612" lon="1.79505">
        <ele>190.60000610352</ele>
        <time>2011-08-16T11:46:10.000Z</time>
      </trkpt>
      <trkpt lat="48.73622" lon="1.79514">
        <ele>190.39999389648</ele>
        <time>2011-08-16T11:46:19.000Z</time>
      </trkpt>
      <trkpt lat="48.7363" lon="1.79519">
        <ele>190.39999389648</ele>
        <time>2011-08-16T11:46:25.000Z</time>
      </trkpt>
      <trkpt lat="48.73634" lon="1.79529">
        <ele>190.19999694824</ele>
        <time>2011-08-16T11:46:31.000Z</time>
      </trkpt>
      <trkpt lat="48.73635" lon="1.79538">
        <ele>190.19999694824</ele>
        <time>2011-08-16T11:46:36.000Z</time>
      </trkpt>
      <trkpt lat="48.73637" lon="1.79543">
        <ele>190.19999694824</ele>
        <time>2011-08-16T11:46:40.000Z</time>
      </trkpt>
      <trkpt lat="48.73645" lon="1.79552">
        <ele>190.19999694824</ele>
        <time>2011-08-16T11:46:48.000Z</time>
      </trkpt>
      <trkpt lat="48.73649" lon="1.7956">
        <ele>190.19999694824</ele>
        <time>2011-08-16T11:46:54.000Z</time>
      </trkpt>
      <trkpt lat="48.73656" lon="1.79568">
        <ele>190</ele>
        <time>2011-08-16T11:47:00.000Z</time>
      </trkpt>
      <trkpt lat="48.73662" lon="1.79577">
        <ele>190</ele>
        <time>2011-08-16T11:47:07.000Z</time>
      </trkpt>
      <trkpt lat="48.73666" lon="1.79582">
        <ele>190</ele>
        <time>2011-08-16T11:47:12.000Z</time>
      </trkpt>
      <trkpt lat="48.73669" lon="1.79583">
        <ele>190</ele>
        <time>2011-08-16T11:47:15.000Z</time>
      </trkpt>
      <trkpt lat="48.73673" lon="1.79582">
        <ele>190.19999694824</ele>
        <time>2011-08-16T11:47:19.000Z</time>
      </trkpt>
      <trkpt lat="48.73682" lon="1.79589">
        <ele>190.39999389648</ele>
        <time>2011-08-16T11:47:26.000Z</time>
      </trkpt>
      <trkpt lat="48.73689" lon="1.796">
        <ele>190.60000610352</ele>
        <time>2011-08-16T11:47:34.000Z</time>
      </trkpt>
      <trkpt lat="48.73692" lon="1.79606">
        <ele>190.80000305176</ele>
        <time>2011-08-16T11:47:39.000Z</time>
      </trkpt>
      <trkpt lat="48.73699" lon="1.79619">
        <ele>190.80000305176</ele>
        <time>2011-08-16T11:47:48.000Z</time>
      </trkpt>
      <trkpt lat="48.73705" lon="1.79629">
        <ele>191</ele>
        <time>2011-08-16T11:47:55.000Z</time>
      </trkpt>
      <trkpt lat="48.73711" lon="1.79639">
        <ele>191.19999694824</ele>
        <time>2011-08-16T11:48:03.000Z</time>
      </trkpt>
      <trkpt lat="48.73717" lon="1.79648">
        <ele>191.19999694824</ele>
        <time>2011-08-16T11:48:10.000Z</time>
      </trkpt>
      <trkpt lat="48.73724" lon="1.79657">
        <ele>191.39999389648</ele>
        <time>2011-08-16T11:48:17.000Z</time>
      </trkpt>
      <trkpt lat="48.73731" lon="1.79667">
        <ele>191.39999389648</ele>
        <time>2011-08-16T11:48:25.000Z</time>
      </trkpt>
      <trkpt lat="48.73741" lon="1.7968">
        <ele>191.60000610352</ele>
        <time>2011-08-16T11:48:35.000Z</time>
      </trkpt>
      <trkpt lat="48.73746" lon="1.79688">
        <ele>191.60000610352</ele>
        <time>2011-08-16T11:48:41.000Z</time>
      </trkpt>
      <trkpt lat="48.73752" lon="1.79697">
        <ele>191.60000610352</ele>
        <time>2011-08-16T11:48:49.000Z</time>
      </trkpt>
      <trkpt lat="48.73758" lon="1.79707">
        <ele>191.80000305176</ele>
        <time>2011-08-16T11:48:56.000Z</time>
      </trkpt>
      <trkpt lat="48.73761" lon="1.79712">
        <ele>191.80000305176</ele>
        <time>2011-08-16T11:49:01.000Z</time>
      </trkpt>
      <trkpt lat="48.7377" lon="1.79723">
        <ele>192</ele>
        <time>2011-08-16T11:49:09.000Z</time>
      </trkpt>
      <trkpt lat="48.73772" lon="1.79726">
        <ele>192</ele>
        <time>2011-08-16T11:49:11.000Z</time>
      </trkpt>
      <trkpt lat="48.7378" lon="1.79734">
        <ele>192.19999694824</ele>
        <time>2011-08-16T11:49:17.000Z</time>
      </trkpt>
      <trkpt lat="48.73784" lon="1.79742">
        <ele>192.19999694824</ele>
        <time>2011-08-16T11:49:22.000Z</time>
      </trkpt>
      <trkpt lat="48.73785" lon="1.79743">
        <ele>192.19999694824</ele>
        <time>2011-08-16T11:49:23.000Z</time>
      </trkpt>
      <trkpt lat="48.73792" lon="1.7975">
        <ele>192.39999389648</ele>
        <time>2011-08-16T11:49:30.000Z</time>
      </trkpt>
      <trkpt lat="48.73796" lon="1.79753">
        <ele>192.39999389648</ele>
        <time>2011-08-16T11:49:33.000Z</time>
      </trkpt>
      <trkpt lat="48.73802" lon="1.7976">
        <ele>192.39999389648</ele>
        <time>2011-08-16T11:49:39.000Z</time>
      </trkpt>
      <trkpt lat="48.73806" lon="1.79767">
        <ele>192.39999389648</ele>
        <time>2011-08-16T11:49:44.000Z</time>
      </trkpt>
      <trkpt lat="48.73813" lon="1.79776">
        <ele>192.39999389648</ele>
        <time>2011-08-16T11:49:50.000Z</time>
      </trkpt>
      <trkpt lat="48.73821" lon="1.79785">
        <ele>192.19999694824</ele>
        <time>2011-08-16T11:49:57.000Z</time>
      </trkpt>
      <trkpt lat="48.73825" lon="1.79792">
        <ele>192.19999694824</ele>
        <time>2011-08-16T11:50:03.000Z</time>
      </trkpt>
      <trkpt lat="48.73825" lon="1.79792">
        <ele>192.19999694824</ele>
        <time>2011-08-16T11:50:04.000Z</time>
      </trkpt>
      <trkpt lat="48.73845" lon="1.79811">
        <ele>192</ele>
        <time>2011-08-16T11:50:38.000Z</time>
      </trkpt>
      <trkpt lat="48.73847" lon="1.79813">
        <ele>192</ele>
        <time>2011-08-16T11:50:39.000Z</time>
      </trkpt>
      <trkpt lat="48.73849" lon="1.7982">
        <ele>191.80000305176</ele>
        <time>2011-08-16T11:50:43.000Z</time>
      </trkpt>
      <trkpt lat="48.73857" lon="1.79833">
        <ele>191.39999389648</ele>
        <time>2011-08-16T11:50:53.000Z</time>
      </trkpt>
      <trkpt lat="48.73863" lon="1.79841">
        <ele>191.60000610352</ele>
        <time>2011-08-16T11:50:59.000Z</time>
      </trkpt>
      <trkpt lat="48.73868" lon="1.79849">
        <ele>191.60000610352</ele>
        <time>2011-08-16T11:51:06.000Z</time>
      </trkpt>
      <trkpt lat="48.73877" lon="1.7986">
        <ele>191.60000610352</ele>
        <time>2011-08-16T11:51:14.000Z</time>
      </trkpt>
      <trkpt lat="48.73882" lon="1.79868">
        <ele>191.60000610352</ele>
        <time>2011-08-16T11:51:21.000Z</time>
      </trkpt>
      <trkpt lat="48.73892" lon="1.79876">
        <ele>191.80000305176</ele>
        <time>2011-08-16T11:51:29.000Z</time>
      </trkpt>
      <trkpt lat="48.73898" lon="1.79887">
        <ele>191.80000305176</ele>
        <time>2011-08-16T11:51:37.000Z</time>
      </trkpt>
      <trkpt lat="48.73905" lon="1.79894">
        <ele>191.80000305176</ele>
        <time>2011-08-16T11:51:44.000Z</time>
      </trkpt>
      <trkpt lat="48.73913" lon="1.79905">
        <ele>192</ele>
        <time>2011-08-16T11:51:52.000Z</time>
      </trkpt>
      <trkpt lat="48.73919" lon="1.79915">
        <ele>192</ele>
        <time>2011-08-16T11:52:00.000Z</time>
      </trkpt>
      <trkpt lat="48.73923" lon="1.79917">
        <ele>192.19999694824</ele>
        <time>2011-08-16T11:52:04.000Z</time>
      </trkpt>
      <trkpt lat="48.7393" lon="1.79924">
        <ele>192.19999694824</ele>
        <time>2011-08-16T11:52:11.000Z</time>
      </trkpt>
      <trkpt lat="48.7394" lon="1.79938">
        <ele>192.39999389648</ele>
        <time>2011-08-16T11:52:21.000Z</time>
      </trkpt>
      <trkpt lat="48.73946" lon="1.79947">
        <ele>192.39999389648</ele>
        <time>2011-08-16T11:52:28.000Z</time>
      </trkpt>
      <trkpt lat="48.73952" lon="1.79958">
        <ele>192.39999389648</ele>
        <time>2011-08-16T11:52:36.000Z</time>
      </trkpt>
      <trkpt lat="48.7396" lon="1.79967">
        <ele>192.60000610352</ele>
        <time>2011-08-16T11:52:43.000Z</time>
      </trkpt>
      <trkpt lat="48.73968" lon="1.7997">
        <ele>192.80000305176</ele>
        <time>2011-08-16T11:52:48.000Z</time>
      </trkpt>
      <trkpt lat="48.73973" lon="1.79978">
        <ele>192.80000305176</ele>
        <time>2011-08-16T11:52:55.000Z</time>
      </trkpt>
      <trkpt lat="48.73977" lon="1.79986">
        <ele>192.60000610352</ele>
        <time>2011-08-16T11:53:01.000Z</time>
      </trkpt>
      <trkpt lat="48.73985" lon="1.79996">
        <ele>192.60000610352</ele>
        <time>2011-08-16T11:53:09.000Z</time>
      </trkpt>
      <trkpt lat="48.73991" lon="1.80006">
        <ele>192.39999389648</ele>
        <time>2011-08-16T11:53:17.000Z</time>
      </trkpt>
      <trkpt lat="48.73999" lon="1.80018">
        <ele>192.19999694824</ele>
        <time>2011-08-16T11:53:26.000Z</time>
      </trkpt>
      <trkpt lat="48.74008" lon="1.80028">
        <ele>192.19999694824</ele>
        <time>2011-08-16T11:53:35.000Z</time>
      </trkpt>
      <trkpt lat="48.74013" lon="1.80031">
        <ele>192.19999694824</ele>
        <time>2011-08-16T11:53:39.000Z</time>
      </trkpt>
      <trkpt lat="48.74022" lon="1.80037">
        <ele>192.19999694824</ele>
        <time>2011-08-16T11:53:47.000Z</time>
      </trkpt>
      <trkpt lat="48.74024" lon="1.8004">
        <ele>192.19999694824</ele>
        <time>2011-08-16T11:53:49.000Z</time>
      </trkpt>
      <trkpt lat="48.74028" lon="1.80045">
        <ele>192.19999694824</ele>
        <time>2011-08-16T11:53:53.000Z</time>
      </trkpt>
      <trkpt lat="48.74033" lon="1.80055">
        <ele>192</ele>
        <time>2011-08-16T11:54:00.000Z</time>
      </trkpt>
      <trkpt lat="48.74038" lon="1.80058">
        <ele>192</ele>
        <time>2011-08-16T11:54:04.000Z</time>
      </trkpt>
      <trkpt lat="48.7404" lon="1.8006">
        <ele>192</ele>
        <time>2011-08-16T11:54:06.000Z</time>
      </trkpt>
      <trkpt lat="48.74044" lon="1.80064">
        <ele>192</ele>
        <time>2011-08-16T11:54:11.000Z</time>
      </trkpt>
      <trkpt lat="48.74049" lon="1.80065">
        <ele>192.19999694824</ele>
        <time>2011-08-16T11:54:17.000Z</time>
      </trkpt>
      <trkpt lat="48.74053" lon="1.80065">
        <ele>192.39999389648</ele>
        <time>2011-08-16T11:54:23.000Z</time>
      </trkpt>
      <trkpt lat="48.74055" lon="1.80065">
        <ele>192.39999389648</ele>
        <time>2011-08-16T11:54:24.000Z</time>
      </trkpt>
      <trkpt lat="48.74062" lon="1.80066">
        <ele>192.60000610352</ele>
        <time>2011-08-16T11:54:28.000Z</time>
      </trkpt>
      <trkpt lat="48.74067" lon="1.80075">
        <ele>192.60000610352</ele>
        <time>2011-08-16T11:54:34.000Z</time>
      </trkpt>
      <trkpt lat="48.74072" lon="1.8008">
        <ele>192.60000610352</ele>
        <time>2011-08-16T11:54:38.000Z</time>
      </trkpt>
      <trkpt lat="48.74075" lon="1.8009">
        <ele>192.39999389648</ele>
        <time>2011-08-16T11:54:45.000Z</time>
      </trkpt>
      <trkpt lat="48.74081" lon="1.801">
        <ele>192.39999389648</ele>
        <time>2011-08-16T11:54:51.000Z</time>
      </trkpt>
      <trkpt lat="48.74088" lon="1.80104">
        <ele>192.60000610352</ele>
        <time>2011-08-16T11:54:54.000Z</time>
      </trkpt>
      <trkpt lat="48.74099" lon="1.80115">
        <ele>192.60000610352</ele>
        <time>2011-08-16T11:54:59.000Z</time>
      </trkpt>
      <trkpt lat="48.74102" lon="1.80118">
        <ele>192.60000610352</ele>
        <time>2011-08-16T11:55:00.000Z</time>
      </trkpt>
      <trkpt lat="48.74115" lon="1.80136">
        <ele>192.60000610352</ele>
        <time>2011-08-16T11:55:05.000Z</time>
      </trkpt>
      <trkpt lat="48.74123" lon="1.8015">
        <ele>192.60000610352</ele>
        <time>2011-08-16T11:55:09.000Z</time>
      </trkpt>
      <trkpt lat="48.7413" lon="1.80162">
        <ele>192.60000610352</ele>
        <time>2011-08-16T11:55:14.000Z</time>
      </trkpt>
      <trkpt lat="48.7414" lon="1.8017">
        <ele>193</ele>
        <time>2011-08-16T11:55:18.000Z</time>
      </trkpt>
      <trkpt lat="48.74149" lon="1.80178">
        <ele>193.19999694824</ele>
        <time>2011-08-16T11:55:22.000Z</time>
      </trkpt>
      <trkpt lat="48.7416" lon="1.8019">
        <ele>193.60000610352</ele>
        <time>2011-08-16T11:55:28.000Z</time>
      </trkpt>
      <trkpt lat="48.74173" lon="1.80206">
        <ele>194</ele>
        <time>2011-08-16T11:55:34.000Z</time>
      </trkpt>
      <trkpt lat="48.74182" lon="1.80218">
        <ele>194</ele>
        <time>2011-08-16T11:55:39.000Z</time>
      </trkpt>
      <trkpt lat="48.74195" lon="1.80226">
        <ele>194</ele>
        <time>2011-08-16T11:55:45.000Z</time>
      </trkpt>
      <trkpt lat="48.74209" lon="1.80234">
        <ele>194</ele>
        <time>2011-08-16T11:55:49.000Z</time>
      </trkpt>
      <trkpt lat="48.74226" lon="1.80248">
        <ele>194</ele>
        <time>2011-08-16T11:55:55.000Z</time>
      </trkpt>
      <trkpt lat="48.74236" lon="1.80262">
        <ele>193.60000610352</ele>
        <time>2011-08-16T11:56:00.000Z</time>
      </trkpt>
      <trkpt lat="48.74245" lon="1.80272">
        <ele>193.39999389648</ele>
        <time>2011-08-16T11:56:04.000Z</time>
      </trkpt>
      <trkpt lat="48.74257" lon="1.80284">
        <ele>193</ele>
        <time>2011-08-16T11:56:09.000Z</time>
      </trkpt>
      <trkpt lat="48.7427" lon="1.80297">
        <ele>192.80000305176</ele>
        <time>2011-08-16T11:56:14.000Z</time>
      </trkpt>
      <trkpt lat="48.74285" lon="1.80311">
        <ele>192.60000610352</ele>
        <time>2011-08-16T11:56:20.000Z</time>
      </trkpt>
      <trkpt lat="48.74297" lon="1.80325">
        <ele>192.39999389648</ele>
        <time>2011-08-16T11:56:26.000Z</time>
      </trkpt>
      <trkpt lat="48.74307" lon="1.80336">
        <ele>192.60000610352</ele>
        <time>2011-08-16T11:56:31.000Z</time>
      </trkpt>
      <trkpt lat="48.74309" lon="1.80337">
        <ele>192.60000610352</ele>
        <time>2011-08-16T11:56:32.000Z</time>
      </trkpt>
      <trkpt lat="48.74323" lon="1.80349">
        <ele>192.80000305176</ele>
        <time>2011-08-16T11:56:38.000Z</time>
      </trkpt>
      <trkpt lat="48.74339" lon="1.80361">
        <ele>192.80000305176</ele>
        <time>2011-08-16T11:56:44.000Z</time>
      </trkpt>
      <trkpt lat="48.74354" lon="1.80373">
        <ele>192.80000305176</ele>
        <time>2011-08-16T11:56:50.000Z</time>
      </trkpt>
      <trkpt lat="48.74372" lon="1.80386">
        <ele>192.80000305176</ele>
        <time>2011-08-16T11:56:56.000Z</time>
      </trkpt>
      <trkpt lat="48.74381" lon="1.80401">
        <ele>192.80000305176</ele>
        <time>2011-08-16T11:57:01.000Z</time>
      </trkpt>
      <trkpt lat="48.74388" lon="1.80415">
        <ele>192.80000305176</ele>
        <time>2011-08-16T11:57:06.000Z</time>
      </trkpt>
      <trkpt lat="48.74395" lon="1.80432">
        <ele>192.80000305176</ele>
        <time>2011-08-16T11:57:11.000Z</time>
      </trkpt>
      <trkpt lat="48.74406" lon="1.80455">
        <ele>192.80000305176</ele>
        <time>2011-08-16T11:57:17.000Z</time>
      </trkpt>
      <trkpt lat="48.74417" lon="1.80471">
        <ele>192.80000305176</ele>
        <time>2011-08-16T11:57:22.000Z</time>
      </trkpt>
      <trkpt lat="48.74424" lon="1.80479">
        <ele>193</ele>
        <time>2011-08-16T11:57:26.000Z</time>
      </trkpt>
      <trkpt lat="48.74434" lon="1.8049">
        <ele>193.19999694824</ele>
        <time>2011-08-16T11:57:31.000Z</time>
      </trkpt>
      <trkpt lat="48.74442" lon="1.80516">
        <ele>192.80000305176</ele>
        <time>2011-08-16T11:57:37.000Z</time>
      </trkpt>
      <trkpt lat="48.74451" lon="1.80532">
        <ele>192.60000610352</ele>
        <time>2011-08-16T11:57:41.000Z</time>
      </trkpt>
      <trkpt lat="48.74462" lon="1.80554">
        <ele>192.39999389648</ele>
        <time>2011-08-16T11:57:46.000Z</time>
      </trkpt>
      <trkpt lat="48.74473" lon="1.80571">
        <ele>192.39999389648</ele>
        <time>2011-08-16T11:57:50.000Z</time>
      </trkpt>
      <trkpt lat="48.74482" lon="1.80582">
        <ele>192.39999389648</ele>
        <time>2011-08-16T11:57:54.000Z</time>
      </trkpt>
      <trkpt lat="48.74486" lon="1.80589">
        <ele>192.39999389648</ele>
        <time>2011-08-16T11:57:59.000Z</time>
      </trkpt>
      <trkpt lat="48.74491" lon="1.806">
        <ele>192.39999389648</ele>
        <time>2011-08-16T11:58:07.000Z</time>
      </trkpt>
      <trkpt lat="48.74493" lon="1.80607">
        <ele>192.39999389648</ele>
        <time>2011-08-16T11:58:12.000Z</time>
      </trkpt>
      <trkpt lat="48.74491" lon="1.80623">
        <ele>192.19999694824</ele>
        <time>2011-08-16T11:58:21.000Z</time>
      </trkpt>
      <trkpt lat="48.74492" lon="1.80639">
        <ele>192</ele>
        <time>2011-08-16T11:58:28.000Z</time>
      </trkpt>
      <trkpt lat="48.74494" lon="1.80652">
        <ele>191.80000305176</ele>
        <time>2011-08-16T11:58:36.000Z</time>
      </trkpt>
      <trkpt lat="48.74495" lon="1.8066">
        <ele>191.80000305176</ele>
        <time>2011-08-16T11:58:42.000Z</time>
      </trkpt>
      <trkpt lat="48.74498" lon="1.80662">
        <ele>192</ele>
        <time>2011-08-16T11:58:47.000Z</time>
      </trkpt>
      <trkpt lat="48.74502" lon="1.80662">
        <ele>191.80000305176</ele>
        <time>2011-08-16T11:58:53.000Z</time>
      </trkpt>
      <trkpt lat="48.74534" lon="1.80723">
        <ele>191.19999694824</ele>
        <time>2011-08-16T12:00:10.000Z</time>
      </trkpt>
      <trkpt lat="48.74541" lon="1.80728">
        <ele>191.19999694824</ele>
        <time>2011-08-16T12:00:14.000Z</time>
      </trkpt>
      <trkpt lat="48.74547" lon="1.80736">
        <ele>191.19999694824</ele>
        <time>2011-08-16T12:00:20.000Z</time>
      </trkpt>
      <trkpt lat="48.74554" lon="1.80743">
        <ele>191.19999694824</ele>
        <time>2011-08-16T12:00:25.000Z</time>
      </trkpt>
      <trkpt lat="48.74563" lon="1.80747">
        <ele>191</ele>
        <time>2011-08-16T12:00:33.000Z</time>
      </trkpt>
      <trkpt lat="48.74566" lon="1.80755">
        <ele>191.19999694824</ele>
        <time>2011-08-16T12:00:36.000Z</time>
      </trkpt>
      <trkpt lat="48.74581" lon="1.80775">
        <ele>191.80000305176</ele>
        <time>2011-08-16T12:00:41.000Z</time>
      </trkpt>
      <trkpt lat="48.74592" lon="1.80788">
        <ele>191.80000305176</ele>
        <time>2011-08-16T12:00:45.000Z</time>
      </trkpt>
      <trkpt lat="48.746" lon="1.80804">
        <ele>191.80000305176</ele>
        <time>2011-08-16T12:00:49.000Z</time>
      </trkpt>
      <trkpt lat="48.74609" lon="1.80818">
        <ele>191.60000610352</ele>
        <time>2011-08-16T12:00:53.000Z</time>
      </trkpt>
      <trkpt lat="48.74617" lon="1.8083">
        <ele>191.39999389648</ele>
        <time>2011-08-16T12:00:57.000Z</time>
      </trkpt>
      <trkpt lat="48.74627" lon="1.80847">
        <ele>190.80000305176</ele>
        <time>2011-08-16T12:01:02.000Z</time>
      </trkpt>
      <trkpt lat="48.74637" lon="1.80861">
        <ele>190</ele>
        <time>2011-08-16T12:01:06.000Z</time>
      </trkpt>
      <trkpt lat="48.74649" lon="1.80879">
        <ele>189.19999694824</ele>
        <time>2011-08-16T12:01:11.000Z</time>
      </trkpt>
      <trkpt lat="48.7466" lon="1.80894">
        <ele>188.39999389648</ele>
        <time>2011-08-16T12:01:16.000Z</time>
      </trkpt>
      <trkpt lat="48.74672" lon="1.80912">
        <ele>187.39999389648</ele>
        <time>2011-08-16T12:01:21.000Z</time>
      </trkpt>
      <trkpt lat="48.74684" lon="1.80931">
        <ele>185.80000305176</ele>
        <time>2011-08-16T12:01:27.000Z</time>
      </trkpt>
      <trkpt lat="48.74701" lon="1.80959">
        <ele>184.19999694824</ele>
        <time>2011-08-16T12:01:34.000Z</time>
      </trkpt>
      <trkpt lat="48.74709" lon="1.80978">
        <ele>183.39999389648</ele>
        <time>2011-08-16T12:01:39.000Z</time>
      </trkpt>
      <trkpt lat="48.74716" lon="1.80997">
        <ele>183.19999694824</ele>
        <time>2011-08-16T12:01:44.000Z</time>
      </trkpt>
      <trkpt lat="48.7473" lon="1.81019">
        <ele>183.39999389648</ele>
        <time>2011-08-16T12:01:50.000Z</time>
      </trkpt>
      <trkpt lat="48.74744" lon="1.81036">
        <ele>183.80000305176</ele>
        <time>2011-08-16T12:01:55.000Z</time>
      </trkpt>
      <trkpt lat="48.74756" lon="1.81053">
        <ele>184</ele>
        <time>2011-08-16T12:02:00.000Z</time>
      </trkpt>
      <trkpt lat="48.74762" lon="1.81071">
        <ele>184.39999389648</ele>
        <time>2011-08-16T12:02:05.000Z</time>
      </trkpt>
      <trkpt lat="48.74771" lon="1.81086">
        <ele>184.19999694824</ele>
        <time>2011-08-16T12:02:10.000Z</time>
      </trkpt>
      <trkpt lat="48.74783" lon="1.81102">
        <ele>183.60000610352</ele>
        <time>2011-08-16T12:02:15.000Z</time>
      </trkpt>
      <trkpt lat="48.74793" lon="1.81112">
        <ele>183.19999694824</ele>
        <time>2011-08-16T12:02:20.000Z</time>
      </trkpt>
      <trkpt lat="48.74799" lon="1.81115">
        <ele>182.60000610352</ele>
        <time>2011-08-16T12:02:26.000Z</time>
      </trkpt>
      <trkpt lat="48.74804" lon="1.81117">
        <ele>182.19999694824</ele>
        <time>2011-08-16T12:02:32.000Z</time>
      </trkpt>
      <trkpt lat="48.74813" lon="1.81129">
        <ele>181.80000305176</ele>
        <time>2011-08-16T12:02:38.000Z</time>
      </trkpt>
      <trkpt lat="48.74825" lon="1.81146">
        <ele>181.19999694824</ele>
        <time>2011-08-16T12:02:43.000Z</time>
      </trkpt>
      <trkpt lat="48.74837" lon="1.81161">
        <ele>180.60000610352</ele>
        <time>2011-08-16T12:02:49.000Z</time>
      </trkpt>
      <trkpt lat="48.74849" lon="1.81173">
        <ele>180.39999389648</ele>
        <time>2011-08-16T12:02:54.000Z</time>
      </trkpt>
      <trkpt lat="48.74858" lon="1.81181">
        <ele>180.19999694824</ele>
        <time>2011-08-16T12:02:58.000Z</time>
      </trkpt>
      <trkpt lat="48.74869" lon="1.81191">
        <ele>180</ele>
        <time>2011-08-16T12:03:03.000Z</time>
      </trkpt>
      <trkpt lat="48.74883" lon="1.81206">
        <ele>179.80000305176</ele>
        <time>2011-08-16T12:03:08.000Z</time>
      </trkpt>
      <trkpt lat="48.74895" lon="1.81221">
        <ele>179.60000610352</ele>
        <time>2011-08-16T12:03:13.000Z</time>
      </trkpt>
      <trkpt lat="48.74901" lon="1.81224">
        <ele>179.19999694824</ele>
        <time>2011-08-16T12:03:18.000Z</time>
      </trkpt>
      <trkpt lat="48.74906" lon="1.81233">
        <ele>179.19999694824</ele>
        <time>2011-08-16T12:03:24.000Z</time>
      </trkpt>
      <trkpt lat="48.74914" lon="1.81239">
        <ele>179</ele>
        <time>2011-08-16T12:03:29.000Z</time>
      </trkpt>
      <trkpt lat="48.74921" lon="1.81246">
        <ele>178.80000305176</ele>
        <time>2011-08-16T12:03:33.000Z</time>
      </trkpt>
      <trkpt lat="48.74935" lon="1.81251">
        <ele>178.60000610352</ele>
        <time>2011-08-16T12:03:38.000Z</time>
      </trkpt>
      <trkpt lat="48.74938" lon="1.81254">
        <ele>178.60000610352</ele>
        <time>2011-08-16T12:03:40.000Z</time>
      </trkpt>
      <trkpt lat="48.74948" lon="1.81257">
        <ele>178.60000610352</ele>
        <time>2011-08-16T12:03:46.000Z</time>
      </trkpt>
      <trkpt lat="48.7495" lon="1.81259">
        <ele>178.60000610352</ele>
        <time>2011-08-16T12:03:47.000Z</time>
      </trkpt>
      <trkpt lat="48.74956" lon="1.81265">
        <ele>178.39999389648</ele>
        <time>2011-08-16T12:03:54.000Z</time>
      </trkpt>
      <trkpt lat="48.74958" lon="1.81266">
        <ele>178.39999389648</ele>
        <time>2011-08-16T12:03:55.000Z</time>
      </trkpt>
      <trkpt lat="48.74966" lon="1.81272">
        <ele>178.19999694824</ele>
        <time>2011-08-16T12:04:01.000Z</time>
      </trkpt>
      <trkpt lat="48.74973" lon="1.81277">
        <ele>178.19999694824</ele>
        <time>2011-08-16T12:04:06.000Z</time>
      </trkpt>
      <trkpt lat="48.74978" lon="1.81277">
        <ele>178</ele>
        <time>2011-08-16T12:04:12.000Z</time>
      </trkpt>
      <trkpt lat="48.74989" lon="1.81285">
        <ele>177.80000305176</ele>
        <time>2011-08-16T12:04:18.000Z</time>
      </trkpt>
      <trkpt lat="48.74994" lon="1.81291">
        <ele>177.60000610352</ele>
        <time>2011-08-16T12:04:24.000Z</time>
      </trkpt>
      <trkpt lat="48.74999" lon="1.81296">
        <ele>177.39999389648</ele>
        <time>2011-08-16T12:04:30.000Z</time>
      </trkpt>
      <trkpt lat="48.75004" lon="1.81304">
        <ele>177.19999694824</ele>
        <time>2011-08-16T12:04:37.000Z</time>
      </trkpt>
      <trkpt lat="48.75006" lon="1.81308">
        <ele>177</ele>
        <time>2011-08-16T12:04:40.000Z</time>
      </trkpt>
      <trkpt lat="48.75016" lon="1.81315">
        <ele>176.60000610352</ele>
        <time>2011-08-16T12:04:49.000Z</time>
      </trkpt>
      <trkpt lat="48.75018" lon="1.81319">
        <ele>176.39999389648</ele>
        <time>2011-08-16T12:04:52.000Z</time>
      </trkpt>
      <trkpt lat="48.75028" lon="1.81325">
        <ele>176</ele>
        <time>2011-08-16T12:04:59.000Z</time>
      </trkpt>
      <trkpt lat="48.75035" lon="1.81326">
        <ele>175.80000305176</ele>
        <time>2011-08-16T12:05:05.000Z</time>
      </trkpt>
      <trkpt lat="48.75043" lon="1.81332">
        <ele>175.39999389648</ele>
        <time>2011-08-16T12:05:11.000Z</time>
      </trkpt>
      <trkpt lat="48.75051" lon="1.81339">
        <ele>174.60000610352</ele>
        <time>2011-08-16T12:05:17.000Z</time>
      </trkpt>
      <trkpt lat="48.75054" lon="1.81341">
        <ele>174.39999389648</ele>
        <time>2011-08-16T12:05:19.000Z</time>
      </trkpt>
      <trkpt lat="48.75063" lon="1.81349">
        <ele>173.19999694824</ele>
        <time>2011-08-16T12:05:26.000Z</time>
      </trkpt>
      <trkpt lat="48.75065" lon="1.81351">
        <ele>173.19999694824</ele>
        <time>2011-08-16T12:05:27.000Z</time>
      </trkpt>
      <trkpt lat="48.75067" lon="1.81355">
        <ele>172.60000610352</ele>
        <time>2011-08-16T12:05:30.000Z</time>
      </trkpt>
      <trkpt lat="48.75076" lon="1.81361">
        <ele>171.80000305176</ele>
        <time>2011-08-16T12:05:36.000Z</time>
      </trkpt>
      <trkpt lat="48.7508" lon="1.81364">
        <ele>171.39999389648</ele>
        <time>2011-08-16T12:05:40.000Z</time>
      </trkpt>
      <trkpt lat="48.75084" lon="1.81366">
        <ele>171.19999694824</ele>
        <time>2011-08-16T12:05:44.000Z</time>
      </trkpt>
      <trkpt lat="48.75088" lon="1.81366">
        <ele>170.80000305176</ele>
        <time>2011-08-16T12:05:48.000Z</time>
      </trkpt>
      <trkpt lat="48.75095" lon="1.81374">
        <ele>169.39999389648</ele>
        <time>2011-08-16T12:05:54.000Z</time>
      </trkpt>
      <trkpt lat="48.75102" lon="1.8138">
        <ele>168.39999389648</ele>
        <time>2011-08-16T12:05:59.000Z</time>
      </trkpt>
      <trkpt lat="48.75109" lon="1.8138">
        <ele>167.80000305176</ele>
        <time>2011-08-16T12:06:04.000Z</time>
      </trkpt>
      <trkpt lat="48.75114" lon="1.81382">
        <ele>167.19999694824</ele>
        <time>2011-08-16T12:06:09.000Z</time>
      </trkpt>
      <trkpt lat="48.75117" lon="1.81379">
        <ele>167</ele>
        <time>2011-08-16T12:06:13.000Z</time>
      </trkpt>
      <trkpt lat="48.75118" lon="1.81378">
        <ele>167</ele>
        <time>2011-08-16T12:06:15.000Z</time>
      </trkpt>
      <trkpt lat="48.75126" lon="1.8138">
        <ele>166.19999694824</ele>
        <time>2011-08-16T12:06:20.000Z</time>
      </trkpt>
      <trkpt lat="48.75131" lon="1.81384">
        <ele>165.60000610352</ele>
        <time>2011-08-16T12:06:25.000Z</time>
      </trkpt>
      <trkpt lat="48.75135" lon="1.81387">
        <ele>165</ele>
        <time>2011-08-16T12:06:28.000Z</time>
      </trkpt>
      <trkpt lat="48.75136" lon="1.81388">
        <ele>164.80000305176</ele>
        <time>2011-08-16T12:06:30.000Z</time>
      </trkpt>
      <trkpt lat="48.75139" lon="1.81394">
        <ele>164.19999694824</ele>
        <time>2011-08-16T12:06:35.000Z</time>
      </trkpt>
      <trkpt lat="48.75142" lon="1.81397">
        <ele>163.80000305176</ele>
        <time>2011-08-16T12:06:40.000Z</time>
      </trkpt>
      <trkpt lat="48.75146" lon="1.81401">
        <ele>163.19999694824</ele>
        <time>2011-08-16T12:06:44.000Z</time>
      </trkpt>
      <trkpt lat="48.75151" lon="1.81406">
        <ele>162.60000610352</ele>
        <time>2011-08-16T12:06:49.000Z</time>
      </trkpt>
      <trkpt lat="48.75155" lon="1.81411">
        <ele>162.19999694824</ele>
        <time>2011-08-16T12:06:54.000Z</time>
      </trkpt>
      <trkpt lat="48.75156" lon="1.81413">
        <ele>161.80000305176</ele>
        <time>2011-08-16T12:06:58.000Z</time>
      </trkpt>
      <trkpt lat="48.75162" lon="1.81421">
        <ele>160.80000305176</ele>
        <time>2011-08-16T12:07:04.000Z</time>
      </trkpt>
      <trkpt lat="48.75164" lon="1.81425">
        <ele>160.39999389648</ele>
        <time>2011-08-16T12:07:08.000Z</time>
      </trkpt>
      <trkpt lat="48.75168" lon="1.8143">
        <ele>159.80000305176</ele>
        <time>2011-08-16T12:07:12.000Z</time>
      </trkpt>
      <trkpt lat="48.75177" lon="1.8144">
        <ele>158</ele>
        <time>2011-08-16T12:07:19.000Z</time>
      </trkpt>
      <trkpt lat="48.75181" lon="1.81449">
        <ele>157</ele>
        <time>2011-08-16T12:07:24.000Z</time>
      </trkpt>
      <trkpt lat="48.75184" lon="1.81453">
        <ele>156.19999694824</ele>
        <time>2011-08-16T12:07:28.000Z</time>
      </trkpt>
      <trkpt lat="48.7519" lon="1.81466">
        <ele>154.80000305176</ele>
        <time>2011-08-16T12:07:35.000Z</time>
      </trkpt>
      <trkpt lat="48.75192" lon="1.81468">
        <ele>154.60000610352</ele>
        <time>2011-08-16T12:07:36.000Z</time>
      </trkpt>
      <trkpt lat="48.75196" lon="1.81481">
        <ele>153.39999389648</ele>
        <time>2011-08-16T12:07:43.000Z</time>
      </trkpt>
      <trkpt lat="48.75196" lon="1.81483">
        <ele>153.39999389648</ele>
        <time>2011-08-16T12:07:44.000Z</time>
      </trkpt>
      <trkpt lat="48.752" lon="1.81493">
        <ele>152.39999389648</ele>
        <time>2011-08-16T12:07:51.000Z</time>
      </trkpt>
      <trkpt lat="48.75203" lon="1.815">
        <ele>151.80000305176</ele>
        <time>2011-08-16T12:07:56.000Z</time>
      </trkpt>
      <trkpt lat="48.75209" lon="1.81509">
        <ele>151</ele>
        <time>2011-08-16T12:08:04.000Z</time>
      </trkpt>
      <trkpt lat="48.7521" lon="1.8151">
        <ele>150.80000305176</ele>
        <time>2011-08-16T12:08:05.000Z</time>
      </trkpt>
      <trkpt lat="48.75211" lon="1.81512">
        <ele>150.60000610352</ele>
        <time>2011-08-16T12:08:09.000Z</time>
      </trkpt>
      <trkpt lat="48.75232" lon="1.81537">
        <ele>148.39999389648</ele>
        <time>2011-08-16T12:08:49.000Z</time>
      </trkpt>
      <trkpt lat="48.75237" lon="1.81544">
        <ele>147.80000305176</ele>
        <time>2011-08-16T12:08:54.000Z</time>
      </trkpt>
      <trkpt lat="48.75241" lon="1.81553">
        <ele>147.39999389648</ele>
        <time>2011-08-16T12:09:00.000Z</time>
      </trkpt>
      <trkpt lat="48.75245" lon="1.81561">
        <ele>147</ele>
        <time>2011-08-16T12:09:05.000Z</time>
      </trkpt>
      <trkpt lat="48.75246" lon="1.81565">
        <ele>146.80000305176</ele>
        <time>2011-08-16T12:09:08.000Z</time>
      </trkpt>
      <trkpt lat="48.75254" lon="1.81572">
        <ele>146.19999694824</ele>
        <time>2011-08-16T12:09:15.000Z</time>
      </trkpt>
      <trkpt lat="48.75255" lon="1.81573">
        <ele>146</ele>
        <time>2011-08-16T12:09:16.000Z</time>
      </trkpt>
      <trkpt lat="48.75255" lon="1.81579">
        <ele>145.80000305176</ele>
        <time>2011-08-16T12:09:19.000Z</time>
      </trkpt>
      <trkpt lat="48.75259" lon="1.81587">
        <ele>145.39999389648</ele>
        <time>2011-08-16T12:09:24.000Z</time>
      </trkpt>
      <trkpt lat="48.75264" lon="1.81593">
        <ele>145</ele>
        <time>2011-08-16T12:09:29.000Z</time>
      </trkpt>
      <trkpt lat="48.75272" lon="1.81604">
        <ele>144.19999694824</ele>
        <time>2011-08-16T12:09:36.000Z</time>
      </trkpt>
      <trkpt lat="48.75278" lon="1.81611">
        <ele>143.80000305176</ele>
        <time>2011-08-16T12:09:41.000Z</time>
      </trkpt>
      <trkpt lat="48.75281" lon="1.81616">
        <ele>143.39999389648</ele>
        <time>2011-08-16T12:09:45.000Z</time>
      </trkpt>
      <trkpt lat="48.75283" lon="1.81619">
        <ele>143.19999694824</ele>
        <time>2011-08-16T12:09:49.000Z</time>
      </trkpt>
      <trkpt lat="48.75286" lon="1.81627">
        <ele>142.80000305176</ele>
        <time>2011-08-16T12:09:59.000Z</time>
      </trkpt>
      <trkpt lat="48.75287" lon="1.81629">
        <ele>142.60000610352</ele>
        <time>2011-08-16T12:10:00.000Z</time>
      </trkpt>
      <trkpt lat="48.75291" lon="1.81637">
        <ele>142.19999694824</ele>
        <time>2011-08-16T12:10:04.000Z</time>
      </trkpt>
      <trkpt lat="48.75291" lon="1.81639">
        <ele>142</ele>
        <time>2011-08-16T12:10:05.000Z</time>
      </trkpt>
      <trkpt lat="48.75298" lon="1.81647">
        <ele>141.60000610352</ele>
        <time>2011-08-16T12:10:13.000Z</time>
      </trkpt>
      <trkpt lat="48.75306" lon="1.81654">
        <ele>141</ele>
        <time>2011-08-16T12:10:20.000Z</time>
      </trkpt>
      <trkpt lat="48.75308" lon="1.81657">
        <ele>140.80000305176</ele>
        <time>2011-08-16T12:10:22.000Z</time>
      </trkpt>
      <trkpt lat="48.75315" lon="1.81666">
        <ele>140.39999389648</ele>
        <time>2011-08-16T12:10:30.000Z</time>
      </trkpt>
      <trkpt lat="48.75322" lon="1.81674">
        <ele>139.60000610352</ele>
        <time>2011-08-16T12:10:36.000Z</time>
      </trkpt>
      <trkpt lat="48.75326" lon="1.81681">
        <ele>139</ele>
        <time>2011-08-16T12:10:41.000Z</time>
      </trkpt>
      <trkpt lat="48.75331" lon="1.81691">
        <ele>138.19999694824</ele>
        <time>2011-08-16T12:10:47.000Z</time>
      </trkpt>
      <trkpt lat="48.75335" lon="1.81698">
        <ele>137.60000610352</ele>
        <time>2011-08-16T12:10:51.000Z</time>
      </trkpt>
      <trkpt lat="48.75338" lon="1.81702">
        <ele>137.39999389648</ele>
        <time>2011-08-16T12:10:54.000Z</time>
      </trkpt>
      <trkpt lat="48.75339" lon="1.81705">
        <ele>137.19999694824</ele>
        <time>2011-08-16T12:10:56.000Z</time>
      </trkpt>
      <trkpt lat="48.75345" lon="1.8171">
        <ele>137</ele>
        <time>2011-08-16T12:11:03.000Z</time>
      </trkpt>
      <trkpt lat="48.75353" lon="1.81718">
        <ele>136.60000610352</ele>
        <time>2011-08-16T12:11:09.000Z</time>
      </trkpt>
      <trkpt lat="48.75354" lon="1.81721">
        <ele>136.39999389648</ele>
        <time>2011-08-16T12:11:11.000Z</time>
      </trkpt>
      <trkpt lat="48.75361" lon="1.81729">
        <ele>136</ele>
        <time>2011-08-16T12:11:17.000Z</time>
      </trkpt>
      <trkpt lat="48.75364" lon="1.81735">
        <ele>135.80000305176</ele>
        <time>2011-08-16T12:11:21.000Z</time>
      </trkpt>
      <trkpt lat="48.75367" lon="1.81741">
        <ele>135.60000610352</ele>
        <time>2011-08-16T12:11:24.000Z</time>
      </trkpt>
      <trkpt lat="48.75372" lon="1.81748">
        <ele>135.39999389648</ele>
        <time>2011-08-16T12:11:29.000Z</time>
      </trkpt>
      <trkpt lat="48.75375" lon="1.81751">
        <ele>135.39999389648</ele>
        <time>2011-08-16T12:11:32.000Z</time>
      </trkpt>
      <trkpt lat="48.7538" lon="1.81758">
        <ele>135.19999694824</ele>
        <time>2011-08-16T12:11:38.000Z</time>
      </trkpt>
      <trkpt lat="48.75382" lon="1.81759">
        <ele>135.19999694824</ele>
        <time>2011-08-16T12:11:40.000Z</time>
      </trkpt>
      <trkpt lat="48.75384" lon="1.81762">
        <ele>135</ele>
        <time>2011-08-16T12:11:43.000Z</time>
      </trkpt>
      <trkpt lat="48.75385" lon="1.81768">
        <ele>134.60000610352</ele>
        <time>2011-08-16T12:11:47.000Z</time>
      </trkpt>
      <trkpt lat="48.75396" lon="1.8178">
        <ele>134.19999694824</ele>
        <time>2011-08-16T12:11:56.000Z</time>
      </trkpt>
      <trkpt lat="48.75398" lon="1.81783">
        <ele>134.19999694824</ele>
        <time>2011-08-16T12:11:59.000Z</time>
      </trkpt>
      <trkpt lat="48.75402" lon="1.81792">
        <ele>133.60000610352</ele>
        <time>2011-08-16T12:12:06.000Z</time>
      </trkpt>
      <trkpt lat="48.75408" lon="1.81803">
        <ele>133</ele>
        <time>2011-08-16T12:12:14.000Z</time>
      </trkpt>
      <trkpt lat="48.75414" lon="1.8181">
        <ele>132.60000610352</ele>
        <time>2011-08-16T12:12:20.000Z</time>
      </trkpt>
      <trkpt lat="48.7542" lon="1.81813">
        <ele>133</ele>
        <time>2011-08-16T12:12:25.000Z</time>
      </trkpt>
      <trkpt lat="48.75425" lon="1.81814">
        <ele>134.19999694824</ele>
        <time>2011-08-16T12:12:31.000Z</time>
      </trkpt>
      <trkpt lat="48.7542" lon="1.81799">
        <ele>134</ele>
        <time>2011-08-16T12:12:45.000Z</time>
      </trkpt>
      <trkpt lat="48.75419" lon="1.81793">
        <ele>134.19999694824</ele>
        <time>2011-08-16T12:12:47.000Z</time>
      </trkpt>
      <trkpt lat="48.75419" lon="1.81784">
        <ele>134.80000305176</ele>
        <time>2011-08-16T12:12:52.000Z</time>
      </trkpt>
      <trkpt lat="48.75413" lon="1.81773">
        <ele>135.19999694824</ele>
        <time>2011-08-16T12:12:58.000Z</time>
      </trkpt>
      <trkpt lat="48.7541" lon="1.81763">
        <ele>135.80000305176</ele>
        <time>2011-08-16T12:13:03.000Z</time>
      </trkpt>
      <trkpt lat="48.75411" lon="1.81761">
        <ele>136</ele>
        <time>2011-08-16T12:13:04.000Z</time>
      </trkpt>
      <trkpt lat="48.75415" lon="1.81753">
        <ele>136.60000610352</ele>
        <time>2011-08-16T12:13:08.000Z</time>
      </trkpt>
      <trkpt lat="48.75418" lon="1.8174">
        <ele>137.39999389648</ele>
        <time>2011-08-16T12:13:13.000Z</time>
      </trkpt>
      <trkpt lat="48.75415" lon="1.81725">
        <ele>137.39999389648</ele>
        <time>2011-08-16T12:13:20.000Z</time>
      </trkpt>
      <trkpt lat="48.75417" lon="1.81715">
        <ele>137.80000305176</ele>
        <time>2011-08-16T12:13:25.000Z</time>
      </trkpt>
      <trkpt lat="48.75419" lon="1.81708">
        <ele>138.60000610352</ele>
        <time>2011-08-16T12:13:30.000Z</time>
      </trkpt>
      <trkpt lat="48.75415" lon="1.81699">
        <ele>138.19999694824</ele>
        <time>2011-08-16T12:13:35.000Z</time>
      </trkpt>
      <trkpt lat="48.75413" lon="1.81687">
        <ele>138.39999389648</ele>
        <time>2011-08-16T12:13:41.000Z</time>
      </trkpt>
      <trkpt lat="48.75412" lon="1.81674">
        <ele>138.80000305176</ele>
        <time>2011-08-16T12:13:48.000Z</time>
      </trkpt>
      <trkpt lat="48.75411" lon="1.81672">
        <ele>138.80000305176</ele>
        <time>2011-08-16T12:13:49.000Z</time>
      </trkpt>
      <trkpt lat="48.7541" lon="1.81664">
        <ele>139</ele>
        <time>2011-08-16T12:13:53.000Z</time>
      </trkpt>
      <trkpt lat="48.75412" lon="1.81654">
        <ele>139.19999694824</ele>
        <time>2011-08-16T12:13:58.000Z</time>
      </trkpt>
      <trkpt lat="48.75411" lon="1.81648">
        <ele>139.19999694824</ele>
        <time>2011-08-16T12:14:01.000Z</time>
      </trkpt>
      <trkpt lat="48.75415" lon="1.81637">
        <ele>139.19999694824</ele>
        <time>2011-08-16T12:14:08.000Z</time>
      </trkpt>
      <trkpt lat="48.75415" lon="1.81636">
        <ele>139.39999389648</ele>
        <time>2011-08-16T12:14:09.000Z</time>
      </trkpt>
      <trkpt lat="48.75417" lon="1.81626">
        <ele>139.39999389648</ele>
        <time>2011-08-16T12:14:15.000Z</time>
      </trkpt>
      <trkpt lat="48.75422" lon="1.81611">
        <ele>140.80000305176</ele>
        <time>2011-08-16T12:14:23.000Z</time>
      </trkpt>
      <trkpt lat="48.75423" lon="1.81608">
        <ele>141</ele>
        <time>2011-08-16T12:14:24.000Z</time>
      </trkpt>
      <trkpt lat="48.75427" lon="1.81594">
        <ele>142</ele>
        <time>2011-08-16T12:14:33.000Z</time>
      </trkpt>
      <trkpt lat="48.75427" lon="1.81594">
        <ele>142</ele>
        <time>2011-08-16T12:14:34.000Z</time>
      </trkpt>
      <trkpt lat="48.7543" lon="1.8159">
        <ele>142.60000610352</ele>
        <time>2011-08-16T12:14:38.000Z</time>
      </trkpt>
      <trkpt lat="48.75432" lon="1.81585">
        <ele>143</ele>
        <time>2011-08-16T12:14:40.000Z</time>
      </trkpt>
      <trkpt lat="48.75435" lon="1.8157">
        <ele>143.60000610352</ele>
        <time>2011-08-16T12:14:48.000Z</time>
      </trkpt>
      <trkpt lat="48.75437" lon="1.81557">
        <ele>144.19999694824</ele>
        <time>2011-08-16T12:14:54.000Z</time>
      </trkpt>
      <trkpt lat="48.75439" lon="1.81545">
        <ele>144.39999389648</ele>
        <time>2011-08-16T12:15:02.000Z</time>
      </trkpt>
      <trkpt lat="48.7544" lon="1.81542">
        <ele>144.60000610352</ele>
        <time>2011-08-16T12:15:04.000Z</time>
      </trkpt>
      <trkpt lat="48.75447" lon="1.81528">
        <ele>145.39999389648</ele>
        <time>2011-08-16T12:15:12.000Z</time>
      </trkpt>
      <trkpt lat="48.7545" lon="1.81518">
        <ele>145.80000305176</ele>
        <time>2011-08-16T12:15:18.000Z</time>
      </trkpt>
      <trkpt lat="48.75453" lon="1.81512">
        <ele>146</ele>
        <time>2011-08-16T12:15:22.000Z</time>
      </trkpt>
      <trkpt lat="48.75458" lon="1.815">
        <ele>146.39999389648</ele>
        <time>2011-08-16T12:15:29.000Z</time>
      </trkpt>
      <trkpt lat="48.75458" lon="1.81489">
        <ele>146.60000610352</ele>
        <time>2011-08-16T12:15:34.000Z</time>
      </trkpt>
      <trkpt lat="48.75458" lon="1.81483">
        <ele>146.60000610352</ele>
        <time>2011-08-16T12:15:37.000Z</time>
      </trkpt>
      <trkpt lat="48.7546" lon="1.81474">
        <ele>146.80000305176</ele>
        <time>2011-08-16T12:15:42.000Z</time>
      </trkpt>
      <trkpt lat="48.75462" lon="1.81463">
        <ele>147</ele>
        <time>2011-08-16T12:15:48.000Z</time>
      </trkpt>
      <trkpt lat="48.75467" lon="1.81452">
        <ele>147.39999389648</ele>
        <time>2011-08-16T12:15:55.000Z</time>
      </trkpt>
      <trkpt lat="48.75468" lon="1.81445">
        <ele>147.60000610352</ele>
        <time>2011-08-16T12:16:00.000Z</time>
      </trkpt>
      <trkpt lat="48.75474" lon="1.81437">
        <ele>147.80000305176</ele>
        <time>2011-08-16T12:16:08.000Z</time>
      </trkpt>
      <trkpt lat="48.75481" lon="1.81425">
        <ele>147.80000305176</ele>
        <time>2011-08-16T12:16:15.000Z</time>
      </trkpt>
      <trkpt lat="48.75487" lon="1.81416">
        <ele>147.80000305176</ele>
        <time>2011-08-16T12:16:21.000Z</time>
      </trkpt>
      <trkpt lat="48.75491" lon="1.81408">
        <ele>147.80000305176</ele>
        <time>2011-08-16T12:16:26.000Z</time>
      </trkpt>
      <trkpt lat="48.75492" lon="1.81407">
        <ele>147.80000305176</ele>
        <time>2011-08-16T12:16:29.000Z</time>
      </trkpt>
      <trkpt lat="48.75504" lon="1.81396">
        <ele>148.39999389648</ele>
        <time>2011-08-16T12:16:53.000Z</time>
      </trkpt>
      <trkpt lat="48.75513" lon="1.81388">
        <ele>150</ele>
        <time>2011-08-16T12:17:00.000Z</time>
      </trkpt>
      <trkpt lat="48.75519" lon="1.81379">
        <ele>150.80000305176</ele>
        <time>2011-08-16T12:17:07.000Z</time>
      </trkpt>
      <trkpt lat="48.7552" lon="1.81378">
        <ele>151</ele>
        <time>2011-08-16T12:17:08.000Z</time>
      </trkpt>
      <trkpt lat="48.75523" lon="1.81374">
        <ele>151.19999694824</ele>
        <time>2011-08-16T12:17:11.000Z</time>
      </trkpt>
      <trkpt lat="48.75525" lon="1.81366">
        <ele>151</ele>
        <time>2011-08-16T12:17:16.000Z</time>
      </trkpt>
      <trkpt lat="48.75528" lon="1.81356">
        <ele>151</ele>
        <time>2011-08-16T12:17:22.000Z</time>
      </trkpt>
      <trkpt lat="48.75533" lon="1.81343">
        <ele>150.60000610352</ele>
        <time>2011-08-16T12:17:29.000Z</time>
      </trkpt>
      <trkpt lat="48.75539" lon="1.81329">
        <ele>150.60000610352</ele>
        <time>2011-08-16T12:17:38.000Z</time>
      </trkpt>
      <trkpt lat="48.75541" lon="1.81323">
        <ele>150.80000305176</ele>
        <time>2011-08-16T12:17:41.000Z</time>
      </trkpt>
      <trkpt lat="48.75546" lon="1.81308">
        <ele>151</ele>
        <time>2011-08-16T12:17:49.000Z</time>
      </trkpt>
      <trkpt lat="48.75548" lon="1.81305">
        <ele>151</ele>
        <time>2011-08-16T12:17:51.000Z</time>
      </trkpt>
      <trkpt lat="48.7555" lon="1.81301">
        <ele>151</ele>
        <time>2011-08-16T12:17:56.000Z</time>
      </trkpt>
      <trkpt lat="48.75559" lon="1.81291">
        <ele>151</ele>
        <time>2011-08-16T12:18:04.000Z</time>
      </trkpt>
      <trkpt lat="48.75562" lon="1.81287">
        <ele>150.80000305176</ele>
        <time>2011-08-16T12:18:07.000Z</time>
      </trkpt>
      <trkpt lat="48.75564" lon="1.81283">
        <ele>150.60000610352</ele>
        <time>2011-08-16T12:18:11.000Z</time>
      </trkpt>
      <trkpt lat="48.75572" lon="1.81272">
        <ele>150</ele>
        <time>2011-08-16T12:18:19.000Z</time>
      </trkpt>
      <trkpt lat="48.75577" lon="1.81266">
        <ele>149.39999389648</ele>
        <time>2011-08-16T12:18:24.000Z</time>
      </trkpt>
      <trkpt lat="48.75584" lon="1.81254">
        <ele>148.39999389648</ele>
        <time>2011-08-16T12:18:32.000Z</time>
      </trkpt>
      <trkpt lat="48.75585" lon="1.81253">
        <ele>148.39999389648</ele>
        <time>2011-08-16T12:18:33.000Z</time>
      </trkpt>
      <trkpt lat="48.7559" lon="1.81246">
        <ele>149.60000610352</ele>
        <time>2011-08-16T12:18:39.000Z</time>
      </trkpt>
      <trkpt lat="48.75591" lon="1.81244">
        <ele>150</ele>
        <time>2011-08-16T12:18:40.000Z</time>
      </trkpt>
      <trkpt lat="48.75603" lon="1.81236">
        <ele>153.19999694824</ele>
        <time>2011-08-16T12:18:48.000Z</time>
      </trkpt>
      <trkpt lat="48.75604" lon="1.81235">
        <ele>153.39999389648</ele>
        <time>2011-08-16T12:18:49.000Z</time>
      </trkpt>
      <trkpt lat="48.75612" lon="1.81223">
        <ele>155.19999694824</ele>
        <time>2011-08-16T12:18:58.000Z</time>
      </trkpt>
      <trkpt lat="48.75613" lon="1.8122">
        <ele>155.60000610352</ele>
        <time>2011-08-16T12:19:00.000Z</time>
      </trkpt>
      <trkpt lat="48.75612" lon="1.81214">
        <ele>155.39999389648</ele>
        <time>2011-08-16T12:19:03.000Z</time>
      </trkpt>
      <trkpt lat="48.75615" lon="1.81204">
        <ele>156.19999694824</ele>
        <time>2011-08-16T12:19:10.000Z</time>
      </trkpt>
      <trkpt lat="48.75619" lon="1.81198">
        <ele>156.80000305176</ele>
        <time>2011-08-16T12:19:17.000Z</time>
      </trkpt>
      <trkpt lat="48.75623" lon="1.81192">
        <ele>157.19999694824</ele>
        <time>2011-08-16T12:19:21.000Z</time>
      </trkpt>
      <trkpt lat="48.7563" lon="1.81181">
        <ele>158</ele>
        <time>2011-08-16T12:19:28.000Z</time>
      </trkpt>
      <trkpt lat="48.75634" lon="1.81175">
        <ele>158.39999389648</ele>
        <time>2011-08-16T12:19:32.000Z</time>
      </trkpt>
      <trkpt lat="48.7564" lon="1.81167">
        <ele>158.60000610352</ele>
        <time>2011-08-16T12:19:38.000Z</time>
      </trkpt>
      <trkpt lat="48.75645" lon="1.81158">
        <ele>159</ele>
        <time>2011-08-16T12:19:44.000Z</time>
      </trkpt>
      <trkpt lat="48.75651" lon="1.81152">
        <ele>159.19999694824</ele>
        <time>2011-08-16T12:19:49.000Z</time>
      </trkpt>
      <trkpt lat="48.75653" lon="1.81147">
        <ele>159.39999389648</ele>
        <time>2011-08-16T12:19:52.000Z</time>
      </trkpt>
      <trkpt lat="48.75658" lon="1.81128">
        <ele>159.19999694824</ele>
        <time>2011-08-16T12:19:59.000Z</time>
      </trkpt>
      <trkpt lat="48.75662" lon="1.81121">
        <ele>159</ele>
        <time>2011-08-16T12:20:04.000Z</time>
      </trkpt>
      <trkpt lat="48.75663" lon="1.81116">
        <ele>159</ele>
        <time>2011-08-16T12:20:07.000Z</time>
      </trkpt>
      <trkpt lat="48.75663" lon="1.81114">
        <ele>158.80000305176</ele>
        <time>2011-08-16T12:20:09.000Z</time>
      </trkpt>
      <trkpt lat="48.75664" lon="1.8111">
        <ele>158.80000305176</ele>
        <time>2011-08-16T12:20:13.000Z</time>
      </trkpt>
      <trkpt lat="48.75667" lon="1.81104">
        <ele>158.80000305176</ele>
        <time>2011-08-16T12:20:17.000Z</time>
      </trkpt>
      <trkpt lat="48.75668" lon="1.811">
        <ele>158.80000305176</ele>
        <time>2011-08-16T12:20:19.000Z</time>
      </trkpt>
      <trkpt lat="48.75671" lon="1.81092">
        <ele>159.19999694824</ele>
        <time>2011-08-16T12:20:24.000Z</time>
      </trkpt>
      <trkpt lat="48.75673" lon="1.81088">
        <ele>159.60000610352</ele>
        <time>2011-08-16T12:20:26.000Z</time>
      </trkpt>
      <trkpt lat="48.75676" lon="1.81084">
        <ele>160.19999694824</ele>
        <time>2011-08-16T12:20:29.000Z</time>
      </trkpt>
      <trkpt lat="48.75676" lon="1.8108">
        <ele>160.19999694824</ele>
        <time>2011-08-16T12:20:32.000Z</time>
      </trkpt>
      <trkpt lat="48.75675" lon="1.81069">
        <ele>159.60000610352</ele>
        <time>2011-08-16T12:20:37.000Z</time>
      </trkpt>
      <trkpt lat="48.75676" lon="1.81059">
        <ele>159.80000305176</ele>
        <time>2011-08-16T12:20:41.000Z</time>
      </trkpt>
      <trkpt lat="48.75682" lon="1.8105">
        <ele>160.39999389648</ele>
        <time>2011-08-16T12:20:47.000Z</time>
      </trkpt>
      <trkpt lat="48.75684" lon="1.81045">
        <ele>160.60000610352</ele>
        <time>2011-08-16T12:20:50.000Z</time>
      </trkpt>
      <trkpt lat="48.75686" lon="1.81031">
        <ele>160.60000610352</ele>
        <time>2011-08-16T12:20:56.000Z</time>
      </trkpt>
      <trkpt lat="48.75692" lon="1.81024">
        <ele>161.19999694824</ele>
        <time>2011-08-16T12:21:01.000Z</time>
      </trkpt>
      <trkpt lat="48.75697" lon="1.81015">
        <ele>161.39999389648</ele>
        <time>2011-08-16T12:21:06.000Z</time>
      </trkpt>
      <trkpt lat="48.75703" lon="1.81006">
        <ele>161.60000610352</ele>
        <time>2011-08-16T12:21:12.000Z</time>
      </trkpt>
      <trkpt lat="48.7571" lon="1.80997">
        <ele>162</ele>
        <time>2011-08-16T12:21:20.000Z</time>
      </trkpt>
      <trkpt lat="48.7572" lon="1.80987">
        <ele>162.80000305176</ele>
        <time>2011-08-16T12:21:29.000Z</time>
      </trkpt>
      <trkpt lat="48.75722" lon="1.80984">
        <ele>162.80000305176</ele>
        <time>2011-08-16T12:21:31.000Z</time>
      </trkpt>
      <trkpt lat="48.75728" lon="1.80974">
        <ele>163</ele>
        <time>2011-08-16T12:21:38.000Z</time>
      </trkpt>
      <trkpt lat="48.75728" lon="1.80973">
        <ele>163</ele>
        <time>2011-08-16T12:21:41.000Z</time>
      </trkpt>
      <trkpt lat="48.75728" lon="1.80966">
        <ele>162.80000305176</ele>
        <time>2011-08-16T12:22:01.000Z</time>
      </trkpt>
      <trkpt lat="48.75727" lon="1.80967">
        <ele>162.60000610352</ele>
        <time>2011-08-16T12:22:07.000Z</time>
      </trkpt>
      <trkpt lat="48.75731" lon="1.80963">
        <ele>162.80000305176</ele>
        <time>2011-08-16T12:22:10.000Z</time>
      </trkpt>
      <trkpt lat="48.75735" lon="1.80961">
        <ele>163</ele>
        <time>2011-08-16T12:22:16.000Z</time>
      </trkpt>
      <trkpt lat="48.7576" lon="1.80907">
        <ele>162.80000305176</ele>
        <time>2011-08-16T12:23:30.000Z</time>
      </trkpt>
      <trkpt lat="48.75766" lon="1.80897">
        <ele>163.60000610352</ele>
        <time>2011-08-16T12:23:34.000Z</time>
      </trkpt>
      <trkpt lat="48.7577" lon="1.80893">
        <ele>164.19999694824</ele>
        <time>2011-08-16T12:23:38.000Z</time>
      </trkpt>
      <trkpt lat="48.75777" lon="1.80882">
        <ele>165.19999694824</ele>
        <time>2011-08-16T12:23:45.000Z</time>
      </trkpt>
      <trkpt lat="48.75778" lon="1.8088">
        <ele>165.39999389648</ele>
        <time>2011-08-16T12:23:47.000Z</time>
      </trkpt>
      <trkpt lat="48.75779" lon="1.80871">
        <ele>165.19999694824</ele>
        <time>2011-08-16T12:23:52.000Z</time>
      </trkpt>
      <trkpt lat="48.75781" lon="1.80858">
        <ele>164.80000305176</ele>
        <time>2011-08-16T12:23:59.000Z</time>
      </trkpt>
      <trkpt lat="48.75782" lon="1.80849">
        <ele>164.80000305176</ele>
        <time>2011-08-16T12:24:05.000Z</time>
      </trkpt>
      <trkpt lat="48.75784" lon="1.80838">
        <ele>164.60000610352</ele>
        <time>2011-08-16T12:24:11.000Z</time>
      </trkpt>
      <trkpt lat="48.75786" lon="1.8083">
        <ele>164.60000610352</ele>
        <time>2011-08-16T12:24:16.000Z</time>
      </trkpt>
      <trkpt lat="48.75792" lon="1.80821">
        <ele>165.19999694824</ele>
        <time>2011-08-16T12:24:23.000Z</time>
      </trkpt>
      <trkpt lat="48.75797" lon="1.80815">
        <ele>165.80000305176</ele>
        <time>2011-08-16T12:24:29.000Z</time>
      </trkpt>
      <trkpt lat="48.75801" lon="1.80805">
        <ele>166</ele>
        <time>2011-08-16T12:24:36.000Z</time>
      </trkpt>
      <trkpt lat="48.75802" lon="1.80804">
        <ele>166</ele>
        <time>2011-08-16T12:24:37.000Z</time>
      </trkpt>
      <trkpt lat="48.75806" lon="1.80793">
        <ele>166.19999694824</ele>
        <time>2011-08-16T12:24:45.000Z</time>
      </trkpt>
      <trkpt lat="48.75808" lon="1.80786">
        <ele>166.39999389648</ele>
        <time>2011-08-16T12:24:50.000Z</time>
      </trkpt>
      <trkpt lat="48.75811" lon="1.8078">
        <ele>166.39999389648</ele>
        <time>2011-08-16T12:24:54.000Z</time>
      </trkpt>
      <trkpt lat="48.75814" lon="1.80773">
        <ele>166.60000610352</ele>
        <time>2011-08-16T12:24:58.000Z</time>
      </trkpt>
      <trkpt lat="48.75816" lon="1.80762">
        <ele>166.60000610352</ele>
        <time>2011-08-16T12:25:04.000Z</time>
      </trkpt>
      <trkpt lat="48.75817" lon="1.80754">
        <ele>166.39999389648</ele>
        <time>2011-08-16T12:25:08.000Z</time>
      </trkpt>
      <trkpt lat="48.7582" lon="1.80738">
        <ele>166.60000610352</ele>
        <time>2011-08-16T12:25:17.000Z</time>
      </trkpt>
      <trkpt lat="48.75822" lon="1.80727">
        <ele>166.60000610352</ele>
        <time>2011-08-16T12:25:23.000Z</time>
      </trkpt>
      <trkpt lat="48.75827" lon="1.80718">
        <ele>167</ele>
        <time>2011-08-16T12:25:29.000Z</time>
      </trkpt>
      <trkpt lat="48.75829" lon="1.80715">
        <ele>167</ele>
        <time>2011-08-16T12:25:31.000Z</time>
      </trkpt>
      <trkpt lat="48.75835" lon="1.80698">
        <ele>167.60000610352</ele>
        <time>2011-08-16T12:25:40.000Z</time>
      </trkpt>
      <trkpt lat="48.75835" lon="1.80696">
        <ele>167.60000610352</ele>
        <time>2011-08-16T12:25:41.000Z</time>
      </trkpt>
      <trkpt lat="48.7584" lon="1.80689">
        <ele>168.60000610352</ele>
        <time>2011-08-16T12:25:47.000Z</time>
      </trkpt>
      <trkpt lat="48.75843" lon="1.80684">
        <ele>169</ele>
        <time>2011-08-16T12:25:50.000Z</time>
      </trkpt>
      <trkpt lat="48.75846" lon="1.80679">
        <ele>169.39999389648</ele>
        <time>2011-08-16T12:25:53.000Z</time>
      </trkpt>
      <trkpt lat="48.75848" lon="1.80673">
        <ele>169.80000305176</ele>
        <time>2011-08-16T12:25:56.000Z</time>
      </trkpt>
      <trkpt lat="48.75845" lon="1.80667">
        <ele>169.19999694824</ele>
        <time>2011-08-16T12:26:01.000Z</time>
      </trkpt>
      <trkpt lat="48.75835" lon="1.80659">
        <ele>167.19999694824</ele>
        <time>2011-08-16T12:26:10.000Z</time>
      </trkpt>
      <trkpt lat="48.75827" lon="1.8065">
        <ele>166.39999389648</ele>
        <time>2011-08-16T12:26:17.000Z</time>
      </trkpt>
      <trkpt lat="48.75823" lon="1.80636">
        <ele>166</ele>
        <time>2011-08-16T12:26:24.000Z</time>
      </trkpt>
      <trkpt lat="48.7582" lon="1.80626">
        <ele>165.60000610352</ele>
        <time>2011-08-16T12:26:30.000Z</time>
      </trkpt>
      <trkpt lat="48.7582" lon="1.80613">
        <ele>165.60000610352</ele>
        <time>2011-08-16T12:26:38.000Z</time>
      </trkpt>
      <trkpt lat="48.75821" lon="1.80608">
        <ele>165.60000610352</ele>
        <time>2011-08-16T12:26:41.000Z</time>
      </trkpt>
      <trkpt lat="48.75822" lon="1.80604">
        <ele>165.60000610352</ele>
        <time>2011-08-16T12:26:43.000Z</time>
      </trkpt>
      <trkpt lat="48.75823" lon="1.80593">
        <ele>165.60000610352</ele>
        <time>2011-08-16T12:26:48.000Z</time>
      </trkpt>
      <trkpt lat="48.75818" lon="1.80576">
        <ele>165.19999694824</ele>
        <time>2011-08-16T12:26:56.000Z</time>
      </trkpt>
      <trkpt lat="48.75818" lon="1.80575">
        <ele>165.19999694824</ele>
        <time>2011-08-16T12:26:57.000Z</time>
      </trkpt>
      <trkpt lat="48.75817" lon="1.80574">
        <ele>165.19999694824</ele>
        <time>2011-08-16T12:27:00.000Z</time>
      </trkpt>
      <trkpt lat="48.75815" lon="1.80553">
        <ele>164.60000610352</ele>
        <time>2011-08-16T12:27:18.000Z</time>
      </trkpt>
      <trkpt lat="48.75814" lon="1.80547">
        <ele>164.39999389648</ele>
        <time>2011-08-16T12:27:23.000Z</time>
      </trkpt>
      <trkpt lat="48.75814" lon="1.80546">
        <ele>164.39999389648</ele>
        <time>2011-08-16T12:29:23.000Z</time>
      </trkpt>
      <trkpt lat="48.75815" lon="1.80548">
        <ele>164.39999389648</ele>
        <time>2011-08-16T12:29:24.000Z</time>
      </trkpt>
      <trkpt lat="48.75816" lon="1.80551">
        <ele>164.60000610352</ele>
        <time>2011-08-16T12:29:25.000Z</time>
      </trkpt>
      <trkpt lat="48.75823" lon="1.80548">
        <ele>164.80000305176</ele>
        <time>2011-08-16T12:29:32.000Z</time>
      </trkpt>
      <trkpt lat="48.75824" lon="1.80543">
        <ele>164.60000610352</ele>
        <time>2011-08-16T12:29:34.000Z</time>
      </trkpt>
      <trkpt lat="48.75826" lon="1.80524">
        <ele>164.19999694824</ele>
        <time>2011-08-16T12:29:42.000Z</time>
      </trkpt>
      <trkpt lat="48.75831" lon="1.80509">
        <ele>164</ele>
        <time>2011-08-16T12:29:49.000Z</time>
      </trkpt>
      <trkpt lat="48.75837" lon="1.80496">
        <ele>164.60000610352</ele>
        <time>2011-08-16T12:29:55.000Z</time>
      </trkpt>
      <trkpt lat="48.75839" lon="1.80482">
        <ele>165.19999694824</ele>
        <time>2011-08-16T12:30:02.000Z</time>
      </trkpt>
      <trkpt lat="48.75834" lon="1.80476">
        <ele>164.60000610352</ele>
        <time>2011-08-16T12:30:07.000Z</time>
      </trkpt>
      <trkpt lat="48.75832" lon="1.80474">
        <ele>164.39999389648</ele>
        <time>2011-08-16T12:30:09.000Z</time>
      </trkpt>
      <trkpt lat="48.75822" lon="1.80465">
        <ele>164.39999389648</ele>
        <time>2011-08-16T12:30:16.000Z</time>
      </trkpt>
      <trkpt lat="48.75821" lon="1.80464">
        <ele>164.39999389648</ele>
        <time>2011-08-16T12:30:17.000Z</time>
      </trkpt>
      <trkpt lat="48.7582" lon="1.80464">
        <ele>164.39999389648</ele>
        <time>2011-08-16T12:30:20.000Z</time>
      </trkpt>
      <trkpt lat="48.75815" lon="1.80467">
        <ele>164.19999694824</ele>
        <time>2011-08-16T12:30:30.000Z</time>
      </trkpt>
      <trkpt lat="48.75807" lon="1.80469">
        <ele>163.80000305176</ele>
        <time>2011-08-16T12:30:35.000Z</time>
      </trkpt>
      <trkpt lat="48.75805" lon="1.80469">
        <ele>163.80000305176</ele>
        <time>2011-08-16T12:30:39.000Z</time>
      </trkpt>
      <trkpt lat="48.75806" lon="1.80454">
        <ele>164.19999694824</ele>
        <time>2011-08-16T12:32:28.000Z</time>
      </trkpt>
      <trkpt lat="48.75806" lon="1.8045">
        <ele>164.19999694824</ele>
        <time>2011-08-16T12:32:29.000Z</time>
      </trkpt>
      <trkpt lat="48.75809" lon="1.8044">
        <ele>164.60000610352</ele>
        <time>2011-08-16T12:32:35.000Z</time>
      </trkpt>
      <trkpt lat="48.7581" lon="1.80434">
        <ele>164.60000610352</ele>
        <time>2011-08-16T12:32:38.000Z</time>
      </trkpt>
      <trkpt lat="48.75819" lon="1.80427">
        <ele>165.19999694824</ele>
        <time>2011-08-16T12:32:46.000Z</time>
      </trkpt>
      <trkpt lat="48.75821" lon="1.80426">
        <ele>165.19999694824</ele>
        <time>2011-08-16T12:32:47.000Z</time>
      </trkpt>
      <trkpt lat="48.7583" lon="1.80414">
        <ele>166</ele>
        <time>2011-08-16T12:32:55.000Z</time>
      </trkpt>
      <trkpt lat="48.75833" lon="1.80404">
        <ele>166.80000305176</ele>
        <time>2011-08-16T12:33:00.000Z</time>
      </trkpt>
      <trkpt lat="48.75836" lon="1.80386">
        <ele>168.19999694824</ele>
        <time>2011-08-16T12:33:08.000Z</time>
      </trkpt>
      <trkpt lat="48.75839" lon="1.80368">
        <ele>169.60000610352</ele>
        <time>2011-08-16T12:33:13.000Z</time>
      </trkpt>
      <trkpt lat="48.7584" lon="1.80356">
        <ele>170.39999389648</ele>
        <time>2011-08-16T12:33:19.000Z</time>
      </trkpt>
      <trkpt lat="48.75841" lon="1.80344">
        <ele>171.19999694824</ele>
        <time>2011-08-16T12:33:24.000Z</time>
      </trkpt>
      <trkpt lat="48.75843" lon="1.80323">
        <ele>172.19999694824</ele>
        <time>2011-08-16T12:33:33.000Z</time>
      </trkpt>
      <trkpt lat="48.75845" lon="1.80309">
        <ele>172.80000305176</ele>
        <time>2011-08-16T12:33:39.000Z</time>
      </trkpt>
      <trkpt lat="48.75848" lon="1.80296">
        <ele>173.19999694824</ele>
        <time>2011-08-16T12:33:45.000Z</time>
      </trkpt>
      <trkpt lat="48.75848" lon="1.80293">
        <ele>173.19999694824</ele>
        <time>2011-08-16T12:33:46.000Z</time>
      </trkpt>
      <trkpt lat="48.75851" lon="1.80283">
        <ele>173.60000610352</ele>
        <time>2011-08-16T12:33:51.000Z</time>
      </trkpt>
      <trkpt lat="48.75853" lon="1.80266">
        <ele>174.19999694824</ele>
        <time>2011-08-16T12:33:59.000Z</time>
      </trkpt>
      <trkpt lat="48.75856" lon="1.80252">
        <ele>174.60000610352</ele>
        <time>2011-08-16T12:34:04.000Z</time>
      </trkpt>
      <trkpt lat="48.75858" lon="1.80236">
        <ele>174.60000610352</ele>
        <time>2011-08-16T12:34:09.000Z</time>
      </trkpt>
      <trkpt lat="48.75859" lon="1.80228">
        <ele>174.60000610352</ele>
        <time>2011-08-16T12:34:13.000Z</time>
      </trkpt>
      <trkpt lat="48.75861" lon="1.80213">
        <ele>174.80000305176</ele>
        <time>2011-08-16T12:34:20.000Z</time>
      </trkpt>
      <trkpt lat="48.75863" lon="1.80195">
        <ele>174.80000305176</ele>
        <time>2011-08-16T12:34:28.000Z</time>
      </trkpt>
      <trkpt lat="48.75864" lon="1.8019">
        <ele>174.80000305176</ele>
        <time>2011-08-16T12:34:30.000Z</time>
      </trkpt>
      <trkpt lat="48.75866" lon="1.80169">
        <ele>175</ele>
        <time>2011-08-16T12:34:38.000Z</time>
      </trkpt>
      <trkpt lat="48.75867" lon="1.80155">
        <ele>175.39999389648</ele>
        <time>2011-08-16T12:34:44.000Z</time>
      </trkpt>
      <trkpt lat="48.75868" lon="1.8015">
        <ele>175.60000610352</ele>
        <time>2011-08-16T12:34:47.000Z</time>
      </trkpt>
      <trkpt lat="48.7587" lon="1.80138">
        <ele>176.19999694824</ele>
        <time>2011-08-16T12:34:53.000Z</time>
      </trkpt>
      <trkpt lat="48.75872" lon="1.80127">
        <ele>176.60000610352</ele>
        <time>2011-08-16T12:34:57.000Z</time>
      </trkpt>
      <trkpt lat="48.75874" lon="1.80113">
        <ele>177</ele>
        <time>2011-08-16T12:35:02.000Z</time>
      </trkpt>
      <trkpt lat="48.75875" lon="1.80104">
        <ele>177.19999694824</ele>
        <time>2011-08-16T12:35:06.000Z</time>
      </trkpt>
      <trkpt lat="48.75878" lon="1.80092">
        <ele>177.60000610352</ele>
        <time>2011-08-16T12:35:12.000Z</time>
      </trkpt>
      <trkpt lat="48.75878" lon="1.80087">
        <ele>177.80000305176</ele>
        <time>2011-08-16T12:35:14.000Z</time>
      </trkpt>
      <trkpt lat="48.75878" lon="1.80083">
        <ele>178</ele>
        <time>2011-08-16T12:35:16.000Z</time>
      </trkpt>
      <trkpt lat="48.75877" lon="1.80071">
        <ele>178.19999694824</ele>
        <time>2011-08-16T12:35:22.000Z</time>
      </trkpt>
      <trkpt lat="48.75879" lon="1.80057">
        <ele>178.80000305176</ele>
        <time>2011-08-16T12:35:29.000Z</time>
      </trkpt>
      <trkpt lat="48.75882" lon="1.80041">
        <ele>179.19999694824</ele>
        <time>2011-08-16T12:35:37.000Z</time>
      </trkpt>
      <trkpt lat="48.75885" lon="1.80032">
        <ele>179.60000610352</ele>
        <time>2011-08-16T12:35:41.000Z</time>
      </trkpt>
      <trkpt lat="48.75886" lon="1.80027">
        <ele>179.60000610352</ele>
        <time>2011-08-16T12:35:43.000Z</time>
      </trkpt>
      <trkpt lat="48.75889" lon="1.80006">
        <ele>180.39999389648</ele>
        <time>2011-08-16T12:35:51.000Z</time>
      </trkpt>
      <trkpt lat="48.75889" lon="1.79986">
        <ele>180.80000305176</ele>
        <time>2011-08-16T12:35:59.000Z</time>
      </trkpt>
      <trkpt lat="48.75891" lon="1.79971">
        <ele>181</ele>
        <time>2011-08-16T12:36:04.000Z</time>
      </trkpt>
      <trkpt lat="48.75895" lon="1.79953">
        <ele>181.39999389648</ele>
        <time>2011-08-16T12:36:10.000Z</time>
      </trkpt>
      <trkpt lat="48.75895" lon="1.79929">
        <ele>181.80000305176</ele>
        <time>2011-08-16T12:36:16.000Z</time>
      </trkpt>
      <trkpt lat="48.75899" lon="1.79905">
        <ele>182.19999694824</ele>
        <time>2011-08-16T12:36:21.000Z</time>
      </trkpt>
      <trkpt lat="48.75902" lon="1.79879">
        <ele>182.39999389648</ele>
        <time>2011-08-16T12:36:27.000Z</time>
      </trkpt>
      <trkpt lat="48.75908" lon="1.79856">
        <ele>182.60000610352</ele>
        <time>2011-08-16T12:36:32.000Z</time>
      </trkpt>
      <trkpt lat="48.75914" lon="1.79836">
        <ele>182.80000305176</ele>
        <time>2011-08-16T12:36:37.000Z</time>
      </trkpt>
      <trkpt lat="48.75916" lon="1.79813">
        <ele>183.39999389648</ele>
        <time>2011-08-16T12:36:43.000Z</time>
      </trkpt>
      <trkpt lat="48.75917" lon="1.79804">
        <ele>183.60000610352</ele>
        <time>2011-08-16T12:36:46.000Z</time>
      </trkpt>
      <trkpt lat="48.75919" lon="1.79797">
        <ele>183.80000305176</ele>
        <time>2011-08-16T12:36:48.000Z</time>
      </trkpt>
      <trkpt lat="48.75924" lon="1.79775">
        <ele>184.39999389648</ele>
        <time>2011-08-16T12:36:54.000Z</time>
      </trkpt>
      <trkpt lat="48.75927" lon="1.79761">
        <ele>184.80000305176</ele>
        <time>2011-08-16T12:36:57.000Z</time>
      </trkpt>
      <trkpt lat="48.75923" lon="1.79737">
        <ele>185.19999694824</ele>
        <time>2011-08-16T12:37:02.000Z</time>
      </trkpt>
      <trkpt lat="48.75925" lon="1.79713">
        <ele>185.60000610352</ele>
        <time>2011-08-16T12:37:07.000Z</time>
      </trkpt>
      <trkpt lat="48.75931" lon="1.79682">
        <ele>186.19999694824</ele>
        <time>2011-08-16T12:37:13.000Z</time>
      </trkpt>
      <trkpt lat="48.75936" lon="1.79658">
        <ele>186.60000610352</ele>
        <time>2011-08-16T12:37:18.000Z</time>
      </trkpt>
      <trkpt lat="48.75941" lon="1.79617">
        <ele>186.80000305176</ele>
        <time>2011-08-16T12:37:25.000Z</time>
      </trkpt>
      <trkpt lat="48.7594" lon="1.79597">
        <ele>186.80000305176</ele>
        <time>2011-08-16T12:37:28.000Z</time>
      </trkpt>
      <trkpt lat="48.75943" lon="1.79572">
        <ele>187</ele>
        <time>2011-08-16T12:37:33.000Z</time>
      </trkpt>
      <trkpt lat="48.75948" lon="1.79542">
        <ele>187.39999389648</ele>
        <time>2011-08-16T12:37:39.000Z</time>
      </trkpt>
      <trkpt lat="48.75951" lon="1.79513">
        <ele>187.60000610352</ele>
        <time>2011-08-16T12:37:45.000Z</time>
      </trkpt>
      <trkpt lat="48.75949" lon="1.79476">
        <ele>188</ele>
        <time>2011-08-16T12:37:52.000Z</time>
      </trkpt>
      <trkpt lat="48.75948" lon="1.79447">
        <ele>188.19999694824</ele>
        <time>2011-08-16T12:37:58.000Z</time>
      </trkpt>
      <trkpt lat="48.75947" lon="1.79424">
        <ele>188.60000610352</ele>
        <time>2011-08-16T12:38:04.000Z</time>
      </trkpt>
      <trkpt lat="48.75946" lon="1.79395">
        <ele>188.60000610352</ele>
        <time>2011-08-16T12:38:09.000Z</time>
      </trkpt>
      <trkpt lat="48.75945" lon="1.79368">
        <ele>188.39999389648</ele>
        <time>2011-08-16T12:38:14.000Z</time>
      </trkpt>
      <trkpt lat="48.75943" lon="1.79339">
        <ele>188.19999694824</ele>
        <time>2011-08-16T12:38:20.000Z</time>
      </trkpt>
      <trkpt lat="48.75943" lon="1.79315">
        <ele>188.60000610352</ele>
        <time>2011-08-16T12:38:24.000Z</time>
      </trkpt>
      <trkpt lat="48.75943" lon="1.79295">
        <ele>188.80000305176</ele>
        <time>2011-08-16T12:38:28.000Z</time>
      </trkpt>
      <trkpt lat="48.75941" lon="1.79269">
        <ele>189.19999694824</ele>
        <time>2011-08-16T12:38:33.000Z</time>
      </trkpt>
      <trkpt lat="48.75941" lon="1.79244">
        <ele>189.60000610352</ele>
        <time>2011-08-16T12:38:38.000Z</time>
      </trkpt>
      <trkpt lat="48.75939" lon="1.79214">
        <ele>190.19999694824</ele>
        <time>2011-08-16T12:38:44.000Z</time>
      </trkpt>
      <trkpt lat="48.75938" lon="1.79188">
        <ele>190.60000610352</ele>
        <time>2011-08-16T12:38:49.000Z</time>
      </trkpt>
      <trkpt lat="48.75935" lon="1.79152">
        <ele>191.19999694824</ele>
        <time>2011-08-16T12:38:55.000Z</time>
      </trkpt>
      <trkpt lat="48.75934" lon="1.79116">
        <ele>191.19999694824</ele>
        <time>2011-08-16T12:39:02.000Z</time>
      </trkpt>
      <trkpt lat="48.75932" lon="1.79091">
        <ele>191.19999694824</ele>
        <time>2011-08-16T12:39:06.000Z</time>
      </trkpt>
      <trkpt lat="48.7593" lon="1.79062">
        <ele>191.19999694824</ele>
        <time>2011-08-16T12:39:11.000Z</time>
      </trkpt>
      <trkpt lat="48.75926" lon="1.79027">
        <ele>191.19999694824</ele>
        <time>2011-08-16T12:39:17.000Z</time>
      </trkpt>
      <trkpt lat="48.75926" lon="1.79007">
        <ele>191.19999694824</ele>
        <time>2011-08-16T12:39:21.000Z</time>
      </trkpt>
      <trkpt lat="48.75926" lon="1.78985">
        <ele>191.60000610352</ele>
        <time>2011-08-16T12:39:26.000Z</time>
      </trkpt>
      <trkpt lat="48.75925" lon="1.78972">
        <ele>191.80000305176</ele>
        <time>2011-08-16T12:39:31.000Z</time>
      </trkpt>
      <trkpt lat="48.75926" lon="1.78971">
        <ele>191.80000305176</ele>
        <time>2011-08-16T12:39:32.000Z</time>
      </trkpt>
      <trkpt lat="48.75924" lon="1.78961">
        <ele>192</ele>
        <time>2011-08-16T12:39:39.000Z</time>
      </trkpt>
      <trkpt lat="48.7592" lon="1.78957">
        <ele>192</ele>
        <time>2011-08-16T12:39:44.000Z</time>
      </trkpt>
      <trkpt lat="48.75919" lon="1.78953">
        <ele>192</ele>
        <time>2011-08-16T12:39:47.000Z</time>
      </trkpt>
      <trkpt lat="48.75921" lon="1.78941">
        <ele>192.39999389648</ele>
        <time>2011-08-16T12:39:51.000Z</time>
      </trkpt>
      <trkpt lat="48.75921" lon="1.78918">
        <ele>192.80000305176</ele>
        <time>2011-08-16T12:39:57.000Z</time>
      </trkpt>
      <trkpt lat="48.75921" lon="1.78915">
        <ele>193</ele>
        <time>2011-08-16T12:39:58.000Z</time>
      </trkpt>
      <trkpt lat="48.75921" lon="1.78905">
        <ele>193</ele>
        <time>2011-08-16T12:40:04.000Z</time>
      </trkpt>
      <trkpt lat="48.75915" lon="1.78902">
        <ele>193</ele>
        <time>2011-08-16T12:40:17.000Z</time>
      </trkpt>
      <trkpt lat="48.75914" lon="1.78903">
        <ele>193</ele>
        <time>2011-08-16T12:40:21.000Z</time>
      </trkpt>
      <trkpt lat="48.75915" lon="1.78901">
        <ele>193</ele>
        <time>2011-08-16T12:40:24.000Z</time>
      </trkpt>
      <trkpt lat="48.75917" lon="1.78893">
        <ele>193.19999694824</ele>
        <time>2011-08-16T12:40:25.000Z</time>
      </trkpt>
      <trkpt lat="48.75918" lon="1.78882">
        <ele>193.39999389648</ele>
        <time>2011-08-16T12:40:30.000Z</time>
      </trkpt>
      <trkpt lat="48.7592" lon="1.78871">
        <ele>193.39999389648</ele>
        <time>2011-08-16T12:40:35.000Z</time>
      </trkpt>
      <trkpt lat="48.7592" lon="1.78868">
        <ele>193.39999389648</ele>
        <time>2011-08-16T12:40:36.000Z</time>
      </trkpt>
      <trkpt lat="48.7592" lon="1.78855">
        <ele>193.60000610352</ele>
        <time>2011-08-16T12:40:42.000Z</time>
      </trkpt>
      <trkpt lat="48.7592" lon="1.7885">
        <ele>193.60000610352</ele>
        <time>2011-08-16T12:40:45.000Z</time>
      </trkpt>
      <trkpt lat="48.7592" lon="1.78844">
        <ele>193.80000305176</ele>
        <time>2011-08-16T12:40:49.000Z</time>
      </trkpt>
      <trkpt lat="48.7592" lon="1.78829">
        <ele>193.80000305176</ele>
        <time>2011-08-16T12:40:56.000Z</time>
      </trkpt>
      <trkpt lat="48.75919" lon="1.78817">
        <ele>193.80000305176</ele>
        <time>2011-08-16T12:41:04.000Z</time>
      </trkpt>
      <trkpt lat="48.75919" lon="1.78814">
        <ele>193.80000305176</ele>
        <time>2011-08-16T12:41:05.000Z</time>
      </trkpt>
      <trkpt lat="48.75917" lon="1.78799">
        <ele>193.80000305176</ele>
        <time>2011-08-16T12:41:12.000Z</time>
      </trkpt>
      <trkpt lat="48.75914" lon="1.78781">
        <ele>193.80000305176</ele>
        <time>2011-08-16T12:41:20.000Z</time>
      </trkpt>
      <trkpt lat="48.75914" lon="1.78761">
        <ele>193.80000305176</ele>
        <time>2011-08-16T12:41:26.000Z</time>
      </trkpt>
      <trkpt lat="48.75913" lon="1.78749">
        <ele>193.80000305176</ele>
        <time>2011-08-16T12:41:33.000Z</time>
      </trkpt>
      <trkpt lat="48.75913" lon="1.78745">
        <ele>193.80000305176</ele>
        <time>2011-08-16T12:41:35.000Z</time>
      </trkpt>
      <trkpt lat="48.75911" lon="1.78724">
        <ele>193</ele>
        <time>2011-08-16T12:41:44.000Z</time>
      </trkpt>
      <trkpt lat="48.7591" lon="1.78719">
        <ele>192.80000305176</ele>
        <time>2011-08-16T12:41:46.000Z</time>
      </trkpt>
      <trkpt lat="48.75911" lon="1.78713">
        <ele>192.60000610352</ele>
        <time>2011-08-16T12:41:49.000Z</time>
      </trkpt>
      <trkpt lat="48.75911" lon="1.78695">
        <ele>192</ele>
        <time>2011-08-16T12:41:56.000Z</time>
      </trkpt>
      <trkpt lat="48.75911" lon="1.78683">
        <ele>191.60000610352</ele>
        <time>2011-08-16T12:42:01.000Z</time>
      </trkpt>
      <trkpt lat="48.7591" lon="1.78679">
        <ele>191.39999389648</ele>
        <time>2011-08-16T12:42:03.000Z</time>
      </trkpt>
      <trkpt lat="48.75909" lon="1.78669">
        <ele>191</ele>
        <time>2011-08-16T12:42:07.000Z</time>
      </trkpt>
      <trkpt lat="48.75907" lon="1.78651">
        <ele>191.39999389648</ele>
        <time>2011-08-16T12:42:15.000Z</time>
      </trkpt>
      <trkpt lat="48.75907" lon="1.78639">
        <ele>191.60000610352</ele>
        <time>2011-08-16T12:42:21.000Z</time>
      </trkpt>
      <trkpt lat="48.75906" lon="1.78633">
        <ele>191.80000305176</ele>
        <time>2011-08-16T12:42:24.000Z</time>
      </trkpt>
      <trkpt lat="48.75905" lon="1.78618">
        <ele>192</ele>
        <time>2011-08-16T12:42:30.000Z</time>
      </trkpt>
      <trkpt lat="48.75901" lon="1.78603">
        <ele>192.39999389648</ele>
        <time>2011-08-16T12:42:38.000Z</time>
      </trkpt>
      <trkpt lat="48.75904" lon="1.78588">
        <ele>192.60000610352</ele>
        <time>2011-08-16T12:42:45.000Z</time>
      </trkpt>
      <trkpt lat="48.75903" lon="1.78572">
        <ele>193</ele>
        <time>2011-08-16T12:42:50.000Z</time>
      </trkpt>
      <trkpt lat="48.75901" lon="1.78563">
        <ele>193.19999694824</ele>
        <time>2011-08-16T12:42:53.000Z</time>
      </trkpt>
      <trkpt lat="48.75902" lon="1.78549">
        <ele>193.60000610352</ele>
        <time>2011-08-16T12:42:58.000Z</time>
      </trkpt>
      <trkpt lat="48.75901" lon="1.78542">
        <ele>193.80000305176</ele>
        <time>2011-08-16T12:43:01.000Z</time>
      </trkpt>
      <trkpt lat="48.75901" lon="1.78531">
        <ele>194</ele>
        <time>2011-08-16T12:43:05.000Z</time>
      </trkpt>
      <trkpt lat="48.75899" lon="1.78519">
        <ele>194.19999694824</ele>
        <time>2011-08-16T12:43:11.000Z</time>
      </trkpt>
      <trkpt lat="48.75897" lon="1.78506">
        <ele>194.60000610352</ele>
        <time>2011-08-16T12:43:17.000Z</time>
      </trkpt>
      <trkpt lat="48.75898" lon="1.78497">
        <ele>194.60000610352</ele>
        <time>2011-08-16T12:43:21.000Z</time>
      </trkpt>
      <trkpt lat="48.75899" lon="1.78492">
        <ele>194.80000305176</ele>
        <time>2011-08-16T12:43:24.000Z</time>
      </trkpt>
      <trkpt lat="48.75898" lon="1.78481">
        <ele>194.80000305176</ele>
        <time>2011-08-16T12:43:30.000Z</time>
      </trkpt>
      <trkpt lat="48.75897" lon="1.78472">
        <ele>194.80000305176</ele>
        <time>2011-08-16T12:43:34.000Z</time>
      </trkpt>
      <trkpt lat="48.75897" lon="1.78457">
        <ele>194.80000305176</ele>
        <time>2011-08-16T12:43:40.000Z</time>
      </trkpt>
      <trkpt lat="48.75896" lon="1.78446">
        <ele>194.80000305176</ele>
        <time>2011-08-16T12:43:44.000Z</time>
      </trkpt>
      <trkpt lat="48.75895" lon="1.78439">
        <ele>194.80000305176</ele>
        <time>2011-08-16T12:43:47.000Z</time>
      </trkpt>
      <trkpt lat="48.75896" lon="1.78427">
        <ele>194.80000305176</ele>
        <time>2011-08-16T12:43:52.000Z</time>
      </trkpt>
      <trkpt lat="48.75894" lon="1.7842">
        <ele>194.80000305176</ele>
        <time>2011-08-16T12:43:55.000Z</time>
      </trkpt>
      <trkpt lat="48.75892" lon="1.7841">
        <ele>195</ele>
        <time>2011-08-16T12:43:59.000Z</time>
      </trkpt>
      <trkpt lat="48.75893" lon="1.78396">
        <ele>195</ele>
        <time>2011-08-16T12:44:05.000Z</time>
      </trkpt>
      <trkpt lat="48.75893" lon="1.78389">
        <ele>195</ele>
        <time>2011-08-16T12:44:08.000Z</time>
      </trkpt>
      <trkpt lat="48.75893" lon="1.78381">
        <ele>195</ele>
        <time>2011-08-16T12:44:12.000Z</time>
      </trkpt>
      <trkpt lat="48.75891" lon="1.78368">
        <ele>195</ele>
        <time>2011-08-16T12:44:17.000Z</time>
      </trkpt>
      <trkpt lat="48.75891" lon="1.78357">
        <ele>195</ele>
        <time>2011-08-16T12:44:22.000Z</time>
      </trkpt>
      <trkpt lat="48.7589" lon="1.78343">
        <ele>195</ele>
        <time>2011-08-16T12:44:27.000Z</time>
      </trkpt>
      <trkpt lat="48.75891" lon="1.78326">
        <ele>195</ele>
        <time>2011-08-16T12:44:34.000Z</time>
      </trkpt>
      <trkpt lat="48.75891" lon="1.78313">
        <ele>195</ele>
        <time>2011-08-16T12:44:40.000Z</time>
      </trkpt>
      <trkpt lat="48.75889" lon="1.78303">
        <ele>195</ele>
        <time>2011-08-16T12:44:45.000Z</time>
      </trkpt>
      <trkpt lat="48.75889" lon="1.78291">
        <ele>195</ele>
        <time>2011-08-16T12:44:51.000Z</time>
      </trkpt>
      <trkpt lat="48.75887" lon="1.78279">
        <ele>195</ele>
        <time>2011-08-16T12:44:56.000Z</time>
      </trkpt>
      <trkpt lat="48.75885" lon="1.78266">
        <ele>195</ele>
        <time>2011-08-16T12:45:02.000Z</time>
      </trkpt>
      <trkpt lat="48.75884" lon="1.78256">
        <ele>195.19999694824</ele>
        <time>2011-08-16T12:45:07.000Z</time>
      </trkpt>
      <trkpt lat="48.75885" lon="1.78241">
        <ele>195.19999694824</ele>
        <time>2011-08-16T12:45:13.000Z</time>
      </trkpt>
      <trkpt lat="48.75888" lon="1.78223">
        <ele>195.39999389648</ele>
        <time>2011-08-16T12:45:20.000Z</time>
      </trkpt>
      <trkpt lat="48.75887" lon="1.78206">
        <ele>195.39999389648</ele>
        <time>2011-08-16T12:45:27.000Z</time>
      </trkpt>
      <trkpt lat="48.75887" lon="1.78203">
        <ele>195.39999389648</ele>
        <time>2011-08-16T12:45:28.000Z</time>
      </trkpt>
      <trkpt lat="48.75887" lon="1.78195">
        <ele>195.39999389648</ele>
        <time>2011-08-16T12:45:32.000Z</time>
      </trkpt>
      <trkpt lat="48.75885" lon="1.78176">
        <ele>195.39999389648</ele>
        <time>2011-08-16T12:45:39.000Z</time>
      </trkpt>
      <trkpt lat="48.75885" lon="1.78168">
        <ele>195.60000610352</ele>
        <time>2011-08-16T12:45:43.000Z</time>
      </trkpt>
      <trkpt lat="48.75885" lon="1.78166">
        <ele>195.60000610352</ele>
        <time>2011-08-16T12:45:44.000Z</time>
      </trkpt>
      <trkpt lat="48.75885" lon="1.78155">
        <ele>195.39999389648</ele>
        <time>2011-08-16T12:45:50.000Z</time>
      </trkpt>
      <trkpt lat="48.75884" lon="1.78144">
        <ele>195.19999694824</ele>
        <time>2011-08-16T12:45:54.000Z</time>
      </trkpt>
      <trkpt lat="48.75884" lon="1.78124">
        <ele>195</ele>
        <time>2011-08-16T12:46:01.000Z</time>
      </trkpt>
      <trkpt lat="48.75883" lon="1.7811">
        <ele>195</ele>
        <time>2011-08-16T12:46:06.000Z</time>
      </trkpt>
      <trkpt lat="48.75884" lon="1.78101">
        <ele>194.80000305176</ele>
        <time>2011-08-16T12:46:11.000Z</time>
      </trkpt>
      <trkpt lat="48.75884" lon="1.78097">
        <ele>194.80000305176</ele>
        <time>2011-08-16T12:46:13.000Z</time>
      </trkpt>
      <trkpt lat="48.75881" lon="1.78081">
        <ele>194.80000305176</ele>
        <time>2011-08-16T12:46:21.000Z</time>
      </trkpt>
      <trkpt lat="48.75881" lon="1.78067">
        <ele>194.80000305176</ele>
        <time>2011-08-16T12:46:27.000Z</time>
      </trkpt>
      <trkpt lat="48.75881" lon="1.78054">
        <ele>195</ele>
        <time>2011-08-16T12:46:32.000Z</time>
      </trkpt>
      <trkpt lat="48.75881" lon="1.78051">
        <ele>195</ele>
        <time>2011-08-16T12:46:33.000Z</time>
      </trkpt>
      <trkpt lat="48.75875" lon="1.78041">
        <ele>195.19999694824</ele>
        <time>2011-08-16T12:46:39.000Z</time>
      </trkpt>
      <trkpt lat="48.75872" lon="1.78028">
        <ele>195.19999694824</ele>
        <time>2011-08-16T12:46:46.000Z</time>
      </trkpt>
      <trkpt lat="48.75872" lon="1.78015">
        <ele>195.19999694824</ele>
        <time>2011-08-16T12:46:52.000Z</time>
      </trkpt>
      <trkpt lat="48.75871" lon="1.77995">
        <ele>195.19999694824</ele>
        <time>2011-08-16T12:47:00.000Z</time>
      </trkpt>
      <trkpt lat="48.75873" lon="1.77982">
        <ele>195.19999694824</ele>
        <time>2011-08-16T12:47:05.000Z</time>
      </trkpt>
      <trkpt lat="48.75873" lon="1.7797">
        <ele>195</ele>
        <time>2011-08-16T12:47:11.000Z</time>
      </trkpt>
      <trkpt lat="48.75874" lon="1.77959">
        <ele>195</ele>
        <time>2011-08-16T12:47:16.000Z</time>
      </trkpt>
      <trkpt lat="48.75874" lon="1.77946">
        <ele>194.80000305176</ele>
        <time>2011-08-16T12:47:21.000Z</time>
      </trkpt>
      <trkpt lat="48.75873" lon="1.77934">
        <ele>194.60000610352</ele>
        <time>2011-08-16T12:47:26.000Z</time>
      </trkpt>
      <trkpt lat="48.75873" lon="1.77919">
        <ele>194.39999389648</ele>
        <time>2011-08-16T12:47:32.000Z</time>
      </trkpt>
      <trkpt lat="48.75873" lon="1.77902">
        <ele>194.60000610352</ele>
        <time>2011-08-16T12:47:40.000Z</time>
      </trkpt>
      <trkpt lat="48.75873" lon="1.77884">
        <ele>194.60000610352</ele>
        <time>2011-08-16T12:47:47.000Z</time>
      </trkpt>
      <trkpt lat="48.75871" lon="1.77873">
        <ele>194.80000305176</ele>
        <time>2011-08-16T12:47:52.000Z</time>
      </trkpt>
      <trkpt lat="48.75869" lon="1.7786">
        <ele>194.80000305176</ele>
        <time>2011-08-16T12:47:58.000Z</time>
      </trkpt>
      <trkpt lat="48.75869" lon="1.77845">
        <ele>195</ele>
        <time>2011-08-16T12:48:04.000Z</time>
      </trkpt>
      <trkpt lat="48.75869" lon="1.77838">
        <ele>195</ele>
        <time>2011-08-16T12:48:07.000Z</time>
      </trkpt>
      <trkpt lat="48.75869" lon="1.77834">
        <ele>195</ele>
        <time>2011-08-16T12:48:09.000Z</time>
      </trkpt>
      <trkpt lat="48.7587" lon="1.77829">
        <ele>195</ele>
        <time>2011-08-16T12:48:12.000Z</time>
      </trkpt>
      <trkpt lat="48.75868" lon="1.77813">
        <ele>194.80000305176</ele>
        <time>2011-08-16T12:48:20.000Z</time>
      </trkpt>
      <trkpt lat="48.75868" lon="1.7781">
        <ele>194.80000305176</ele>
        <time>2011-08-16T12:48:22.000Z</time>
      </trkpt>
      <trkpt lat="48.75868" lon="1.778">
        <ele>194.80000305176</ele>
        <time>2011-08-16T12:48:27.000Z</time>
      </trkpt>
      <trkpt lat="48.75867" lon="1.77789">
        <ele>194.60000610352</ele>
        <time>2011-08-16T12:48:33.000Z</time>
      </trkpt>
      <trkpt lat="48.75866" lon="1.77769">
        <ele>194.39999389648</ele>
        <time>2011-08-16T12:48:42.000Z</time>
      </trkpt>
      <trkpt lat="48.75867" lon="1.77759">
        <ele>194.39999389648</ele>
        <time>2011-08-16T12:48:47.000Z</time>
      </trkpt>
      <trkpt lat="48.75866" lon="1.77749">
        <ele>194.19999694824</ele>
        <time>2011-08-16T12:48:53.000Z</time>
      </trkpt>
      <trkpt lat="48.75866" lon="1.77741">
        <ele>194</ele>
        <time>2011-08-16T12:48:58.000Z</time>
      </trkpt>
      <trkpt lat="48.75864" lon="1.77735">
        <ele>194</ele>
        <time>2011-08-16T12:49:05.000Z</time>
      </trkpt>
      <trkpt lat="48.75865" lon="1.77728">
        <ele>193.80000305176</ele>
        <time>2011-08-16T12:49:09.000Z</time>
      </trkpt>
      <trkpt lat="48.75864" lon="1.77725">
        <ele>193.60000610352</ele>
        <time>2011-08-16T12:49:11.000Z</time>
      </trkpt>
      <trkpt lat="48.75861" lon="1.77711">
        <ele>193.19999694824</ele>
        <time>2011-08-16T12:49:19.000Z</time>
      </trkpt>
      <trkpt lat="48.75861" lon="1.77707">
        <ele>193.19999694824</ele>
        <time>2011-08-16T12:49:21.000Z</time>
      </trkpt>
      <trkpt lat="48.75859" lon="1.77699">
        <ele>193</ele>
        <time>2011-08-16T12:49:26.000Z</time>
      </trkpt>
      <trkpt lat="48.75859" lon="1.77694">
        <ele>192.80000305176</ele>
        <time>2011-08-16T12:49:28.000Z</time>
      </trkpt>
      <trkpt lat="48.75859" lon="1.77683">
        <ele>192.60000610352</ele>
        <time>2011-08-16T12:49:33.000Z</time>
      </trkpt>
      <trkpt lat="48.75858" lon="1.77672">
        <ele>192.39999389648</ele>
        <time>2011-08-16T12:49:38.000Z</time>
      </trkpt>
      <trkpt lat="48.75856" lon="1.77655">
        <ele>192.19999694824</ele>
        <time>2011-08-16T12:49:45.000Z</time>
      </trkpt>
      <trkpt lat="48.75853" lon="1.77642">
        <ele>192.19999694824</ele>
        <time>2011-08-16T12:49:52.000Z</time>
      </trkpt>
      <trkpt lat="48.7585" lon="1.77626">
        <ele>192.19999694824</ele>
        <time>2011-08-16T12:49:59.000Z</time>
      </trkpt>
      <trkpt lat="48.7585" lon="1.7761">
        <ele>192.19999694824</ele>
        <time>2011-08-16T12:50:05.000Z</time>
      </trkpt>
      <trkpt lat="48.75848" lon="1.77595">
        <ele>192.19999694824</ele>
        <time>2011-08-16T12:50:12.000Z</time>
      </trkpt>
      <trkpt lat="48.75847" lon="1.77586">
        <ele>192.19999694824</ele>
        <time>2011-08-16T12:50:17.000Z</time>
      </trkpt>
      <trkpt lat="48.7585" lon="1.77572">
        <ele>192</ele>
        <time>2011-08-16T12:50:24.000Z</time>
      </trkpt>
      <trkpt lat="48.75849" lon="1.77564">
        <ele>192</ele>
        <time>2011-08-16T12:50:28.000Z</time>
      </trkpt>
      <trkpt lat="48.75845" lon="1.77552">
        <ele>191.60000610352</ele>
        <time>2011-08-16T12:50:35.000Z</time>
      </trkpt>
      <trkpt lat="48.75843" lon="1.77546">
        <ele>191.60000610352</ele>
        <time>2011-08-16T12:50:38.000Z</time>
      </trkpt>
      <trkpt lat="48.7584" lon="1.77536">
        <ele>191.39999389648</ele>
        <time>2011-08-16T12:50:43.000Z</time>
      </trkpt>
      <trkpt lat="48.75839" lon="1.77523">
        <ele>191.19999694824</ele>
        <time>2011-08-16T12:50:49.000Z</time>
      </trkpt>
      <trkpt lat="48.75839" lon="1.77506">
        <ele>191</ele>
        <time>2011-08-16T12:50:56.000Z</time>
      </trkpt>
      <trkpt lat="48.75839" lon="1.77502">
        <ele>190.80000305176</ele>
        <time>2011-08-16T12:50:58.000Z</time>
      </trkpt>
      <trkpt lat="48.75838" lon="1.77491">
        <ele>190.80000305176</ele>
        <time>2011-08-16T12:51:03.000Z</time>
      </trkpt>
      <trkpt lat="48.75836" lon="1.77475">
        <ele>190.60000610352</ele>
        <time>2011-08-16T12:51:11.000Z</time>
      </trkpt>
      <trkpt lat="48.75832" lon="1.77455">
        <ele>190.39999389648</ele>
        <time>2011-08-16T12:51:20.000Z</time>
      </trkpt>
      <trkpt lat="48.75831" lon="1.77436">
        <ele>190</ele>
        <time>2011-08-16T12:51:28.000Z</time>
      </trkpt>
      <trkpt lat="48.75828" lon="1.7742">
        <ele>189.80000305176</ele>
        <time>2011-08-16T12:51:37.000Z</time>
      </trkpt>
      <trkpt lat="48.75827" lon="1.77405">
        <ele>189.80000305176</ele>
        <time>2011-08-16T12:51:43.000Z</time>
      </trkpt>
      <trkpt lat="48.75826" lon="1.77393">
        <ele>189.80000305176</ele>
        <time>2011-08-16T12:51:49.000Z</time>
      </trkpt>
      <trkpt lat="48.75827" lon="1.77378">
        <ele>189.80000305176</ele>
        <time>2011-08-16T12:51:55.000Z</time>
      </trkpt>
      <trkpt lat="48.75826" lon="1.77376">
        <ele>189.80000305176</ele>
        <time>2011-08-16T12:51:57.000Z</time>
      </trkpt>
      <trkpt lat="48.75825" lon="1.77372">
        <ele>189.80000305176</ele>
        <time>2011-08-16T12:52:01.000Z</time>
      </trkpt>
      <trkpt lat="48.75823" lon="1.77369">
        <ele>189.60000610352</ele>
        <time>2011-08-16T12:52:03.000Z</time>
      </trkpt>
      <trkpt lat="48.75819" lon="1.77363">
        <ele>189.60000610352</ele>
        <time>2011-08-16T12:52:07.000Z</time>
      </trkpt>
      <trkpt lat="48.75818" lon="1.77354">
        <ele>189.60000610352</ele>
        <time>2011-08-16T12:52:11.000Z</time>
      </trkpt>
      <trkpt lat="48.75815" lon="1.77336">
        <ele>189.39999389648</ele>
        <time>2011-08-16T12:52:19.000Z</time>
      </trkpt>
      <trkpt lat="48.75815" lon="1.77333">
        <ele>189.39999389648</ele>
        <time>2011-08-16T12:52:20.000Z</time>
      </trkpt>
      <trkpt lat="48.75814" lon="1.77321">
        <ele>189.60000610352</ele>
        <time>2011-08-16T12:52:25.000Z</time>
      </trkpt>
      <trkpt lat="48.75815" lon="1.77311">
        <ele>189.80000305176</ele>
        <time>2011-08-16T12:52:29.000Z</time>
      </trkpt>
      <trkpt lat="48.75814" lon="1.77299">
        <ele>189.80000305176</ele>
        <time>2011-08-16T12:52:34.000Z</time>
      </trkpt>
      <trkpt lat="48.75811" lon="1.77296">
        <ele>189.80000305176</ele>
        <time>2011-08-16T12:52:37.000Z</time>
      </trkpt>
      <trkpt lat="48.75809" lon="1.77285">
        <ele>189.80000305176</ele>
        <time>2011-08-16T12:52:43.000Z</time>
      </trkpt>
      <trkpt lat="48.75807" lon="1.77271">
        <ele>189.80000305176</ele>
        <time>2011-08-16T12:52:50.000Z</time>
      </trkpt>
      <trkpt lat="48.75805" lon="1.77261">
        <ele>189.80000305176</ele>
        <time>2011-08-16T12:52:55.000Z</time>
      </trkpt>
      <trkpt lat="48.75806" lon="1.77241">
        <ele>190</ele>
        <time>2011-08-16T12:53:04.000Z</time>
      </trkpt>
      <trkpt lat="48.75802" lon="1.77233">
        <ele>189.80000305176</ele>
        <time>2011-08-16T12:53:09.000Z</time>
      </trkpt>
      <trkpt lat="48.75799" lon="1.77217">
        <ele>189.60000610352</ele>
        <time>2011-08-16T12:53:17.000Z</time>
      </trkpt>
      <trkpt lat="48.758" lon="1.77209">
        <ele>189.80000305176</ele>
        <time>2011-08-16T12:53:20.000Z</time>
      </trkpt>
      <trkpt lat="48.75802" lon="1.77194">
        <ele>190</ele>
        <time>2011-08-16T12:53:27.000Z</time>
      </trkpt>
      <trkpt lat="48.75802" lon="1.77179">
        <ele>190.19999694824</ele>
        <time>2011-08-16T12:53:34.000Z</time>
      </trkpt>
      <trkpt lat="48.75802" lon="1.77175">
        <ele>190.19999694824</ele>
        <time>2011-08-16T12:53:36.000Z</time>
      </trkpt>
      <trkpt lat="48.75799" lon="1.77158">
        <ele>190</ele>
        <time>2011-08-16T12:53:44.000Z</time>
      </trkpt>
      <trkpt lat="48.75797" lon="1.77142">
        <ele>189.80000305176</ele>
        <time>2011-08-16T12:53:52.000Z</time>
      </trkpt>
      <trkpt lat="48.75798" lon="1.77125">
        <ele>189.80000305176</ele>
        <time>2011-08-16T12:53:58.000Z</time>
      </trkpt>
      <trkpt lat="48.75798" lon="1.77122">
        <ele>189.80000305176</ele>
        <time>2011-08-16T12:53:59.000Z</time>
      </trkpt>
      <trkpt lat="48.75799" lon="1.77103">
        <ele>189.80000305176</ele>
        <time>2011-08-16T12:54:07.000Z</time>
      </trkpt>
      <trkpt lat="48.75799" lon="1.771">
        <ele>189.80000305176</ele>
        <time>2011-08-16T12:54:08.000Z</time>
      </trkpt>
      <trkpt lat="48.75799" lon="1.77085">
        <ele>189.80000305176</ele>
        <time>2011-08-16T12:54:14.000Z</time>
      </trkpt>
      <trkpt lat="48.75798" lon="1.77072">
        <ele>189.80000305176</ele>
        <time>2011-08-16T12:54:20.000Z</time>
      </trkpt>
      <trkpt lat="48.75795" lon="1.77064">
        <ele>189.39999389648</ele>
        <time>2011-08-16T12:54:24.000Z</time>
      </trkpt>
      <trkpt lat="48.75794" lon="1.77053">
        <ele>189.39999389648</ele>
        <time>2011-08-16T12:54:30.000Z</time>
      </trkpt>
      <trkpt lat="48.75792" lon="1.7704">
        <ele>189.19999694824</ele>
        <time>2011-08-16T12:54:36.000Z</time>
      </trkpt>
      <trkpt lat="48.75791" lon="1.77028">
        <ele>189</ele>
        <time>2011-08-16T12:54:41.000Z</time>
      </trkpt>
      <trkpt lat="48.75791" lon="1.77013">
        <ele>189</ele>
        <time>2011-08-16T12:54:48.000Z</time>
      </trkpt>
      <trkpt lat="48.7579" lon="1.77001">
        <ele>188.80000305176</ele>
        <time>2011-08-16T12:54:53.000Z</time>
      </trkpt>
      <trkpt lat="48.7579" lon="1.76993">
        <ele>188.80000305176</ele>
        <time>2011-08-16T12:54:57.000Z</time>
      </trkpt>
      <trkpt lat="48.75786" lon="1.76972">
        <ele>188.39999389648</ele>
        <time>2011-08-16T12:55:06.000Z</time>
      </trkpt>
      <trkpt lat="48.75785" lon="1.76957">
        <ele>188.19999694824</ele>
        <time>2011-08-16T12:55:12.000Z</time>
      </trkpt>
      <trkpt lat="48.75783" lon="1.76936">
        <ele>188</ele>
        <time>2011-08-16T12:55:22.000Z</time>
      </trkpt>
      <trkpt lat="48.75783" lon="1.76934">
        <ele>188</ele>
        <time>2011-08-16T12:55:23.000Z</time>
      </trkpt>
      <trkpt lat="48.75782" lon="1.76926">
        <ele>187.80000305176</ele>
        <time>2011-08-16T12:55:27.000Z</time>
      </trkpt>
      <trkpt lat="48.75783" lon="1.7691">
        <ele>188</ele>
        <time>2011-08-16T12:55:35.000Z</time>
      </trkpt>
      <trkpt lat="48.75781" lon="1.76898">
        <ele>188.19999694824</ele>
        <time>2011-08-16T12:55:40.000Z</time>
      </trkpt>
      <trkpt lat="48.75781" lon="1.76882">
        <ele>188.39999389648</ele>
        <time>2011-08-16T12:55:47.000Z</time>
      </trkpt>
      <trkpt lat="48.75782" lon="1.7687">
        <ele>188.80000305176</ele>
        <time>2011-08-16T12:55:53.000Z</time>
      </trkpt>
      <trkpt lat="48.75775" lon="1.76857">
        <ele>188.60000610352</ele>
        <time>2011-08-16T12:55:58.000Z</time>
      </trkpt>
      <trkpt lat="48.75766" lon="1.76846">
        <ele>188.39999389648</ele>
        <time>2011-08-16T12:56:04.000Z</time>
      </trkpt>
      <trkpt lat="48.75755" lon="1.76842">
        <ele>188</ele>
        <time>2011-08-16T12:56:11.000Z</time>
      </trkpt>
      <trkpt lat="48.75743" lon="1.76839">
        <ele>187.60000610352</ele>
        <time>2011-08-16T12:56:19.000Z</time>
      </trkpt>
      <trkpt lat="48.7573" lon="1.76836">
        <ele>187.19999694824</ele>
        <time>2011-08-16T12:56:28.000Z</time>
      </trkpt>
      <trkpt lat="48.75722" lon="1.76836">
        <ele>186.80000305176</ele>
        <time>2011-08-16T12:56:34.000Z</time>
      </trkpt>
      <trkpt lat="48.7572" lon="1.76836">
        <ele>186.80000305176</ele>
        <time>2011-08-16T12:56:38.000Z</time>
      </trkpt>
      <trkpt lat="48.75714" lon="1.76838">
        <ele>186.60000610352</ele>
        <time>2011-08-16T12:56:44.000Z</time>
      </trkpt>
      <trkpt lat="48.75707" lon="1.76838">
        <ele>186.19999694824</ele>
        <time>2011-08-16T12:56:47.000Z</time>
      </trkpt>
      <trkpt lat="48.75703" lon="1.76836">
        <ele>186.19999694824</ele>
        <time>2011-08-16T12:56:50.000Z</time>
      </trkpt>
      <trkpt lat="48.75696" lon="1.76832">
        <ele>186</ele>
        <time>2011-08-16T12:56:56.000Z</time>
      </trkpt>
      <trkpt lat="48.75688" lon="1.76829">
        <ele>185.80000305176</ele>
        <time>2011-08-16T12:57:01.000Z</time>
      </trkpt>
      <trkpt lat="48.75679" lon="1.76827">
        <ele>185.60000610352</ele>
        <time>2011-08-16T12:57:05.000Z</time>
      </trkpt>
      <trkpt lat="48.75664" lon="1.76823">
        <ele>185.19999694824</ele>
        <time>2011-08-16T12:57:13.000Z</time>
      </trkpt>
      <trkpt lat="48.75652" lon="1.76822">
        <ele>185.19999694824</ele>
        <time>2011-08-16T12:57:19.000Z</time>
      </trkpt>
      <trkpt lat="48.75647" lon="1.76821">
        <ele>185.39999389648</ele>
        <time>2011-08-16T12:57:22.000Z</time>
      </trkpt>
      <trkpt lat="48.75637" lon="1.76816">
        <ele>185.39999389648</ele>
        <time>2011-08-16T12:57:29.000Z</time>
      </trkpt>
      <trkpt lat="48.75625" lon="1.76812">
        <ele>185.60000610352</ele>
        <time>2011-08-16T12:57:37.000Z</time>
      </trkpt>
      <trkpt lat="48.75618" lon="1.76808">
        <ele>185.60000610352</ele>
        <time>2011-08-16T12:57:42.000Z</time>
      </trkpt>
      <trkpt lat="48.75617" lon="1.76807">
        <ele>185.60000610352</ele>
        <time>2011-08-16T12:57:43.000Z</time>
      </trkpt>
      <trkpt lat="48.7561" lon="1.76803">
        <ele>185.80000305176</ele>
        <time>2011-08-16T12:57:48.000Z</time>
      </trkpt>
      <trkpt lat="48.75601" lon="1.76803">
        <ele>185.80000305176</ele>
        <time>2011-08-16T12:57:53.000Z</time>
      </trkpt>
      <trkpt lat="48.75591" lon="1.76801">
        <ele>185.80000305176</ele>
        <time>2011-08-16T12:58:00.000Z</time>
      </trkpt>
      <trkpt lat="48.75582" lon="1.76796">
        <ele>185.80000305176</ele>
        <time>2011-08-16T12:58:06.000Z</time>
      </trkpt>
      <trkpt lat="48.75572" lon="1.76791">
        <ele>185.80000305176</ele>
        <time>2011-08-16T12:58:12.000Z</time>
      </trkpt>
      <trkpt lat="48.75563" lon="1.76791">
        <ele>185.80000305176</ele>
        <time>2011-08-16T12:58:17.000Z</time>
      </trkpt>
      <trkpt lat="48.75554" lon="1.76788">
        <ele>185.80000305176</ele>
        <time>2011-08-16T12:58:23.000Z</time>
      </trkpt>
      <trkpt lat="48.75545" lon="1.76786">
        <ele>185.80000305176</ele>
        <time>2011-08-16T12:58:29.000Z</time>
      </trkpt>
      <trkpt lat="48.75532" lon="1.76782">
        <ele>186</ele>
        <time>2011-08-16T12:58:37.000Z</time>
      </trkpt>
      <trkpt lat="48.75526" lon="1.7678">
        <ele>186.19999694824</ele>
        <time>2011-08-16T12:58:43.000Z</time>
      </trkpt>
      <trkpt lat="48.75518" lon="1.76778">
        <ele>186.19999694824</ele>
        <time>2011-08-16T12:58:51.000Z</time>
      </trkpt>
      <trkpt lat="48.75511" lon="1.76774">
        <ele>186.39999389648</ele>
        <time>2011-08-16T12:58:56.000Z</time>
      </trkpt>
      <trkpt lat="48.75504" lon="1.76771">
        <ele>186.60000610352</ele>
        <time>2011-08-16T12:59:02.000Z</time>
      </trkpt>
      <trkpt lat="48.75494" lon="1.7677">
        <ele>186.80000305176</ele>
        <time>2011-08-16T12:59:08.000Z</time>
      </trkpt>
      <trkpt lat="48.75492" lon="1.7677">
        <ele>186.80000305176</ele>
        <time>2011-08-16T12:59:09.000Z</time>
      </trkpt>
      <trkpt lat="48.75487" lon="1.76766">
        <ele>187</ele>
        <time>2011-08-16T12:59:13.000Z</time>
      </trkpt>
      <trkpt lat="48.75471" lon="1.76761">
        <ele>187.39999389648</ele>
        <time>2011-08-16T12:59:24.000Z</time>
      </trkpt>
      <trkpt lat="48.75456" lon="1.76757">
        <ele>187.60000610352</ele>
        <time>2011-08-16T12:59:34.000Z</time>
      </trkpt>
      <trkpt lat="48.75443" lon="1.76752">
        <ele>187.80000305176</ele>
        <time>2011-08-16T12:59:43.000Z</time>
      </trkpt>
      <trkpt lat="48.7543" lon="1.76747">
        <ele>188</ele>
        <time>2011-08-16T12:59:52.000Z</time>
      </trkpt>
      <trkpt lat="48.75417" lon="1.76743">
        <ele>188.19999694824</ele>
        <time>2011-08-16T13:00:00.000Z</time>
      </trkpt>
      <trkpt lat="48.75405" lon="1.76739">
        <ele>188</ele>
        <time>2011-08-16T13:00:07.000Z</time>
      </trkpt>
      <trkpt lat="48.75395" lon="1.76735">
        <ele>188</ele>
        <time>2011-08-16T13:00:13.000Z</time>
      </trkpt>
      <trkpt lat="48.75387" lon="1.76733">
        <ele>187.80000305176</ele>
        <time>2011-08-16T13:00:18.000Z</time>
      </trkpt>
      <trkpt lat="48.75376" lon="1.76729">
        <ele>187.60000610352</ele>
        <time>2011-08-16T13:00:24.000Z</time>
      </trkpt>
      <trkpt lat="48.75365" lon="1.76725">
        <ele>187.60000610352</ele>
        <time>2011-08-16T13:00:31.000Z</time>
      </trkpt>
      <trkpt lat="48.75349" lon="1.76725">
        <ele>187.19999694824</ele>
        <time>2011-08-16T13:00:38.000Z</time>
      </trkpt>
      <trkpt lat="48.75344" lon="1.76722">
        <ele>187.19999694824</ele>
        <time>2011-08-16T13:00:43.000Z</time>
      </trkpt>
      <trkpt lat="48.75332" lon="1.76719">
        <ele>187</ele>
        <time>2011-08-16T13:00:49.000Z</time>
      </trkpt>
      <trkpt lat="48.75322" lon="1.76715">
        <ele>186.80000305176</ele>
        <time>2011-08-16T13:00:55.000Z</time>
      </trkpt>
      <trkpt lat="48.75321" lon="1.76714">
        <ele>186.80000305176</ele>
        <time>2011-08-16T13:00:56.000Z</time>
      </trkpt>
      <trkpt lat="48.75308" lon="1.76713">
        <ele>186.39999389648</ele>
        <time>2011-08-16T13:01:04.000Z</time>
      </trkpt>
      <trkpt lat="48.75296" lon="1.76709">
        <ele>186.19999694824</ele>
        <time>2011-08-16T13:01:12.000Z</time>
      </trkpt>
      <trkpt lat="48.75288" lon="1.76706">
        <ele>186.19999694824</ele>
        <time>2011-08-16T13:01:17.000Z</time>
      </trkpt>
      <trkpt lat="48.75281" lon="1.76704">
        <ele>186</ele>
        <time>2011-08-16T13:01:21.000Z</time>
      </trkpt>
      <trkpt lat="48.75271" lon="1.76701">
        <ele>185.80000305176</ele>
        <time>2011-08-16T13:01:27.000Z</time>
      </trkpt>
      <trkpt lat="48.75267" lon="1.767">
        <ele>185.80000305176</ele>
        <time>2011-08-16T13:01:29.000Z</time>
      </trkpt>
      <trkpt lat="48.75264" lon="1.76699">
        <ele>185.80000305176</ele>
        <time>2011-08-16T13:01:31.000Z</time>
      </trkpt>
      <trkpt lat="48.75257" lon="1.76699">
        <ele>185.60000610352</ele>
        <time>2011-08-16T13:01:36.000Z</time>
      </trkpt>
      <trkpt lat="48.75244" lon="1.76695">
        <ele>185.80000305176</ele>
        <time>2011-08-16T13:01:44.000Z</time>
      </trkpt>
      <trkpt lat="48.75234" lon="1.76692">
        <ele>186.39999389648</ele>
        <time>2011-08-16T13:01:51.000Z</time>
      </trkpt>
      <trkpt lat="48.75231" lon="1.7669">
        <ele>186.80000305176</ele>
        <time>2011-08-16T13:01:54.000Z</time>
      </trkpt>
      <trkpt lat="48.75224" lon="1.76689">
        <ele>187</ele>
        <time>2011-08-16T13:01:59.000Z</time>
      </trkpt>
      <trkpt lat="48.75213" lon="1.76692">
        <ele>187.39999389648</ele>
        <time>2011-08-16T13:02:07.000Z</time>
      </trkpt>
      <trkpt lat="48.75202" lon="1.76693">
        <ele>188</ele>
        <time>2011-08-16T13:02:13.000Z</time>
      </trkpt>
      <trkpt lat="48.75197" lon="1.76685">
        <ele>188.60000610352</ele>
        <time>2011-08-16T13:02:19.000Z</time>
      </trkpt>
      <trkpt lat="48.7519" lon="1.7668">
        <ele>189.19999694824</ele>
        <time>2011-08-16T13:02:25.000Z</time>
      </trkpt>
      <trkpt lat="48.75183" lon="1.76678">
        <ele>189.60000610352</ele>
        <time>2011-08-16T13:02:30.000Z</time>
      </trkpt>
      <trkpt lat="48.75172" lon="1.76671">
        <ele>190.39999389648</ele>
        <time>2011-08-16T13:02:38.000Z</time>
      </trkpt>
      <trkpt lat="48.75159" lon="1.76668">
        <ele>191</ele>
        <time>2011-08-16T13:02:46.000Z</time>
      </trkpt>
      <trkpt lat="48.7515" lon="1.76666">
        <ele>191.60000610352</ele>
        <time>2011-08-16T13:02:53.000Z</time>
      </trkpt>
      <trkpt lat="48.75144" lon="1.76665">
        <ele>191.80000305176</ele>
        <time>2011-08-16T13:02:57.000Z</time>
      </trkpt>
      <trkpt lat="48.75139" lon="1.76663">
        <ele>192</ele>
        <time>2011-08-16T13:03:01.000Z</time>
      </trkpt>
      <trkpt lat="48.7513" lon="1.76659">
        <ele>192.39999389648</ele>
        <time>2011-08-16T13:03:08.000Z</time>
      </trkpt>
      <trkpt lat="48.75119" lon="1.76654">
        <ele>193</ele>
        <time>2011-08-16T13:03:16.000Z</time>
      </trkpt>
      <trkpt lat="48.75112" lon="1.76653">
        <ele>193.19999694824</ele>
        <time>2011-08-16T13:03:20.000Z</time>
      </trkpt>
      <trkpt lat="48.75101" lon="1.76653">
        <ele>193.39999389648</ele>
        <time>2011-08-16T13:03:26.000Z</time>
      </trkpt>
      <trkpt lat="48.75092" lon="1.76652">
        <ele>193.80000305176</ele>
        <time>2011-08-16T13:03:31.000Z</time>
      </trkpt>
      <trkpt lat="48.75085" lon="1.76649">
        <ele>194</ele>
        <time>2011-08-16T13:03:35.000Z</time>
      </trkpt>
      <trkpt lat="48.7508" lon="1.76645">
        <ele>194.19999694824</ele>
        <time>2011-08-16T13:03:40.000Z</time>
      </trkpt>
      <trkpt lat="48.75078" lon="1.76644">
        <ele>194.19999694824</ele>
        <time>2011-08-16T13:03:42.000Z</time>
      </trkpt>
      <trkpt lat="48.75074" lon="1.76643">
        <ele>194.19999694824</ele>
        <time>2011-08-16T13:03:46.000Z</time>
      </trkpt>
      <trkpt lat="48.75067" lon="1.7664">
        <ele>194.19999694824</ele>
        <time>2011-08-16T13:03:52.000Z</time>
      </trkpt>
      <trkpt lat="48.75057" lon="1.76639">
        <ele>194.19999694824</ele>
        <time>2011-08-16T13:03:59.000Z</time>
      </trkpt>
      <trkpt lat="48.75056" lon="1.76637">
        <ele>194.19999694824</ele>
        <time>2011-08-16T13:04:00.000Z</time>
      </trkpt>
      <trkpt lat="48.75053" lon="1.76635">
        <ele>194.19999694824</ele>
        <time>2011-08-16T13:04:03.000Z</time>
      </trkpt>
      <trkpt lat="48.75036" lon="1.76642">
        <ele>194</ele>
        <time>2011-08-16T13:04:10.000Z</time>
      </trkpt>
      <trkpt lat="48.75029" lon="1.76645">
        <ele>194</ele>
        <time>2011-08-16T13:04:14.000Z</time>
      </trkpt>
      <trkpt lat="48.75022" lon="1.76642">
        <ele>194</ele>
        <time>2011-08-16T13:04:19.000Z</time>
      </trkpt>
      <trkpt lat="48.75018" lon="1.76633">
        <ele>194</ele>
        <time>2011-08-16T13:04:24.000Z</time>
      </trkpt>
      <trkpt lat="48.75014" lon="1.76626">
        <ele>194</ele>
        <time>2011-08-16T13:04:30.000Z</time>
      </trkpt>
      <trkpt lat="48.75004" lon="1.76619">
        <ele>194</ele>
        <time>2011-08-16T13:04:36.000Z</time>
      </trkpt>
      <trkpt lat="48.75" lon="1.76618">
        <ele>193.80000305176</ele>
        <time>2011-08-16T13:04:39.000Z</time>
      </trkpt>
      <trkpt lat="48.74989" lon="1.76618">
        <ele>193.80000305176</ele>
        <time>2011-08-16T13:04:44.000Z</time>
      </trkpt>
      <trkpt lat="48.7498" lon="1.76616">
        <ele>193.80000305176</ele>
        <time>2011-08-16T13:04:51.000Z</time>
      </trkpt>
      <trkpt lat="48.74972" lon="1.7661">
        <ele>193.80000305176</ele>
        <time>2011-08-16T13:04:57.000Z</time>
      </trkpt>
      <trkpt lat="48.74964" lon="1.76601">
        <ele>193.80000305176</ele>
        <time>2011-08-16T13:05:03.000Z</time>
      </trkpt>
      <trkpt lat="48.7496" lon="1.76602">
        <ele>193.80000305176</ele>
        <time>2011-08-16T13:05:07.000Z</time>
      </trkpt>
      <trkpt lat="48.74951" lon="1.76598">
        <ele>193.80000305176</ele>
        <time>2011-08-16T13:05:14.000Z</time>
      </trkpt>
      <trkpt lat="48.7495" lon="1.76597">
        <ele>193.80000305176</ele>
        <time>2011-08-16T13:05:15.000Z</time>
      </trkpt>
      <trkpt lat="48.74948" lon="1.76598">
        <ele>193.80000305176</ele>
        <time>2011-08-16T13:05:17.000Z</time>
      </trkpt>
      <trkpt lat="48.74934" lon="1.76606">
        <ele>193.60000610352</ele>
        <time>2011-08-16T13:05:25.000Z</time>
      </trkpt>
      <trkpt lat="48.74924" lon="1.76609">
        <ele>193.60000610352</ele>
        <time>2011-08-16T13:05:31.000Z</time>
      </trkpt>
      <trkpt lat="48.74912" lon="1.76607">
        <ele>193.60000610352</ele>
        <time>2011-08-16T13:05:37.000Z</time>
      </trkpt>
      <trkpt lat="48.74901" lon="1.76596">
        <ele>193.60000610352</ele>
        <time>2011-08-16T13:05:46.000Z</time>
      </trkpt>
      <trkpt lat="48.74891" lon="1.76594">
        <ele>193.60000610352</ele>
        <time>2011-08-16T13:05:51.000Z</time>
      </trkpt>
      <trkpt lat="48.74882" lon="1.7659">
        <ele>193.39999389648</ele>
        <time>2011-08-16T13:05:57.000Z</time>
      </trkpt>
      <trkpt lat="48.74877" lon="1.76586">
        <ele>193.39999389648</ele>
        <time>2011-08-16T13:06:01.000Z</time>
      </trkpt>
      <trkpt lat="48.74875" lon="1.76585">
        <ele>193.39999389648</ele>
        <time>2011-08-16T13:06:03.000Z</time>
      </trkpt>
      <trkpt lat="48.74867" lon="1.76583">
        <ele>193.39999389648</ele>
        <time>2011-08-16T13:06:07.000Z</time>
      </trkpt>
      <trkpt lat="48.7486" lon="1.7658">
        <ele>193.19999694824</ele>
        <time>2011-08-16T13:06:12.000Z</time>
      </trkpt>
      <trkpt lat="48.74852" lon="1.7658">
        <ele>193.19999694824</ele>
        <time>2011-08-16T13:06:17.000Z</time>
      </trkpt>
      <trkpt lat="48.74851" lon="1.76578">
        <ele>193.19999694824</ele>
        <time>2011-08-16T13:06:19.000Z</time>
      </trkpt>
      <trkpt lat="48.74846" lon="1.76572">
        <ele>193</ele>
        <time>2011-08-16T13:06:25.000Z</time>
      </trkpt>
      <trkpt lat="48.74842" lon="1.76571">
        <ele>193</ele>
        <time>2011-08-16T13:06:27.000Z</time>
      </trkpt>
      <trkpt lat="48.74831" lon="1.76567">
        <ele>192.80000305176</ele>
        <time>2011-08-16T13:06:33.000Z</time>
      </trkpt>
      <trkpt lat="48.7483" lon="1.76565">
        <ele>192.80000305176</ele>
        <time>2011-08-16T13:06:34.000Z</time>
      </trkpt>
      <trkpt lat="48.74823" lon="1.76561">
        <ele>192.60000610352</ele>
        <time>2011-08-16T13:06:39.000Z</time>
      </trkpt>
      <trkpt lat="48.74815" lon="1.76558">
        <ele>192.19999694824</ele>
        <time>2011-08-16T13:06:45.000Z</time>
      </trkpt>
      <trkpt lat="48.74814" lon="1.76557">
        <ele>192.19999694824</ele>
        <time>2011-08-16T13:06:46.000Z</time>
      </trkpt>
      <trkpt lat="48.74798" lon="1.76553">
        <ele>191.60000610352</ele>
        <time>2011-08-16T13:06:56.000Z</time>
      </trkpt>
      <trkpt lat="48.7479" lon="1.76552">
        <ele>191.39999389648</ele>
        <time>2011-08-16T13:07:02.000Z</time>
      </trkpt>
      <trkpt lat="48.74778" lon="1.76551">
        <ele>190.80000305176</ele>
        <time>2011-08-16T13:07:10.000Z</time>
      </trkpt>
      <trkpt lat="48.74771" lon="1.76552">
        <ele>190.60000610352</ele>
        <time>2011-08-16T13:07:15.000Z</time>
      </trkpt>
      <trkpt lat="48.74761" lon="1.76546">
        <ele>190.19999694824</ele>
        <time>2011-08-16T13:07:23.000Z</time>
      </trkpt>
      <trkpt lat="48.74756" lon="1.76543">
        <ele>190.19999694824</ele>
        <time>2011-08-16T13:07:27.000Z</time>
      </trkpt>
      <trkpt lat="48.74748" lon="1.7654">
        <ele>189.80000305176</ele>
        <time>2011-08-16T13:07:33.000Z</time>
      </trkpt>
      <trkpt lat="48.74736" lon="1.76535">
        <ele>189.80000305176</ele>
        <time>2011-08-16T13:07:41.000Z</time>
      </trkpt>
      <trkpt lat="48.74726" lon="1.76537">
        <ele>189.80000305176</ele>
        <time>2011-08-16T13:07:46.000Z</time>
      </trkpt>
      <trkpt lat="48.74721" lon="1.76534">
        <ele>189.80000305176</ele>
        <time>2011-08-16T13:07:50.000Z</time>
      </trkpt>
      <trkpt lat="48.7471" lon="1.76534">
        <ele>189.80000305176</ele>
        <time>2011-08-16T13:07:57.000Z</time>
      </trkpt>
      <trkpt lat="48.74709" lon="1.76533">
        <ele>189.80000305176</ele>
        <time>2011-08-16T13:07:58.000Z</time>
      </trkpt>
      <trkpt lat="48.74703" lon="1.76531">
        <ele>189.80000305176</ele>
        <time>2011-08-16T13:08:02.000Z</time>
      </trkpt>
      <trkpt lat="48.74699" lon="1.76531">
        <ele>189.80000305176</ele>
        <time>2011-08-16T13:08:04.000Z</time>
      </trkpt>
      <trkpt lat="48.74695" lon="1.76525">
        <ele>189.60000610352</ele>
        <time>2011-08-16T13:08:09.000Z</time>
      </trkpt>
      <trkpt lat="48.74682" lon="1.76527">
        <ele>189.60000610352</ele>
        <time>2011-08-16T13:08:15.000Z</time>
      </trkpt>
      <trkpt lat="48.74672" lon="1.76518">
        <ele>189.39999389648</ele>
        <time>2011-08-16T13:08:24.000Z</time>
      </trkpt>
      <trkpt lat="48.74666" lon="1.76513">
        <ele>189.19999694824</ele>
        <time>2011-08-16T13:08:29.000Z</time>
      </trkpt>
      <trkpt lat="48.74656" lon="1.76508">
        <ele>188.60000610352</ele>
        <time>2011-08-16T13:08:36.000Z</time>
      </trkpt>
      <trkpt lat="48.74643" lon="1.76509">
        <ele>188</ele>
        <time>2011-08-16T13:08:42.000Z</time>
      </trkpt>
      <trkpt lat="48.74637" lon="1.76506">
        <ele>187.60000610352</ele>
        <time>2011-08-16T13:08:47.000Z</time>
      </trkpt>
      <trkpt lat="48.74623" lon="1.76498">
        <ele>186.80000305176</ele>
        <time>2011-08-16T13:08:58.000Z</time>
      </trkpt>
      <trkpt lat="48.74617" lon="1.76498">
        <ele>186.39999389648</ele>
        <time>2011-08-16T13:09:04.000Z</time>
      </trkpt>
      <trkpt lat="48.74617" lon="1.76499">
        <ele>186.39999389648</ele>
        <time>2011-08-16T13:09:05.000Z</time>
      </trkpt>
      <trkpt lat="48.74616" lon="1.765">
        <ele>186.39999389648</ele>
        <time>2011-08-16T13:09:08.000Z</time>
      </trkpt>
      <trkpt lat="48.74611" lon="1.76525">
        <ele>186.80000305176</ele>
        <time>2011-08-16T13:09:33.000Z</time>
      </trkpt>
      <trkpt lat="48.74607" lon="1.76532">
        <ele>186.80000305176</ele>
        <time>2011-08-16T13:09:38.000Z</time>
      </trkpt>
      <trkpt lat="48.74603" lon="1.76542">
        <ele>186.80000305176</ele>
        <time>2011-08-16T13:09:44.000Z</time>
      </trkpt>
      <trkpt lat="48.74598" lon="1.76554">
        <ele>187</ele>
        <time>2011-08-16T13:09:51.000Z</time>
      </trkpt>
      <trkpt lat="48.74592" lon="1.76568">
        <ele>187</ele>
        <time>2011-08-16T13:09:58.000Z</time>
      </trkpt>
      <trkpt lat="48.74585" lon="1.76577">
        <ele>186.80000305176</ele>
        <time>2011-08-16T13:10:05.000Z</time>
      </trkpt>
      <trkpt lat="48.74579" lon="1.76585">
        <ele>186.60000610352</ele>
        <time>2011-08-16T13:10:10.000Z</time>
      </trkpt>
      <trkpt lat="48.74572" lon="1.76594">
        <ele>186</ele>
        <time>2011-08-16T13:10:17.000Z</time>
      </trkpt>
      <trkpt lat="48.74568" lon="1.76596">
        <ele>185.60000610352</ele>
        <time>2011-08-16T13:10:19.000Z</time>
      </trkpt>
      <trkpt lat="48.74561" lon="1.76606">
        <ele>185.19999694824</ele>
        <time>2011-08-16T13:10:26.000Z</time>
      </trkpt>
      <trkpt lat="48.74554" lon="1.76616">
        <ele>184.80000305176</ele>
        <time>2011-08-16T13:10:33.000Z</time>
      </trkpt>
      <trkpt lat="48.74547" lon="1.76626">
        <ele>184.39999389648</ele>
        <time>2011-08-16T13:10:39.000Z</time>
      </trkpt>
      <trkpt lat="48.74539" lon="1.76637">
        <ele>184</ele>
        <time>2011-08-16T13:10:46.000Z</time>
      </trkpt>
      <trkpt lat="48.74531" lon="1.76646">
        <ele>183.60000610352</ele>
        <time>2011-08-16T13:10:52.000Z</time>
      </trkpt>
      <trkpt lat="48.74526" lon="1.76658">
        <ele>183.60000610352</ele>
        <time>2011-08-16T13:10:58.000Z</time>
      </trkpt>
      <trkpt lat="48.74521" lon="1.76666">
        <ele>183.39999389648</ele>
        <time>2011-08-16T13:11:03.000Z</time>
      </trkpt>
      <trkpt lat="48.74514" lon="1.76675">
        <ele>183.39999389648</ele>
        <time>2011-08-16T13:11:09.000Z</time>
      </trkpt>
      <trkpt lat="48.74508" lon="1.76685">
        <ele>183.39999389648</ele>
        <time>2011-08-16T13:11:15.000Z</time>
      </trkpt>
      <trkpt lat="48.74503" lon="1.76699">
        <ele>184</ele>
        <time>2011-08-16T13:11:23.000Z</time>
      </trkpt>
      <trkpt lat="48.74499" lon="1.76712">
        <ele>184.39999389648</ele>
        <time>2011-08-16T13:11:30.000Z</time>
      </trkpt>
      <trkpt lat="48.74494" lon="1.76725">
        <ele>184.60000610352</ele>
        <time>2011-08-16T13:11:38.000Z</time>
      </trkpt>
      <trkpt lat="48.74484" lon="1.76732">
        <ele>183.60000610352</ele>
        <time>2011-08-16T13:11:44.000Z</time>
      </trkpt>
      <trkpt lat="48.74473" lon="1.7674">
        <ele>182.60000610352</ele>
        <time>2011-08-16T13:11:51.000Z</time>
      </trkpt>
      <trkpt lat="48.74466" lon="1.76747">
        <ele>182.19999694824</ele>
        <time>2011-08-16T13:11:56.000Z</time>
      </trkpt>
      <trkpt lat="48.74464" lon="1.76753">
        <ele>182.19999694824</ele>
        <time>2011-08-16T13:12:01.000Z</time>
      </trkpt>
      <trkpt lat="48.74455" lon="1.76763">
        <ele>181.39999389648</ele>
        <time>2011-08-16T13:12:07.000Z</time>
      </trkpt>
      <trkpt lat="48.74445" lon="1.76779">
        <ele>181</ele>
        <time>2011-08-16T13:12:16.000Z</time>
      </trkpt>
      <trkpt lat="48.74436" lon="1.76788">
        <ele>180.60000610352</ele>
        <time>2011-08-16T13:12:22.000Z</time>
      </trkpt>
      <trkpt lat="48.74427" lon="1.76797">
        <ele>180.39999389648</ele>
        <time>2011-08-16T13:12:29.000Z</time>
      </trkpt>
      <trkpt lat="48.74422" lon="1.76806">
        <ele>180.39999389648</ele>
        <time>2011-08-16T13:12:35.000Z</time>
      </trkpt>
      <trkpt lat="48.74418" lon="1.76811">
        <ele>180.39999389648</ele>
        <time>2011-08-16T13:12:39.000Z</time>
      </trkpt>
      <trkpt lat="48.74413" lon="1.76821">
        <ele>180.19999694824</ele>
        <time>2011-08-16T13:12:45.000Z</time>
      </trkpt>
      <trkpt lat="48.74407" lon="1.76834">
        <ele>179.80000305176</ele>
        <time>2011-08-16T13:12:51.000Z</time>
      </trkpt>
      <trkpt lat="48.74406" lon="1.7684">
        <ele>179.80000305176</ele>
        <time>2011-08-16T13:12:54.000Z</time>
      </trkpt>
      <trkpt lat="48.74405" lon="1.76848">
        <ele>179.80000305176</ele>
        <time>2011-08-16T13:12:58.000Z</time>
      </trkpt>
      <trkpt lat="48.74399" lon="1.76857">
        <ele>179</ele>
        <time>2011-08-16T13:13:03.000Z</time>
      </trkpt>
      <trkpt lat="48.74394" lon="1.76867">
        <ele>178.60000610352</ele>
        <time>2011-08-16T13:13:08.000Z</time>
      </trkpt>
      <trkpt lat="48.74391" lon="1.7688">
        <ele>178.60000610352</ele>
        <time>2011-08-16T13:13:14.000Z</time>
      </trkpt>
      <trkpt lat="48.74387" lon="1.7689">
        <ele>178.60000610352</ele>
        <time>2011-08-16T13:13:20.000Z</time>
      </trkpt>
      <trkpt lat="48.74386" lon="1.76894">
        <ele>178.60000610352</ele>
        <time>2011-08-16T13:13:22.000Z</time>
      </trkpt>
      <trkpt lat="48.74375" lon="1.76905">
        <ele>177.60000610352</ele>
        <time>2011-08-16T13:13:30.000Z</time>
      </trkpt>
      <trkpt lat="48.74367" lon="1.76917">
        <ele>177.39999389648</ele>
        <time>2011-08-16T13:13:37.000Z</time>
      </trkpt>
      <trkpt lat="48.74359" lon="1.76931">
        <ele>176.60000610352</ele>
        <time>2011-08-16T13:13:45.000Z</time>
      </trkpt>
      <trkpt lat="48.74349" lon="1.7694">
        <ele>175.80000305176</ele>
        <time>2011-08-16T13:13:52.000Z</time>
      </trkpt>
      <trkpt lat="48.74343" lon="1.7695">
        <ele>175.60000610352</ele>
        <time>2011-08-16T13:13:58.000Z</time>
      </trkpt>
      <trkpt lat="48.74337" lon="1.76969">
        <ele>175.80000305176</ele>
        <time>2011-08-16T13:14:07.000Z</time>
      </trkpt>
      <trkpt lat="48.74332" lon="1.76986">
        <ele>175.80000305176</ele>
        <time>2011-08-16T13:14:15.000Z</time>
      </trkpt>
      <trkpt lat="48.74332" lon="1.77006">
        <ele>176.80000305176</ele>
        <time>2011-08-16T13:14:23.000Z</time>
      </trkpt>
      <trkpt lat="48.74331" lon="1.77024">
        <ele>177.19999694824</ele>
        <time>2011-08-16T13:14:31.000Z</time>
      </trkpt>
      <trkpt lat="48.74329" lon="1.77039">
        <ele>177.39999389648</ele>
        <time>2011-08-16T13:14:38.000Z</time>
      </trkpt>
      <trkpt lat="48.74328" lon="1.77054">
        <ele>177.60000610352</ele>
        <time>2011-08-16T13:14:45.000Z</time>
      </trkpt>
      <trkpt lat="48.74323" lon="1.77069">
        <ele>176.80000305176</ele>
        <time>2011-08-16T13:14:52.000Z</time>
      </trkpt>
      <trkpt lat="48.74322" lon="1.77079">
        <ele>177</ele>
        <time>2011-08-16T13:14:57.000Z</time>
      </trkpt>
      <trkpt lat="48.7432" lon="1.77097">
        <ele>176.80000305176</ele>
        <time>2011-08-16T13:15:05.000Z</time>
      </trkpt>
      <trkpt lat="48.74322" lon="1.77114">
        <ele>177.19999694824</ele>
        <time>2011-08-16T13:15:12.000Z</time>
      </trkpt>
      <trkpt lat="48.74322" lon="1.77124">
        <ele>177.19999694824</ele>
        <time>2011-08-16T13:15:16.000Z</time>
      </trkpt>
      <trkpt lat="48.7432" lon="1.77135">
        <ele>176.80000305176</ele>
        <time>2011-08-16T13:15:21.000Z</time>
      </trkpt>
      <trkpt lat="48.74314" lon="1.7715">
        <ele>176</ele>
        <time>2011-08-16T13:15:29.000Z</time>
      </trkpt>
      <trkpt lat="48.74311" lon="1.7716">
        <ele>175.80000305176</ele>
        <time>2011-08-16T13:15:35.000Z</time>
      </trkpt>
      <trkpt lat="48.74305" lon="1.77172">
        <ele>175.39999389648</ele>
        <time>2011-08-16T13:15:41.000Z</time>
      </trkpt>
      <trkpt lat="48.74299" lon="1.77186">
        <ele>175.39999389648</ele>
        <time>2011-08-16T13:15:48.000Z</time>
      </trkpt>
      <trkpt lat="48.74295" lon="1.77197">
        <ele>175.60000610352</ele>
        <time>2011-08-16T13:15:53.000Z</time>
      </trkpt>
      <trkpt lat="48.74291" lon="1.77209">
        <ele>175.80000305176</ele>
        <time>2011-08-16T13:15:59.000Z</time>
      </trkpt>
      <trkpt lat="48.74289" lon="1.77216">
        <ele>176.19999694824</ele>
        <time>2011-08-16T13:16:02.000Z</time>
      </trkpt>
      <trkpt lat="48.74286" lon="1.77234">
        <ele>177</ele>
        <time>2011-08-16T13:16:10.000Z</time>
      </trkpt>
      <trkpt lat="48.74279" lon="1.7725">
        <ele>177.60000610352</ele>
        <time>2011-08-16T13:16:17.000Z</time>
      </trkpt>
      <trkpt lat="48.74272" lon="1.77258">
        <ele>177.80000305176</ele>
        <time>2011-08-16T13:16:23.000Z</time>
      </trkpt>
      <trkpt lat="48.74264" lon="1.77267">
        <ele>178</ele>
        <time>2011-08-16T13:16:29.000Z</time>
      </trkpt>
      <trkpt lat="48.74258" lon="1.77272">
        <ele>178.19999694824</ele>
        <time>2011-08-16T13:16:34.000Z</time>
      </trkpt>
      <trkpt lat="48.74252" lon="1.77279">
        <ele>178.39999389648</ele>
        <time>2011-08-16T13:16:40.000Z</time>
      </trkpt>
      <trkpt lat="48.74246" lon="1.77284">
        <ele>178.39999389648</ele>
        <time>2011-08-16T13:16:45.000Z</time>
      </trkpt>
      <trkpt lat="48.74239" lon="1.77291">
        <ele>178.39999389648</ele>
        <time>2011-08-16T13:16:51.000Z</time>
      </trkpt>
      <trkpt lat="48.7423" lon="1.77297">
        <ele>178.19999694824</ele>
        <time>2011-08-16T13:16:56.000Z</time>
      </trkpt>
      <trkpt lat="48.74229" lon="1.773">
        <ele>178.19999694824</ele>
        <time>2011-08-16T13:16:58.000Z</time>
      </trkpt>
      <trkpt lat="48.74219" lon="1.77306">
        <ele>178</ele>
        <time>2011-08-16T13:17:05.000Z</time>
      </trkpt>
      <trkpt lat="48.74207" lon="1.77309">
        <ele>177.39999389648</ele>
        <time>2011-08-16T13:17:13.000Z</time>
      </trkpt>
      <trkpt lat="48.74199" lon="1.77305">
        <ele>176.19999694824</ele>
        <time>2011-08-16T13:17:19.000Z</time>
      </trkpt>
      <trkpt lat="48.74184" lon="1.773">
        <ele>174.39999389648</ele>
        <time>2011-08-16T13:17:28.000Z</time>
      </trkpt>
      <trkpt lat="48.74177" lon="1.77294">
        <ele>173</ele>
        <time>2011-08-16T13:17:34.000Z</time>
      </trkpt>
      <trkpt lat="48.7417" lon="1.77296">
        <ele>172.60000610352</ele>
        <time>2011-08-16T13:17:39.000Z</time>
      </trkpt>
      <trkpt lat="48.74161" lon="1.77302">
        <ele>172.60000610352</ele>
        <time>2011-08-16T13:17:45.000Z</time>
      </trkpt>
      <trkpt lat="48.74159" lon="1.77305">
        <ele>172.60000610352</ele>
        <time>2011-08-16T13:17:47.000Z</time>
      </trkpt>
      <trkpt lat="48.74151" lon="1.77316">
        <ele>173</ele>
        <time>2011-08-16T13:17:54.000Z</time>
      </trkpt>
      <trkpt lat="48.74148" lon="1.7732">
        <ele>173.39999389648</ele>
        <time>2011-08-16T13:17:57.000Z</time>
      </trkpt>
      <trkpt lat="48.74142" lon="1.77328">
        <ele>173.39999389648</ele>
        <time>2011-08-16T13:18:02.000Z</time>
      </trkpt>
      <trkpt lat="48.74133" lon="1.77339">
        <ele>172.80000305176</ele>
        <time>2011-08-16T13:18:09.000Z</time>
      </trkpt>
      <trkpt lat="48.74123" lon="1.77347">
        <ele>171.39999389648</ele>
        <time>2011-08-16T13:18:16.000Z</time>
      </trkpt>
      <trkpt lat="48.7412" lon="1.77349">
        <ele>171.19999694824</ele>
        <time>2011-08-16T13:18:18.000Z</time>
      </trkpt>
      <trkpt lat="48.74117" lon="1.7736">
        <ele>170.60000610352</ele>
        <time>2011-08-16T13:18:24.000Z</time>
      </trkpt>
      <trkpt lat="48.74115" lon="1.77367">
        <ele>170.19999694824</ele>
        <time>2011-08-16T13:18:27.000Z</time>
      </trkpt>
      <trkpt lat="48.7411" lon="1.7738">
        <ele>169.60000610352</ele>
        <time>2011-08-16T13:18:34.000Z</time>
      </trkpt>
      <trkpt lat="48.74108" lon="1.77384">
        <ele>169.19999694824</ele>
        <time>2011-08-16T13:18:36.000Z</time>
      </trkpt>
      <trkpt lat="48.74102" lon="1.77413">
        <ele>168.19999694824</ele>
        <time>2011-08-16T13:18:48.000Z</time>
      </trkpt>
      <trkpt lat="48.74096" lon="1.77433">
        <ele>167</ele>
        <time>2011-08-16T13:18:57.000Z</time>
      </trkpt>
      <trkpt lat="48.74094" lon="1.77442">
        <ele>166.60000610352</ele>
        <time>2011-08-16T13:19:02.000Z</time>
      </trkpt>
      <trkpt lat="48.74091" lon="1.77452">
        <ele>166</ele>
        <time>2011-08-16T13:19:07.000Z</time>
      </trkpt>
      <trkpt lat="48.74084" lon="1.77469">
        <ele>164.80000305176</ele>
        <time>2011-08-16T13:19:15.000Z</time>
      </trkpt>
      <trkpt lat="48.74078" lon="1.77485">
        <ele>164.60000610352</ele>
        <time>2011-08-16T13:19:22.000Z</time>
      </trkpt>
      <trkpt lat="48.74072" lon="1.77498">
        <ele>164.80000305176</ele>
        <time>2011-08-16T13:19:28.000Z</time>
      </trkpt>
      <trkpt lat="48.74068" lon="1.77508">
        <ele>164.80000305176</ele>
        <time>2011-08-16T13:19:33.000Z</time>
      </trkpt>
      <trkpt lat="48.7406" lon="1.77517">
        <ele>165.19999694824</ele>
        <time>2011-08-16T13:19:39.000Z</time>
      </trkpt>
      <trkpt lat="48.7405" lon="1.77523">
        <ele>165.80000305176</ele>
        <time>2011-08-16T13:19:46.000Z</time>
      </trkpt>
      <trkpt lat="48.74044" lon="1.77525">
        <ele>166.19999694824</ele>
        <time>2011-08-16T13:19:52.000Z</time>
      </trkpt>
      <trkpt lat="48.74039" lon="1.77525">
        <ele>166.60000610352</ele>
        <time>2011-08-16T13:19:55.000Z</time>
      </trkpt>
      <trkpt lat="48.74029" lon="1.77528">
        <ele>167.39999389648</ele>
        <time>2011-08-16T13:20:00.000Z</time>
      </trkpt>
      <trkpt lat="48.74017" lon="1.77529">
        <ele>168.19999694824</ele>
        <time>2011-08-16T13:20:05.000Z</time>
      </trkpt>
      <trkpt lat="48.74006" lon="1.77533">
        <ele>169</ele>
        <time>2011-08-16T13:20:09.000Z</time>
      </trkpt>
      <trkpt lat="48.74003" lon="1.77534">
        <ele>169.19999694824</ele>
        <time>2011-08-16T13:20:11.000Z</time>
      </trkpt>
      <trkpt lat="48.73998" lon="1.77537">
        <ele>169.39999389648</ele>
        <time>2011-08-16T13:20:16.000Z</time>
      </trkpt>
      <trkpt lat="48.73997" lon="1.77536">
        <ele>169.39999389648</ele>
        <time>2011-08-16T13:20:17.000Z</time>
      </trkpt>
      <trkpt lat="48.73988" lon="1.77532">
        <ele>169.39999389648</ele>
        <time>2011-08-16T13:20:23.000Z</time>
      </trkpt>
      <trkpt lat="48.73982" lon="1.7753">
        <ele>169.39999389648</ele>
        <time>2011-08-16T13:20:28.000Z</time>
      </trkpt>
      <trkpt lat="48.73978" lon="1.77536">
        <ele>169.39999389648</ele>
        <time>2011-08-16T13:20:31.000Z</time>
      </trkpt>
      <trkpt lat="48.73964" lon="1.77534">
        <ele>169.19999694824</ele>
        <time>2011-08-16T13:20:37.000Z</time>
      </trkpt>
      <trkpt lat="48.73957" lon="1.77525">
        <ele>169</ele>
        <time>2011-08-16T13:20:43.000Z</time>
      </trkpt>
      <trkpt lat="48.7395" lon="1.77522">
        <ele>168.80000305176</ele>
        <time>2011-08-16T13:20:47.000Z</time>
      </trkpt>
      <trkpt lat="48.73944" lon="1.77518">
        <ele>168.60000610352</ele>
        <time>2011-08-16T13:20:53.000Z</time>
      </trkpt>
      <trkpt lat="48.73933" lon="1.77518">
        <ele>168.39999389648</ele>
        <time>2011-08-16T13:20:59.000Z</time>
      </trkpt>
      <trkpt lat="48.73926" lon="1.77514">
        <ele>168</ele>
        <time>2011-08-16T13:21:04.000Z</time>
      </trkpt>
      <trkpt lat="48.73914" lon="1.77506">
        <ele>167</ele>
        <time>2011-08-16T13:21:12.000Z</time>
      </trkpt>
      <trkpt lat="48.73901" lon="1.77497">
        <ele>166</ele>
        <time>2011-08-16T13:21:19.000Z</time>
      </trkpt>
      <trkpt lat="48.73897" lon="1.77493">
        <ele>165.80000305176</ele>
        <time>2011-08-16T13:21:23.000Z</time>
      </trkpt>
      <trkpt lat="48.73896" lon="1.77492">
        <ele>165.80000305176</ele>
        <time>2011-08-16T13:21:24.000Z</time>
      </trkpt>
      <trkpt lat="48.73895" lon="1.77488">
        <ele>165.80000305176</ele>
        <time>2011-08-16T13:21:26.000Z</time>
      </trkpt>
      <trkpt lat="48.73888" lon="1.77482">
        <ele>165.60000610352</ele>
        <time>2011-08-16T13:21:31.000Z</time>
      </trkpt>
      <trkpt lat="48.73876" lon="1.77473">
        <ele>165.19999694824</ele>
        <time>2011-08-16T13:21:38.000Z</time>
      </trkpt>
      <trkpt lat="48.7387" lon="1.77467">
        <ele>165</ele>
        <time>2011-08-16T13:21:43.000Z</time>
      </trkpt>
      <trkpt lat="48.73864" lon="1.77461">
        <ele>164.80000305176</ele>
        <time>2011-08-16T13:21:49.000Z</time>
      </trkpt>
      <trkpt lat="48.73859" lon="1.77452">
        <ele>164.80000305176</ele>
        <time>2011-08-16T13:21:56.000Z</time>
      </trkpt>
      <trkpt lat="48.73855" lon="1.77446">
        <ele>164.80000305176</ele>
        <time>2011-08-16T13:22:01.000Z</time>
      </trkpt>
      <trkpt lat="48.73855" lon="1.77442">
        <ele>165</ele>
        <time>2011-08-16T13:22:06.000Z</time>
      </trkpt>
      <trkpt lat="48.73853" lon="1.77441">
        <ele>164.80000305176</ele>
        <time>2011-08-16T13:22:19.000Z</time>
      </trkpt>
      <trkpt lat="48.73853" lon="1.7744">
        <ele>165</ele>
        <time>2011-08-16T13:22:21.000Z</time>
      </trkpt>
      <trkpt lat="48.73839" lon="1.77436">
        <ele>164.39999389648</ele>
        <time>2011-08-16T13:23:26.000Z</time>
      </trkpt>
      <trkpt lat="48.7384" lon="1.77431">
        <ele>164.60000610352</ele>
        <time>2011-08-16T13:23:32.000Z</time>
      </trkpt>
      <trkpt lat="48.73845" lon="1.77428">
        <ele>165</ele>
        <time>2011-08-16T13:23:39.000Z</time>
      </trkpt>
      <trkpt lat="48.73847" lon="1.7742">
        <ele>165.19999694824</ele>
        <time>2011-08-16T13:23:44.000Z</time>
      </trkpt>
      <trkpt lat="48.73844" lon="1.77406">
        <ele>165.60000610352</ele>
        <time>2011-08-16T13:23:52.000Z</time>
      </trkpt>
      <trkpt lat="48.73845" lon="1.77401">
        <ele>165.60000610352</ele>
        <time>2011-08-16T13:23:59.000Z</time>
      </trkpt>
      <trkpt lat="48.73843" lon="1.77401">
        <ele>165.60000610352</ele>
        <time>2011-08-16T13:24:02.000Z</time>
      </trkpt>
      <trkpt lat="48.73834" lon="1.77401">
        <ele>165.39999389648</ele>
        <time>2011-08-16T13:24:13.000Z</time>
      </trkpt>
      <trkpt lat="48.73832" lon="1.77404">
        <ele>165.39999389648</ele>
        <time>2011-08-16T13:24:15.000Z</time>
      </trkpt>
      <trkpt lat="48.73831" lon="1.77404">
        <ele>165.60000610352</ele>
        <time>2011-08-16T13:24:18.000Z</time>
      </trkpt>
      <trkpt lat="48.7383" lon="1.77389">
        <ele>166.19999694824</ele>
        <time>2011-08-16T13:24:37.000Z</time>
      </trkpt>
      <trkpt lat="48.73825" lon="1.77382">
        <ele>166.80000305176</ele>
        <time>2011-08-16T13:24:42.000Z</time>
      </trkpt>
      <trkpt lat="48.73823" lon="1.7738">
        <ele>167</ele>
        <time>2011-08-16T13:24:44.000Z</time>
      </trkpt>
      <trkpt lat="48.73822" lon="1.77375">
        <ele>167.19999694824</ele>
        <time>2011-08-16T13:24:50.000Z</time>
      </trkpt>
      <trkpt lat="48.73825" lon="1.77371">
        <ele>167.19999694824</ele>
        <time>2011-08-16T13:25:34.000Z</time>
      </trkpt>
      <trkpt lat="48.73826" lon="1.77371">
        <ele>167</ele>
        <time>2011-08-16T13:25:36.000Z</time>
      </trkpt>
      <trkpt lat="48.7383" lon="1.7737">
        <ele>166.80000305176</ele>
        <time>2011-08-16T13:26:10.000Z</time>
      </trkpt>
      <trkpt lat="48.73834" lon="1.77371">
        <ele>166.60000610352</ele>
        <time>2011-08-16T13:26:12.000Z</time>
      </trkpt>
      <trkpt lat="48.73841" lon="1.77362">
        <ele>166.80000305176</ele>
        <time>2011-08-16T13:26:18.000Z</time>
      </trkpt>
      <trkpt lat="48.73844" lon="1.77343">
        <ele>167.19999694824</ele>
        <time>2011-08-16T13:26:26.000Z</time>
      </trkpt>
      <trkpt lat="48.73847" lon="1.77339">
        <ele>167.19999694824</ele>
        <time>2011-08-16T13:26:28.000Z</time>
      </trkpt>
      <trkpt lat="48.7385" lon="1.77321">
        <ele>167</ele>
        <time>2011-08-16T13:26:35.000Z</time>
      </trkpt>
      <trkpt lat="48.73852" lon="1.77311">
        <ele>166.80000305176</ele>
        <time>2011-08-16T13:26:40.000Z</time>
      </trkpt>
      <trkpt lat="48.73857" lon="1.77302">
        <ele>166.60000610352</ele>
        <time>2011-08-16T13:26:45.000Z</time>
      </trkpt>
      <trkpt lat="48.73864" lon="1.77289">
        <ele>166</ele>
        <time>2011-08-16T13:26:52.000Z</time>
      </trkpt>
      <trkpt lat="48.73867" lon="1.77285">
        <ele>165.80000305176</ele>
        <time>2011-08-16T13:26:55.000Z</time>
      </trkpt>
      <trkpt lat="48.73874" lon="1.7727">
        <ele>165.19999694824</ele>
        <time>2011-08-16T13:27:03.000Z</time>
      </trkpt>
      <trkpt lat="48.73885" lon="1.77255">
        <ele>164.19999694824</ele>
        <time>2011-08-16T13:27:10.000Z</time>
      </trkpt>
      <trkpt lat="48.73891" lon="1.77251">
        <ele>163.80000305176</ele>
        <time>2011-08-16T13:27:14.000Z</time>
      </trkpt>
      <trkpt lat="48.73901" lon="1.77242">
        <ele>163.19999694824</ele>
        <time>2011-08-16T13:27:19.000Z</time>
      </trkpt>
      <trkpt lat="48.73903" lon="1.77235">
        <ele>163.19999694824</ele>
        <time>2011-08-16T13:27:24.000Z</time>
      </trkpt>
      <trkpt lat="48.73912" lon="1.77225">
        <ele>162.60000610352</ele>
        <time>2011-08-16T13:27:32.000Z</time>
      </trkpt>
      <trkpt lat="48.73921" lon="1.77215">
        <ele>162.19999694824</ele>
        <time>2011-08-16T13:27:37.000Z</time>
      </trkpt>
      <trkpt lat="48.73932" lon="1.77208">
        <ele>161.80000305176</ele>
        <time>2011-08-16T13:27:43.000Z</time>
      </trkpt>
      <trkpt lat="48.73936" lon="1.77207">
        <ele>161.80000305176</ele>
        <time>2011-08-16T13:27:45.000Z</time>
      </trkpt>
      <trkpt lat="48.73945" lon="1.77205">
        <ele>161.39999389648</ele>
        <time>2011-08-16T13:27:50.000Z</time>
      </trkpt>
      <trkpt lat="48.73954" lon="1.772">
        <ele>160.80000305176</ele>
        <time>2011-08-16T13:27:56.000Z</time>
      </trkpt>
      <trkpt lat="48.73965" lon="1.77194">
        <ele>160.19999694824</ele>
        <time>2011-08-16T13:28:03.000Z</time>
      </trkpt>
      <trkpt lat="48.7398" lon="1.77188">
        <ele>159.19999694824</ele>
        <time>2011-08-16T13:28:08.000Z</time>
      </trkpt>
      <trkpt lat="48.73991" lon="1.77177">
        <ele>158.19999694824</ele>
        <time>2011-08-16T13:28:13.000Z</time>
      </trkpt>
      <trkpt lat="48.74003" lon="1.7716">
        <ele>156.80000305176</ele>
        <time>2011-08-16T13:28:18.000Z</time>
      </trkpt>
      <trkpt lat="48.74023" lon="1.77137">
        <ele>156.39999389648</ele>
        <time>2011-08-16T13:28:25.000Z</time>
      </trkpt>
      <trkpt lat="48.74039" lon="1.77105">
        <ele>156</ele>
        <time>2011-08-16T13:28:33.000Z</time>
      </trkpt>
      <trkpt lat="48.74054" lon="1.77082">
        <ele>155.39999389648</ele>
        <time>2011-08-16T13:28:39.000Z</time>
      </trkpt>
      <trkpt lat="48.74071" lon="1.77054">
        <ele>154.60000610352</ele>
        <time>2011-08-16T13:28:46.000Z</time>
      </trkpt>
      <trkpt lat="48.74086" lon="1.77025">
        <ele>153.80000305176</ele>
        <time>2011-08-16T13:28:53.000Z</time>
      </trkpt>
      <trkpt lat="48.74097" lon="1.77003">
        <ele>153.60000610352</ele>
        <time>2011-08-16T13:28:58.000Z</time>
      </trkpt>
      <trkpt lat="48.74113" lon="1.76974">
        <ele>153.19999694824</ele>
        <time>2011-08-16T13:29:05.000Z</time>
      </trkpt>
      <trkpt lat="48.74127" lon="1.7695">
        <ele>152.80000305176</ele>
        <time>2011-08-16T13:29:11.000Z</time>
      </trkpt>
      <trkpt lat="48.74135" lon="1.76933">
        <ele>152.60000610352</ele>
        <time>2011-08-16T13:29:15.000Z</time>
      </trkpt>
      <trkpt lat="48.74143" lon="1.76911">
        <ele>152.39999389648</ele>
        <time>2011-08-16T13:29:20.000Z</time>
      </trkpt>
      <trkpt lat="48.74159" lon="1.76878">
        <ele>151.80000305176</ele>
        <time>2011-08-16T13:29:27.000Z</time>
      </trkpt>
      <trkpt lat="48.74167" lon="1.76857">
        <ele>151.19999694824</ele>
        <time>2011-08-16T13:29:32.000Z</time>
      </trkpt>
      <trkpt lat="48.74181" lon="1.76825">
        <ele>151.19999694824</ele>
        <time>2011-08-16T13:29:39.000Z</time>
      </trkpt>
      <trkpt lat="48.74197" lon="1.76787">
        <ele>151.39999389648</ele>
        <time>2011-08-16T13:29:47.000Z</time>
      </trkpt>
      <trkpt lat="48.74204" lon="1.7676">
        <ele>151.19999694824</ele>
        <time>2011-08-16T13:29:53.000Z</time>
      </trkpt>
      <trkpt lat="48.74209" lon="1.76734">
        <ele>150.80000305176</ele>
        <time>2011-08-16T13:29:59.000Z</time>
      </trkpt>
      <trkpt lat="48.74209" lon="1.7673">
        <ele>150.80000305176</ele>
        <time>2011-08-16T13:30:00.000Z</time>
      </trkpt>
      <trkpt lat="48.74214" lon="1.7669">
        <ele>150.39999389648</ele>
        <time>2011-08-16T13:30:08.000Z</time>
      </trkpt>
      <trkpt lat="48.74218" lon="1.76665">
        <ele>150</ele>
        <time>2011-08-16T13:30:13.000Z</time>
      </trkpt>
      <trkpt lat="48.74227" lon="1.76641">
        <ele>150</ele>
        <time>2011-08-16T13:30:18.000Z</time>
      </trkpt>
      <trkpt lat="48.74238" lon="1.76625">
        <ele>149.80000305176</ele>
        <time>2011-08-16T13:30:22.000Z</time>
      </trkpt>
      <trkpt lat="48.74247" lon="1.76603">
        <ele>149.80000305176</ele>
        <time>2011-08-16T13:30:27.000Z</time>
      </trkpt>
      <trkpt lat="48.74247" lon="1.76598">
        <ele>149.80000305176</ele>
        <time>2011-08-16T13:30:28.000Z</time>
      </trkpt>
      <trkpt lat="48.74246" lon="1.76565">
        <ele>150.39999389648</ele>
        <time>2011-08-16T13:30:34.000Z</time>
      </trkpt>
      <trkpt lat="48.74246" lon="1.76551">
        <ele>150.80000305176</ele>
        <time>2011-08-16T13:30:37.000Z</time>
      </trkpt>
      <trkpt lat="48.74238" lon="1.7652">
        <ele>151.60000610352</ele>
        <time>2011-08-16T13:30:43.000Z</time>
      </trkpt>
      <trkpt lat="48.7423" lon="1.76495">
        <ele>152.60000610352</ele>
        <time>2011-08-16T13:30:48.000Z</time>
      </trkpt>
      <trkpt lat="48.74219" lon="1.76471">
        <ele>153.60000610352</ele>
        <time>2011-08-16T13:30:53.000Z</time>
      </trkpt>
      <trkpt lat="48.7421" lon="1.76451">
        <ele>154.60000610352</ele>
        <time>2011-08-16T13:30:58.000Z</time>
      </trkpt>
      <trkpt lat="48.74207" lon="1.76429">
        <ele>155.60000610352</ele>
        <time>2011-08-16T13:31:02.000Z</time>
      </trkpt>
      <trkpt lat="48.74221" lon="1.76407">
        <ele>155.39999389648</ele>
        <time>2011-08-16T13:31:07.000Z</time>
      </trkpt>
      <trkpt lat="48.74229" lon="1.76389">
        <ele>155.19999694824</ele>
        <time>2011-08-16T13:31:11.000Z</time>
      </trkpt>
      <trkpt lat="48.7423" lon="1.76381">
        <ele>155.39999389648</ele>
        <time>2011-08-16T13:31:13.000Z</time>
      </trkpt>
      <trkpt lat="48.74218" lon="1.76375">
        <ele>156.80000305176</ele>
        <time>2011-08-16T13:31:17.000Z</time>
      </trkpt>
      <trkpt lat="48.74199" lon="1.7637">
        <ele>159.19999694824</ele>
        <time>2011-08-16T13:31:23.000Z</time>
      </trkpt>
      <trkpt lat="48.74182" lon="1.76364">
        <ele>161.60000610352</ele>
        <time>2011-08-16T13:31:28.000Z</time>
      </trkpt>
      <trkpt lat="48.74157" lon="1.76359">
        <ele>165</ele>
        <time>2011-08-16T13:31:34.000Z</time>
      </trkpt>
      <trkpt lat="48.74136" lon="1.76355">
        <ele>168.19999694824</ele>
        <time>2011-08-16T13:31:39.000Z</time>
      </trkpt>
      <trkpt lat="48.74113" lon="1.76352">
        <ele>171.39999389648</ele>
        <time>2011-08-16T13:31:45.000Z</time>
      </trkpt>
      <trkpt lat="48.74109" lon="1.76352">
        <ele>171.80000305176</ele>
        <time>2011-08-16T13:31:46.000Z</time>
      </trkpt>
      <trkpt lat="48.74095" lon="1.76351">
        <ele>173.80000305176</ele>
        <time>2011-08-16T13:31:50.000Z</time>
      </trkpt>
      <trkpt lat="48.74076" lon="1.76354">
        <ele>175.60000610352</ele>
        <time>2011-08-16T13:31:54.000Z</time>
      </trkpt>
      <trkpt lat="48.74056" lon="1.76357">
        <ele>176.80000305176</ele>
        <time>2011-08-16T13:31:59.000Z</time>
      </trkpt>
      <trkpt lat="48.74054" lon="1.76356">
        <ele>177</ele>
        <time>2011-08-16T13:32:00.000Z</time>
      </trkpt>
      <trkpt lat="48.74031" lon="1.76362">
        <ele>178.19999694824</ele>
        <time>2011-08-16T13:32:06.000Z</time>
      </trkpt>
      <trkpt lat="48.74011" lon="1.76366">
        <ele>179.39999389648</ele>
        <time>2011-08-16T13:32:11.000Z</time>
      </trkpt>
      <trkpt lat="48.73994" lon="1.76369">
        <ele>180.19999694824</ele>
        <time>2011-08-16T13:32:16.000Z</time>
      </trkpt>
      <trkpt lat="48.73977" lon="1.76371">
        <ele>180.39999389648</ele>
        <time>2011-08-16T13:32:20.000Z</time>
      </trkpt>
      <trkpt lat="48.73958" lon="1.76371">
        <ele>180.60000610352</ele>
        <time>2011-08-16T13:32:25.000Z</time>
      </trkpt>
      <trkpt lat="48.73938" lon="1.76372">
        <ele>181</ele>
        <time>2011-08-16T13:32:30.000Z</time>
      </trkpt>
      <trkpt lat="48.73918" lon="1.76375">
        <ele>181.39999389648</ele>
        <time>2011-08-16T13:32:36.000Z</time>
      </trkpt>
      <trkpt lat="48.73897" lon="1.76379">
        <ele>181.80000305176</ele>
        <time>2011-08-16T13:32:42.000Z</time>
      </trkpt>
      <trkpt lat="48.73879" lon="1.76381">
        <ele>182.19999694824</ele>
        <time>2011-08-16T13:32:47.000Z</time>
      </trkpt>
      <trkpt lat="48.7386" lon="1.76385">
        <ele>182.60000610352</ele>
        <time>2011-08-16T13:32:53.000Z</time>
      </trkpt>
      <trkpt lat="48.73846" lon="1.76387">
        <ele>183</ele>
        <time>2011-08-16T13:32:57.000Z</time>
      </trkpt>
      <trkpt lat="48.73832" lon="1.76389">
        <ele>183.19999694824</ele>
        <time>2011-08-16T13:33:02.000Z</time>
      </trkpt>
      <trkpt lat="48.73824" lon="1.76391">
        <ele>183.60000610352</ele>
        <time>2011-08-16T13:33:05.000Z</time>
      </trkpt>
      <trkpt lat="48.73817" lon="1.76391">
        <ele>183.80000305176</ele>
        <time>2011-08-16T13:33:08.000Z</time>
      </trkpt>
      <trkpt lat="48.73813" lon="1.76393">
        <ele>184</ele>
        <time>2011-08-16T13:33:11.000Z</time>
      </trkpt>
      <trkpt lat="48.7381" lon="1.76394">
        <ele>184.19999694824</ele>
        <time>2011-08-16T13:33:13.000Z</time>
      </trkpt>
      <trkpt lat="48.73806" lon="1.76395">
        <ele>184.19999694824</ele>
        <time>2011-08-16T13:33:15.000Z</time>
      </trkpt>
      <trkpt lat="48.73795" lon="1.764">
        <ele>184.60000610352</ele>
        <time>2011-08-16T13:33:20.000Z</time>
      </trkpt>
      <trkpt lat="48.73788" lon="1.76399">
        <ele>184.80000305176</ele>
        <time>2011-08-16T13:33:26.000Z</time>
      </trkpt>
      <trkpt lat="48.7378" lon="1.764">
        <ele>185.19999694824</ele>
        <time>2011-08-16T13:33:33.000Z</time>
      </trkpt>
      <trkpt lat="48.73779" lon="1.764">
        <ele>185.19999694824</ele>
        <time>2011-08-16T13:33:34.000Z</time>
      </trkpt>
      <trkpt lat="48.73774" lon="1.76399">
        <ele>185.39999389648</ele>
        <time>2011-08-16T13:33:37.000Z</time>
      </trkpt>
      <trkpt lat="48.73766" lon="1.76402">
        <ele>185.60000610352</ele>
        <time>2011-08-16T13:33:41.000Z</time>
      </trkpt>
      <trkpt lat="48.73757" lon="1.76408">
        <ele>185.80000305176</ele>
        <time>2011-08-16T13:33:48.000Z</time>
      </trkpt>
      <trkpt lat="48.73746" lon="1.76406">
        <ele>186</ele>
        <time>2011-08-16T13:33:55.000Z</time>
      </trkpt>
      <trkpt lat="48.73745" lon="1.76405">
        <ele>186</ele>
        <time>2011-08-16T13:33:56.000Z</time>
      </trkpt>
      <trkpt lat="48.73732" lon="1.76408">
        <ele>186</ele>
        <time>2011-08-16T13:34:04.000Z</time>
      </trkpt>
      <trkpt lat="48.73731" lon="1.76409">
        <ele>186</ele>
        <time>2011-08-16T13:34:05.000Z</time>
      </trkpt>
      <trkpt lat="48.73722" lon="1.76411">
        <ele>186</ele>
        <time>2011-08-16T13:34:12.000Z</time>
      </trkpt>
      <trkpt lat="48.7372" lon="1.7641">
        <ele>186</ele>
        <time>2011-08-16T13:34:13.000Z</time>
      </trkpt>
      <trkpt lat="48.7371" lon="1.7641">
        <ele>186</ele>
        <time>2011-08-16T13:34:19.000Z</time>
      </trkpt>
      <trkpt lat="48.73706" lon="1.76412">
        <ele>186</ele>
        <time>2011-08-16T13:34:21.000Z</time>
      </trkpt>
      <trkpt lat="48.73693" lon="1.76412">
        <ele>186</ele>
        <time>2011-08-16T13:34:28.000Z</time>
      </trkpt>
      <trkpt lat="48.73686" lon="1.76411">
        <ele>186</ele>
        <time>2011-08-16T13:34:33.000Z</time>
      </trkpt>
      <trkpt lat="48.73677" lon="1.76415">
        <ele>186</ele>
        <time>2011-08-16T13:34:38.000Z</time>
      </trkpt>
      <trkpt lat="48.73669" lon="1.76416">
        <ele>186</ele>
        <time>2011-08-16T13:34:44.000Z</time>
      </trkpt>
      <trkpt lat="48.73667" lon="1.76416">
        <ele>186</ele>
        <time>2011-08-16T13:34:46.000Z</time>
      </trkpt>
      <trkpt lat="48.73662" lon="1.76418">
        <ele>186</ele>
        <time>2011-08-16T13:34:50.000Z</time>
      </trkpt>
      <trkpt lat="48.73659" lon="1.76418">
        <ele>186</ele>
        <time>2011-08-16T13:34:52.000Z</time>
      </trkpt>
      <trkpt lat="48.73647" lon="1.76417">
        <ele>186.39999389648</ele>
        <time>2011-08-16T13:35:00.000Z</time>
      </trkpt>
      <trkpt lat="48.73637" lon="1.76421">
        <ele>186.60000610352</ele>
        <time>2011-08-16T13:35:06.000Z</time>
      </trkpt>
      <trkpt lat="48.73625" lon="1.76418">
        <ele>186.80000305176</ele>
        <time>2011-08-16T13:35:12.000Z</time>
      </trkpt>
      <trkpt lat="48.73614" lon="1.76418">
        <ele>187.19999694824</ele>
        <time>2011-08-16T13:35:19.000Z</time>
      </trkpt>
      <trkpt lat="48.73603" lon="1.76418">
        <ele>187.39999389648</ele>
        <time>2011-08-16T13:35:26.000Z</time>
      </trkpt>
      <trkpt lat="48.73587" lon="1.76418">
        <ele>187.80000305176</ele>
        <time>2011-08-16T13:35:36.000Z</time>
      </trkpt>
      <trkpt lat="48.73576" lon="1.7642">
        <ele>187.80000305176</ele>
        <time>2011-08-16T13:35:43.000Z</time>
      </trkpt>
      <trkpt lat="48.73565" lon="1.76421">
        <ele>187.80000305176</ele>
        <time>2011-08-16T13:35:50.000Z</time>
      </trkpt>
      <trkpt lat="48.73554" lon="1.76423">
        <ele>187.80000305176</ele>
        <time>2011-08-16T13:35:57.000Z</time>
      </trkpt>
      <trkpt lat="48.73538" lon="1.76424">
        <ele>187.80000305176</ele>
        <time>2011-08-16T13:36:07.000Z</time>
      </trkpt>
      <trkpt lat="48.73525" lon="1.76424">
        <ele>187.80000305176</ele>
        <time>2011-08-16T13:36:15.000Z</time>
      </trkpt>
      <trkpt lat="48.73513" lon="1.76425">
        <ele>187.80000305176</ele>
        <time>2011-08-16T13:36:23.000Z</time>
      </trkpt>
      <trkpt lat="48.73501" lon="1.76424">
        <ele>187.80000305176</ele>
        <time>2011-08-16T13:36:31.000Z</time>
      </trkpt>
      <trkpt lat="48.73486" lon="1.76427">
        <ele>187.19999694824</ele>
        <time>2011-08-16T13:36:40.000Z</time>
      </trkpt>
      <trkpt lat="48.73474" lon="1.76427">
        <ele>186.80000305176</ele>
        <time>2011-08-16T13:36:48.000Z</time>
      </trkpt>
      <trkpt lat="48.7347" lon="1.76428">
        <ele>186.60000610352</ele>
        <time>2011-08-16T13:36:53.000Z</time>
      </trkpt>
      <trkpt lat="48.73459" lon="1.7643">
        <ele>186.19999694824</ele>
        <time>2011-08-16T13:37:00.000Z</time>
      </trkpt>
      <trkpt lat="48.73446" lon="1.76431">
        <ele>185.80000305176</ele>
        <time>2011-08-16T13:37:08.000Z</time>
      </trkpt>
      <trkpt lat="48.73433" lon="1.76433">
        <ele>185.19999694824</ele>
        <time>2011-08-16T13:37:16.000Z</time>
      </trkpt>
      <trkpt lat="48.7342" lon="1.76434">
        <ele>184.80000305176</ele>
        <time>2011-08-16T13:37:25.000Z</time>
      </trkpt>
      <trkpt lat="48.73414" lon="1.76434">
        <ele>184.60000610352</ele>
        <time>2011-08-16T13:37:30.000Z</time>
      </trkpt>
      <trkpt lat="48.73398" lon="1.76435">
        <ele>184.60000610352</ele>
        <time>2011-08-16T13:37:40.000Z</time>
      </trkpt>
      <trkpt lat="48.73381" lon="1.76436">
        <ele>184.60000610352</ele>
        <time>2011-08-16T13:37:50.000Z</time>
      </trkpt>
      <trkpt lat="48.7338" lon="1.76436">
        <ele>184.60000610352</ele>
        <time>2011-08-16T13:37:51.000Z</time>
      </trkpt>
      <trkpt lat="48.73372" lon="1.76433">
        <ele>184.80000305176</ele>
        <time>2011-08-16T13:37:58.000Z</time>
      </trkpt>
      <trkpt lat="48.73361" lon="1.76435">
        <ele>184.60000610352</ele>
        <time>2011-08-16T13:38:05.000Z</time>
      </trkpt>
      <trkpt lat="48.73351" lon="1.76436">
        <ele>184.60000610352</ele>
        <time>2011-08-16T13:38:12.000Z</time>
      </trkpt>
      <trkpt lat="48.73339" lon="1.7644">
        <ele>184.60000610352</ele>
        <time>2011-08-16T13:38:19.000Z</time>
      </trkpt>
      <trkpt lat="48.73329" lon="1.76442">
        <ele>184.60000610352</ele>
        <time>2011-08-16T13:38:26.000Z</time>
      </trkpt>
      <trkpt lat="48.73325" lon="1.76443">
        <ele>184.60000610352</ele>
        <time>2011-08-16T13:38:29.000Z</time>
      </trkpt>
      <trkpt lat="48.73311" lon="1.76444">
        <ele>184.39999389648</ele>
        <time>2011-08-16T13:38:38.000Z</time>
      </trkpt>
      <trkpt lat="48.73297" lon="1.76446">
        <ele>184.39999389648</ele>
        <time>2011-08-16T13:38:46.000Z</time>
      </trkpt>
      <trkpt lat="48.73285" lon="1.76447">
        <ele>184.39999389648</ele>
        <time>2011-08-16T13:38:54.000Z</time>
      </trkpt>
      <trkpt lat="48.73276" lon="1.7645">
        <ele>184.19999694824</ele>
        <time>2011-08-16T13:39:00.000Z</time>
      </trkpt>
      <trkpt lat="48.73274" lon="1.76448">
        <ele>184.19999694824</ele>
        <time>2011-08-16T13:39:02.000Z</time>
      </trkpt>
      <trkpt lat="48.73267" lon="1.76446">
        <ele>184.19999694824</ele>
        <time>2011-08-16T13:39:07.000Z</time>
      </trkpt>
      <trkpt lat="48.73258" lon="1.76447">
        <ele>184.19999694824</ele>
        <time>2011-08-16T13:39:13.000Z</time>
      </trkpt>
      <trkpt lat="48.73255" lon="1.76448">
        <ele>184.19999694824</ele>
        <time>2011-08-16T13:39:15.000Z</time>
      </trkpt>
      <trkpt lat="48.73249" lon="1.76452">
        <ele>184</ele>
        <time>2011-08-16T13:39:20.000Z</time>
      </trkpt>
      <trkpt lat="48.7324" lon="1.76451">
        <ele>184.19999694824</ele>
        <time>2011-08-16T13:39:28.000Z</time>
      </trkpt>
      <trkpt lat="48.73226" lon="1.76452">
        <ele>184.19999694824</ele>
        <time>2011-08-16T13:39:37.000Z</time>
      </trkpt>
      <trkpt lat="48.73216" lon="1.76453">
        <ele>184.19999694824</ele>
        <time>2011-08-16T13:39:44.000Z</time>
      </trkpt>
      <trkpt lat="48.73206" lon="1.76454">
        <ele>184.39999389648</ele>
        <time>2011-08-16T13:39:51.000Z</time>
      </trkpt>
      <trkpt lat="48.732" lon="1.76454">
        <ele>184.39999389648</ele>
        <time>2011-08-16T13:39:56.000Z</time>
      </trkpt>
      <trkpt lat="48.73191" lon="1.76455">
        <ele>184.39999389648</ele>
        <time>2011-08-16T13:40:03.000Z</time>
      </trkpt>
      <trkpt lat="48.73181" lon="1.76456">
        <ele>184.39999389648</ele>
        <time>2011-08-16T13:40:10.000Z</time>
      </trkpt>
      <trkpt lat="48.73169" lon="1.76457">
        <ele>184.39999389648</ele>
        <time>2011-08-16T13:40:18.000Z</time>
      </trkpt>
      <trkpt lat="48.73158" lon="1.76459">
        <ele>184.19999694824</ele>
        <time>2011-08-16T13:40:25.000Z</time>
      </trkpt>
      <trkpt lat="48.7315" lon="1.7646">
        <ele>183.80000305176</ele>
        <time>2011-08-16T13:40:31.000Z</time>
      </trkpt>
      <trkpt lat="48.73139" lon="1.76461">
        <ele>183.60000610352</ele>
        <time>2011-08-16T13:40:38.000Z</time>
      </trkpt>
      <trkpt lat="48.7313" lon="1.76461">
        <ele>183.19999694824</ele>
        <time>2011-08-16T13:40:45.000Z</time>
      </trkpt>
      <trkpt lat="48.73119" lon="1.76462">
        <ele>183</ele>
        <time>2011-08-16T13:40:52.000Z</time>
      </trkpt>
      <trkpt lat="48.7311" lon="1.76464">
        <ele>182.60000610352</ele>
        <time>2011-08-16T13:40:59.000Z</time>
      </trkpt>
      <trkpt lat="48.73103" lon="1.76465">
        <ele>182.39999389648</ele>
        <time>2011-08-16T13:41:04.000Z</time>
      </trkpt>
      <trkpt lat="48.73088" lon="1.76468">
        <ele>182</ele>
        <time>2011-08-16T13:41:13.000Z</time>
      </trkpt>
      <trkpt lat="48.73071" lon="1.7647">
        <ele>181.80000305176</ele>
        <time>2011-08-16T13:41:23.000Z</time>
      </trkpt>
      <trkpt lat="48.73059" lon="1.7647">
        <ele>181.60000610352</ele>
        <time>2011-08-16T13:41:31.000Z</time>
      </trkpt>
      <trkpt lat="48.73046" lon="1.7647">
        <ele>181.39999389648</ele>
        <time>2011-08-16T13:41:40.000Z</time>
      </trkpt>
      <trkpt lat="48.73034" lon="1.76471">
        <ele>181.19999694824</ele>
        <time>2011-08-16T13:41:48.000Z</time>
      </trkpt>
      <trkpt lat="48.73027" lon="1.76467">
        <ele>181.19999694824</ele>
        <time>2011-08-16T13:41:54.000Z</time>
      </trkpt>
      <trkpt lat="48.73019" lon="1.76471">
        <ele>181</ele>
        <time>2011-08-16T13:42:01.000Z</time>
      </trkpt>
      <trkpt lat="48.73007" lon="1.76473">
        <ele>181</ele>
        <time>2011-08-16T13:42:10.000Z</time>
      </trkpt>
      <trkpt lat="48.73006" lon="1.76474">
        <ele>181</ele>
        <time>2011-08-16T13:42:11.000Z</time>
      </trkpt>
      <trkpt lat="48.73001" lon="1.76471">
        <ele>180.80000305176</ele>
        <time>2011-08-16T13:42:15.000Z</time>
      </trkpt>
      <trkpt lat="48.72996" lon="1.76472">
        <ele>181</ele>
        <time>2011-08-16T13:42:20.000Z</time>
      </trkpt>
      <trkpt lat="48.72992" lon="1.76477">
        <ele>181.19999694824</ele>
        <time>2011-08-16T13:42:25.000Z</time>
      </trkpt>
      <trkpt lat="48.72983" lon="1.76476">
        <ele>181.19999694824</ele>
        <time>2011-08-16T13:42:33.000Z</time>
      </trkpt>
      <trkpt lat="48.7298" lon="1.76476">
        <ele>181.19999694824</ele>
        <time>2011-08-16T13:42:35.000Z</time>
      </trkpt>
      <trkpt lat="48.72975" lon="1.7647">
        <ele>181.19999694824</ele>
        <time>2011-08-16T13:42:41.000Z</time>
      </trkpt>
      <trkpt lat="48.72973" lon="1.76455">
        <ele>180.80000305176</ele>
        <time>2011-08-16T13:42:48.000Z</time>
      </trkpt>
      <trkpt lat="48.72975" lon="1.76443">
        <ele>180.39999389648</ele>
        <time>2011-08-16T13:42:55.000Z</time>
      </trkpt>
      <trkpt lat="48.72973" lon="1.76437">
        <ele>180.39999389648</ele>
        <time>2011-08-16T13:42:58.000Z</time>
      </trkpt>
      <trkpt lat="48.72973" lon="1.76424">
        <ele>180</ele>
        <time>2011-08-16T13:43:04.000Z</time>
      </trkpt>
      <trkpt lat="48.72974" lon="1.76412">
        <ele>179.80000305176</ele>
        <time>2011-08-16T13:43:11.000Z</time>
      </trkpt>
      <trkpt lat="48.72977" lon="1.764">
        <ele>179.80000305176</ele>
        <time>2011-08-16T13:43:18.000Z</time>
      </trkpt>
      <trkpt lat="48.7298" lon="1.76388">
        <ele>179.80000305176</ele>
        <time>2011-08-16T13:43:25.000Z</time>
      </trkpt>
      <trkpt lat="48.72982" lon="1.7637">
        <ele>179.60000610352</ele>
        <time>2011-08-16T13:43:34.000Z</time>
      </trkpt>
      <trkpt lat="48.72986" lon="1.76355">
        <ele>179.60000610352</ele>
        <time>2011-08-16T13:43:41.000Z</time>
      </trkpt>
      <trkpt lat="48.72989" lon="1.76341">
        <ele>179.39999389648</ele>
        <time>2011-08-16T13:43:48.000Z</time>
      </trkpt>
      <trkpt lat="48.72989" lon="1.76326">
        <ele>179.39999389648</ele>
        <time>2011-08-16T13:43:55.000Z</time>
      </trkpt>
      <trkpt lat="48.72988" lon="1.76318">
        <ele>179.39999389648</ele>
        <time>2011-08-16T13:43:59.000Z</time>
      </trkpt>
      <trkpt lat="48.72987" lon="1.76306">
        <ele>179.19999694824</ele>
        <time>2011-08-16T13:44:05.000Z</time>
      </trkpt>
      <trkpt lat="48.72986" lon="1.76295">
        <ele>179.19999694824</ele>
        <time>2011-08-16T13:44:12.000Z</time>
      </trkpt>
      <trkpt lat="48.72986" lon="1.76294">
        <ele>179</ele>
        <time>2011-08-16T13:44:15.000Z</time>
      </trkpt>
      <trkpt lat="48.72996" lon="1.7629">
        <ele>179</ele>
        <time>2011-08-16T13:46:03.000Z</time>
      </trkpt>
      <trkpt lat="48.72996" lon="1.76272">
        <ele>178.80000305176</ele>
        <time>2011-08-16T13:46:10.000Z</time>
      </trkpt>
      <trkpt lat="48.72997" lon="1.76254">
        <ele>178.80000305176</ele>
        <time>2011-08-16T13:46:17.000Z</time>
      </trkpt>
      <trkpt lat="48.72998" lon="1.76241">
        <ele>178.80000305176</ele>
        <time>2011-08-16T13:46:23.000Z</time>
      </trkpt>
      <trkpt lat="48.73002" lon="1.7622">
        <ele>178.60000610352</ele>
        <time>2011-08-16T13:46:31.000Z</time>
      </trkpt>
      <trkpt lat="48.73005" lon="1.76201">
        <ele>178.60000610352</ele>
        <time>2011-08-16T13:46:39.000Z</time>
      </trkpt>
      <trkpt lat="48.73008" lon="1.76185">
        <ele>178.60000610352</ele>
        <time>2011-08-16T13:46:46.000Z</time>
      </trkpt>
      <trkpt lat="48.73011" lon="1.76169">
        <ele>178.60000610352</ele>
        <time>2011-08-16T13:46:52.000Z</time>
      </trkpt>
      <trkpt lat="48.73012" lon="1.76148">
        <ele>178.60000610352</ele>
        <time>2011-08-16T13:46:57.000Z</time>
      </trkpt>
      <trkpt lat="48.73013" lon="1.76134">
        <ele>178.80000305176</ele>
        <time>2011-08-16T13:47:03.000Z</time>
      </trkpt>
      <trkpt lat="48.7301" lon="1.76122">
        <ele>178.60000610352</ele>
        <time>2011-08-16T13:47:08.000Z</time>
      </trkpt>
      <trkpt lat="48.73012" lon="1.76101">
        <ele>178.80000305176</ele>
        <time>2011-08-16T13:47:17.000Z</time>
      </trkpt>
      <trkpt lat="48.73013" lon="1.76087">
        <ele>179</ele>
        <time>2011-08-16T13:47:23.000Z</time>
      </trkpt>
      <trkpt lat="48.73016" lon="1.76071">
        <ele>179.19999694824</ele>
        <time>2011-08-16T13:47:30.000Z</time>
      </trkpt>
      <trkpt lat="48.73017" lon="1.76067">
        <ele>179.19999694824</ele>
        <time>2011-08-16T13:47:32.000Z</time>
      </trkpt>
      <trkpt lat="48.73017" lon="1.76048">
        <ele>179.19999694824</ele>
        <time>2011-08-16T13:47:40.000Z</time>
      </trkpt>
      <trkpt lat="48.7302" lon="1.76031">
        <ele>179.19999694824</ele>
        <time>2011-08-16T13:47:47.000Z</time>
      </trkpt>
      <trkpt lat="48.73021" lon="1.76024">
        <ele>179.19999694824</ele>
        <time>2011-08-16T13:47:50.000Z</time>
      </trkpt>
      <trkpt lat="48.73023" lon="1.7601">
        <ele>179.39999389648</ele>
        <time>2011-08-16T13:47:56.000Z</time>
      </trkpt>
      <trkpt lat="48.73022" lon="1.76005">
        <ele>179.19999694824</ele>
        <time>2011-08-16T13:47:58.000Z</time>
      </trkpt>
      <trkpt lat="48.73023" lon="1.75994">
        <ele>179.39999389648</ele>
        <time>2011-08-16T13:48:03.000Z</time>
      </trkpt>
      <trkpt lat="48.73023" lon="1.7598">
        <ele>179.80000305176</ele>
        <time>2011-08-16T13:48:08.000Z</time>
      </trkpt>
      <trkpt lat="48.73027" lon="1.75967">
        <ele>180.39999389648</ele>
        <time>2011-08-16T13:48:14.000Z</time>
      </trkpt>
      <trkpt lat="48.73027" lon="1.75961">
        <ele>180.39999389648</ele>
        <time>2011-08-16T13:48:17.000Z</time>
      </trkpt>
      <trkpt lat="48.73028" lon="1.75955">
        <ele>180.60000610352</ele>
        <time>2011-08-16T13:48:22.000Z</time>
      </trkpt>
      <trkpt lat="48.73026" lon="1.75953">
        <ele>180.60000610352</ele>
        <time>2011-08-16T13:48:30.000Z</time>
      </trkpt>
      <trkpt lat="48.73025" lon="1.7594">
        <ele>180.80000305176</ele>
        <time>2011-08-16T13:48:51.000Z</time>
      </trkpt>
      <trkpt lat="48.73025" lon="1.7592">
        <ele>181.39999389648</ele>
        <time>2011-08-16T13:49:00.000Z</time>
      </trkpt>
      <trkpt lat="48.73025" lon="1.75913">
        <ele>181.60000610352</ele>
        <time>2011-08-16T13:49:03.000Z</time>
      </trkpt>
      <trkpt lat="48.73024" lon="1.7591">
        <ele>181.60000610352</ele>
        <time>2011-08-16T13:49:05.000Z</time>
      </trkpt>
      <trkpt lat="48.73025" lon="1.75896">
        <ele>181.60000610352</ele>
        <time>2011-08-16T13:49:12.000Z</time>
      </trkpt>
      <trkpt lat="48.73025" lon="1.75886">
        <ele>181.80000305176</ele>
        <time>2011-08-16T13:49:17.000Z</time>
      </trkpt>
      <trkpt lat="48.73026" lon="1.75871">
        <ele>182</ele>
        <time>2011-08-16T13:49:23.000Z</time>
      </trkpt>
      <trkpt lat="48.7303" lon="1.75859">
        <ele>182</ele>
        <time>2011-08-16T13:49:29.000Z</time>
      </trkpt>
      <trkpt lat="48.73032" lon="1.75848">
        <ele>182</ele>
        <time>2011-08-16T13:49:34.000Z</time>
      </trkpt>
      <trkpt lat="48.73031" lon="1.75842">
        <ele>182.19999694824</ele>
        <time>2011-08-16T13:49:37.000Z</time>
      </trkpt>
      <trkpt lat="48.73031" lon="1.75835">
        <ele>182.19999694824</ele>
        <time>2011-08-16T13:49:40.000Z</time>
      </trkpt>
      <trkpt lat="48.73033" lon="1.75826">
        <ele>182</ele>
        <time>2011-08-16T13:49:44.000Z</time>
      </trkpt>
      <trkpt lat="48.73035" lon="1.75815">
        <ele>181.80000305176</ele>
        <time>2011-08-16T13:49:49.000Z</time>
      </trkpt>
      <trkpt lat="48.73035" lon="1.75798">
        <ele>181.60000610352</ele>
        <time>2011-08-16T13:49:57.000Z</time>
      </trkpt>
      <trkpt lat="48.73035" lon="1.7578">
        <ele>181.39999389648</ele>
        <time>2011-08-16T13:50:06.000Z</time>
      </trkpt>
      <trkpt lat="48.73035" lon="1.7577">
        <ele>181.19999694824</ele>
        <time>2011-08-16T13:50:10.000Z</time>
      </trkpt>
      <trkpt lat="48.73035" lon="1.75754">
        <ele>181</ele>
        <time>2011-08-16T13:50:17.000Z</time>
      </trkpt>
      <trkpt lat="48.73038" lon="1.75736">
        <ele>180.80000305176</ele>
        <time>2011-08-16T13:50:24.000Z</time>
      </trkpt>
      <trkpt lat="48.7304" lon="1.75728">
        <ele>180.80000305176</ele>
        <time>2011-08-16T13:50:28.000Z</time>
      </trkpt>
      <trkpt lat="48.73042" lon="1.75713">
        <ele>180.80000305176</ele>
        <time>2011-08-16T13:50:34.000Z</time>
      </trkpt>
      <trkpt lat="48.73043" lon="1.75711">
        <ele>181</ele>
        <time>2011-08-16T13:50:35.000Z</time>
      </trkpt>
      <trkpt lat="48.73047" lon="1.75692">
        <ele>181</ele>
        <time>2011-08-16T13:50:44.000Z</time>
      </trkpt>
      <trkpt lat="48.7305" lon="1.75679">
        <ele>181</ele>
        <time>2011-08-16T13:50:50.000Z</time>
      </trkpt>
      <trkpt lat="48.7305" lon="1.75663">
        <ele>181.19999694824</ele>
        <time>2011-08-16T13:50:57.000Z</time>
      </trkpt>
      <trkpt lat="48.7305" lon="1.75659">
        <ele>181.19999694824</ele>
        <time>2011-08-16T13:50:59.000Z</time>
      </trkpt>
      <trkpt lat="48.73051" lon="1.7564">
        <ele>181.60000610352</ele>
        <time>2011-08-16T13:51:06.000Z</time>
      </trkpt>
      <trkpt lat="48.73054" lon="1.75626">
        <ele>181.80000305176</ele>
        <time>2011-08-16T13:51:12.000Z</time>
      </trkpt>
      <trkpt lat="48.73055" lon="1.75613">
        <ele>182</ele>
        <time>2011-08-16T13:51:18.000Z</time>
      </trkpt>
      <trkpt lat="48.73056" lon="1.756">
        <ele>182.39999389648</ele>
        <time>2011-08-16T13:51:24.000Z</time>
      </trkpt>
      <trkpt lat="48.73056" lon="1.75598">
        <ele>182.39999389648</ele>
        <time>2011-08-16T13:51:25.000Z</time>
      </trkpt>
      <trkpt lat="48.73054" lon="1.75587">
        <ele>182.39999389648</ele>
        <time>2011-08-16T13:51:32.000Z</time>
      </trkpt>
      <trkpt lat="48.73054" lon="1.75575">
        <ele>182.39999389648</ele>
        <time>2011-08-16T13:51:37.000Z</time>
      </trkpt>
      <trkpt lat="48.73051" lon="1.75563">
        <ele>182.19999694824</ele>
        <time>2011-08-16T13:51:42.000Z</time>
      </trkpt>
      <trkpt lat="48.73052" lon="1.7556">
        <ele>182.19999694824</ele>
        <time>2011-08-16T13:51:43.000Z</time>
      </trkpt>
      <trkpt lat="48.73053" lon="1.75548">
        <ele>182.19999694824</ele>
        <time>2011-08-16T13:51:48.000Z</time>
      </trkpt>
      <trkpt lat="48.73054" lon="1.75534">
        <ele>182</ele>
        <time>2011-08-16T13:51:53.000Z</time>
      </trkpt>
      <trkpt lat="48.73055" lon="1.75522">
        <ele>182</ele>
        <time>2011-08-16T13:51:58.000Z</time>
      </trkpt>
      <trkpt lat="48.73056" lon="1.75499">
        <ele>181.80000305176</ele>
        <time>2011-08-16T13:52:08.000Z</time>
      </trkpt>
      <trkpt lat="48.73057" lon="1.75488">
        <ele>181.39999389648</ele>
        <time>2011-08-16T13:52:13.000Z</time>
      </trkpt>
      <trkpt lat="48.73058" lon="1.75483">
        <ele>181.19999694824</ele>
        <time>2011-08-16T13:52:16.000Z</time>
      </trkpt>
      <trkpt lat="48.73054" lon="1.75475">
        <ele>180.39999389648</ele>
        <time>2011-08-16T13:52:24.000Z</time>
      </trkpt>
      <trkpt lat="48.73053" lon="1.75474">
        <ele>180.39999389648</ele>
        <time>2011-08-16T13:52:27.000Z</time>
      </trkpt>
      <trkpt lat="48.73057" lon="1.75462">
        <ele>180</ele>
        <time>2011-08-16T13:52:41.000Z</time>
      </trkpt>
      <trkpt lat="48.73057" lon="1.75452">
        <ele>179.60000610352</ele>
        <time>2011-08-16T13:52:44.000Z</time>
      </trkpt>
      <trkpt lat="48.73058" lon="1.75443">
        <ele>179.19999694824</ele>
        <time>2011-08-16T13:52:49.000Z</time>
      </trkpt>
      <trkpt lat="48.73058" lon="1.75441">
        <ele>179</ele>
        <time>2011-08-16T13:52:50.000Z</time>
      </trkpt>
      <trkpt lat="48.7306" lon="1.7543">
        <ele>178.60000610352</ele>
        <time>2011-08-16T13:52:56.000Z</time>
      </trkpt>
      <trkpt lat="48.73059" lon="1.75418">
        <ele>178</ele>
        <time>2011-08-16T13:53:02.000Z</time>
      </trkpt>
      <trkpt lat="48.73056" lon="1.75409">
        <ele>177.19999694824</ele>
        <time>2011-08-16T13:53:06.000Z</time>
      </trkpt>
      <trkpt lat="48.73056" lon="1.7539">
        <ele>176.19999694824</ele>
        <time>2011-08-16T13:53:13.000Z</time>
      </trkpt>
      <trkpt lat="48.73056" lon="1.75376">
        <ele>175.39999389648</ele>
        <time>2011-08-16T13:53:17.000Z</time>
      </trkpt>
      <trkpt lat="48.73056" lon="1.75373">
        <ele>175.19999694824</ele>
        <time>2011-08-16T13:53:18.000Z</time>
      </trkpt>
      <trkpt lat="48.73057" lon="1.75359">
        <ele>174.39999389648</ele>
        <time>2011-08-16T13:53:22.000Z</time>
      </trkpt>
      <trkpt lat="48.73058" lon="1.75352">
        <ele>174.19999694824</ele>
        <time>2011-08-16T13:53:25.000Z</time>
      </trkpt>
      <trkpt lat="48.73061" lon="1.75335">
        <ele>173.60000610352</ele>
        <time>2011-08-16T13:53:32.000Z</time>
      </trkpt>
      <trkpt lat="48.73062" lon="1.75325">
        <ele>173</ele>
        <time>2011-08-16T13:53:36.000Z</time>
      </trkpt>
      <trkpt lat="48.73064" lon="1.75306">
        <ele>171.80000305176</ele>
        <time>2011-08-16T13:53:44.000Z</time>
      </trkpt>
      <trkpt lat="48.73064" lon="1.75293">
        <ele>171</ele>
        <time>2011-08-16T13:53:49.000Z</time>
      </trkpt>
      <trkpt lat="48.73063" lon="1.75278">
        <ele>170</ele>
        <time>2011-08-16T13:53:56.000Z</time>
      </trkpt>
      <trkpt lat="48.73064" lon="1.75264">
        <ele>169</ele>
        <time>2011-08-16T13:54:02.000Z</time>
      </trkpt>
      <trkpt lat="48.73064" lon="1.75261">
        <ele>168.80000305176</ele>
        <time>2011-08-16T13:54:03.000Z</time>
      </trkpt>
      <trkpt lat="48.73067" lon="1.75234">
        <ele>167.39999389648</ele>
        <time>2011-08-16T13:54:10.000Z</time>
      </trkpt>
      <trkpt lat="48.73068" lon="1.75218">
        <ele>166.39999389648</ele>
        <time>2011-08-16T13:54:16.000Z</time>
      </trkpt>
      <trkpt lat="48.73069" lon="1.75205">
        <ele>165.39999389648</ele>
        <time>2011-08-16T13:54:21.000Z</time>
      </trkpt>
      <trkpt lat="48.73072" lon="1.75192">
        <ele>164.80000305176</ele>
        <time>2011-08-16T13:54:26.000Z</time>
      </trkpt>
      <trkpt lat="48.73073" lon="1.75183">
        <ele>164.19999694824</ele>
        <time>2011-08-16T13:54:30.000Z</time>
      </trkpt>
      <trkpt lat="48.73074" lon="1.75169">
        <ele>163.19999694824</ele>
        <time>2011-08-16T13:54:36.000Z</time>
      </trkpt>
      <trkpt lat="48.73075" lon="1.75152">
        <ele>161.80000305176</ele>
        <time>2011-08-16T13:54:44.000Z</time>
      </trkpt>
      <trkpt lat="48.73066" lon="1.75131">
        <ele>159.60000610352</ele>
        <time>2011-08-16T13:54:52.000Z</time>
      </trkpt>
      <trkpt lat="48.7307" lon="1.75113">
        <ele>158.39999389648</ele>
        <time>2011-08-16T13:54:58.000Z</time>
      </trkpt>
      <trkpt lat="48.73069" lon="1.75099">
        <ele>157.39999389648</ele>
        <time>2011-08-16T13:55:03.000Z</time>
      </trkpt>
      <trkpt lat="48.73068" lon="1.75092">
        <ele>156.60000610352</ele>
        <time>2011-08-16T13:55:06.000Z</time>
      </trkpt>
      <trkpt lat="48.73064" lon="1.75085">
        <ele>155.80000305176</ele>
        <time>2011-08-16T13:55:09.000Z</time>
      </trkpt>
      <trkpt lat="48.73062" lon="1.75072">
        <ele>155.19999694824</ele>
        <time>2011-08-16T13:55:14.000Z</time>
      </trkpt>
      <trkpt lat="48.73064" lon="1.75054">
        <ele>154.60000610352</ele>
        <time>2011-08-16T13:55:22.000Z</time>
      </trkpt>
      <trkpt lat="48.73064" lon="1.75038">
        <ele>154</ele>
        <time>2011-08-16T13:55:29.000Z</time>
      </trkpt>
      <trkpt lat="48.73066" lon="1.75023">
        <ele>153.60000610352</ele>
        <time>2011-08-16T13:55:35.000Z</time>
      </trkpt>
      <trkpt lat="48.73067" lon="1.75015">
        <ele>153.39999389648</ele>
        <time>2011-08-16T13:55:38.000Z</time>
      </trkpt>
      <trkpt lat="48.73066" lon="1.75008">
        <ele>153</ele>
        <time>2011-08-16T13:55:40.000Z</time>
      </trkpt>
      <trkpt lat="48.73068" lon="1.74991">
        <ele>152.60000610352</ele>
        <time>2011-08-16T13:55:47.000Z</time>
      </trkpt>
      <trkpt lat="48.73069" lon="1.74974">
        <ele>152</ele>
        <time>2011-08-16T13:55:54.000Z</time>
      </trkpt>
      <trkpt lat="48.73067" lon="1.74959">
        <ele>151.39999389648</ele>
        <time>2011-08-16T13:55:59.000Z</time>
      </trkpt>
      <trkpt lat="48.73064" lon="1.74949">
        <ele>151</ele>
        <time>2011-08-16T13:56:04.000Z</time>
      </trkpt>
      <trkpt lat="48.73062" lon="1.74946">
        <ele>150.80000305176</ele>
        <time>2011-08-16T13:56:06.000Z</time>
      </trkpt>
      <trkpt lat="48.73061" lon="1.74934">
        <ele>150.39999389648</ele>
        <time>2011-08-16T13:56:12.000Z</time>
      </trkpt>
      <trkpt lat="48.73061" lon="1.74932">
        <ele>150.19999694824</ele>
        <time>2011-08-16T13:56:13.000Z</time>
      </trkpt>
      <trkpt lat="48.7306" lon="1.74922">
        <ele>150</ele>
        <time>2011-08-16T13:56:18.000Z</time>
      </trkpt>
      <trkpt lat="48.73057" lon="1.74917">
        <ele>149.60000610352</ele>
        <time>2011-08-16T13:56:21.000Z</time>
      </trkpt>
      <trkpt lat="48.73053" lon="1.74903">
        <ele>149</ele>
        <time>2011-08-16T13:56:27.000Z</time>
      </trkpt>
      <trkpt lat="48.73054" lon="1.74895">
        <ele>149</ele>
        <time>2011-08-16T13:56:31.000Z</time>
      </trkpt>
      <trkpt lat="48.73057" lon="1.74881">
        <ele>148.60000610352</ele>
        <time>2011-08-16T13:56:36.000Z</time>
      </trkpt>
      <trkpt lat="48.73051" lon="1.74861">
        <ele>148</ele>
        <time>2011-08-16T13:56:42.000Z</time>
      </trkpt>
      <trkpt lat="48.73052" lon="1.74845">
        <ele>147.60000610352</ele>
        <time>2011-08-16T13:56:47.000Z</time>
      </trkpt>
      <trkpt lat="48.73047" lon="1.74826">
        <ele>147.39999389648</ele>
        <time>2011-08-16T13:56:51.000Z</time>
      </trkpt>
      <trkpt lat="48.73043" lon="1.74801">
        <ele>147.39999389648</ele>
        <time>2011-08-16T13:56:56.000Z</time>
      </trkpt>
      <trkpt lat="48.73042" lon="1.74768">
        <ele>147.39999389648</ele>
        <time>2011-08-16T13:57:02.000Z</time>
      </trkpt>
      <trkpt lat="48.73041" lon="1.74753">
        <ele>147.39999389648</ele>
        <time>2011-08-16T13:57:05.000Z</time>
      </trkpt>
      <trkpt lat="48.73035" lon="1.7472">
        <ele>147</ele>
        <time>2011-08-16T13:57:11.000Z</time>
      </trkpt>
      <trkpt lat="48.73029" lon="1.74699">
        <ele>146.80000305176</ele>
        <time>2011-08-16T13:57:15.000Z</time>
      </trkpt>
      <trkpt lat="48.73021" lon="1.7467">
        <ele>146.39999389648</ele>
        <time>2011-08-16T13:57:21.000Z</time>
      </trkpt>
      <trkpt lat="48.73009" lon="1.74644">
        <ele>145.80000305176</ele>
        <time>2011-08-16T13:57:26.000Z</time>
      </trkpt>
      <trkpt lat="48.72996" lon="1.74624">
        <ele>145.19999694824</ele>
        <time>2011-08-16T13:57:31.000Z</time>
      </trkpt>
      <trkpt lat="48.72978" lon="1.74603">
        <ele>144</ele>
        <time>2011-08-16T13:57:37.000Z</time>
      </trkpt>
      <trkpt lat="48.72967" lon="1.74588">
        <ele>143.60000610352</ele>
        <time>2011-08-16T13:57:41.000Z</time>
      </trkpt>
      <trkpt lat="48.72956" lon="1.74558">
        <ele>143.19999694824</ele>
        <time>2011-08-16T13:57:47.000Z</time>
      </trkpt>
      <trkpt lat="48.72956" lon="1.74537">
        <ele>143.19999694824</ele>
        <time>2011-08-16T13:57:51.000Z</time>
      </trkpt>
      <trkpt lat="48.72969" lon="1.74525">
        <ele>143</ele>
        <time>2011-08-16T13:57:56.000Z</time>
      </trkpt>
      <trkpt lat="48.72975" lon="1.74519">
        <ele>142.80000305176</ele>
        <time>2011-08-16T13:57:59.000Z</time>
      </trkpt>
      <trkpt lat="48.72983" lon="1.74504">
        <ele>142.39999389648</ele>
        <time>2011-08-16T13:58:06.000Z</time>
      </trkpt>
      <trkpt lat="48.72995" lon="1.74496">
        <ele>142</ele>
        <time>2011-08-16T13:58:13.000Z</time>
      </trkpt>
      <trkpt lat="48.73002" lon="1.7449">
        <ele>141.80000305176</ele>
        <time>2011-08-16T13:58:17.000Z</time>
      </trkpt>
      <trkpt lat="48.73013" lon="1.74483">
        <ele>141.39999389648</ele>
        <time>2011-08-16T13:58:23.000Z</time>
      </trkpt>
      <trkpt lat="48.73024" lon="1.74476">
        <ele>141.19999694824</ele>
        <time>2011-08-16T13:58:30.000Z</time>
      </trkpt>
      <trkpt lat="48.73031" lon="1.74472">
        <ele>141</ele>
        <time>2011-08-16T13:58:34.000Z</time>
      </trkpt>
      <trkpt lat="48.73041" lon="1.74465">
        <ele>140.80000305176</ele>
        <time>2011-08-16T13:58:40.000Z</time>
      </trkpt>
      <trkpt lat="48.73042" lon="1.74451">
        <ele>140.60000610352</ele>
        <time>2011-08-16T13:58:45.000Z</time>
      </trkpt>
      <trkpt lat="48.73041" lon="1.74445">
        <ele>140.60000610352</ele>
        <time>2011-08-16T13:58:47.000Z</time>
      </trkpt>
      <trkpt lat="48.73036" lon="1.74424">
        <ele>140.60000610352</ele>
        <time>2011-08-16T13:58:53.000Z</time>
      </trkpt>
      <trkpt lat="48.73032" lon="1.74402">
        <ele>140.60000610352</ele>
        <time>2011-08-16T13:58:57.000Z</time>
      </trkpt>
      <trkpt lat="48.73025" lon="1.7437">
        <ele>141</ele>
        <time>2011-08-16T13:59:03.000Z</time>
      </trkpt>
      <trkpt lat="48.73025" lon="1.74341">
        <ele>141.19999694824</ele>
        <time>2011-08-16T13:59:08.000Z</time>
      </trkpt>
      <trkpt lat="48.73024" lon="1.7432">
        <ele>141.39999389648</ele>
        <time>2011-08-16T13:59:12.000Z</time>
      </trkpt>
      <trkpt lat="48.73022" lon="1.74298">
        <ele>141.39999389648</ele>
        <time>2011-08-16T13:59:16.000Z</time>
      </trkpt>
      <trkpt lat="48.73022" lon="1.74279">
        <ele>141.60000610352</ele>
        <time>2011-08-16T13:59:20.000Z</time>
      </trkpt>
      <trkpt lat="48.73021" lon="1.74257">
        <ele>141.60000610352</ele>
        <time>2011-08-16T13:59:24.000Z</time>
      </trkpt>
      <trkpt lat="48.73015" lon="1.74232">
        <ele>141.39999389648</ele>
        <time>2011-08-16T13:59:28.000Z</time>
      </trkpt>
      <trkpt lat="48.73008" lon="1.74202">
        <ele>141.19999694824</ele>
        <time>2011-08-16T13:59:33.000Z</time>
      </trkpt>
      <trkpt lat="48.73001" lon="1.74179">
        <ele>141</ele>
        <time>2011-08-16T13:59:37.000Z</time>
      </trkpt>
      <trkpt lat="48.72999" lon="1.74156">
        <ele>140.60000610352</ele>
        <time>2011-08-16T13:59:41.000Z</time>
      </trkpt>
      <trkpt lat="48.72995" lon="1.74117">
        <ele>139.60000610352</ele>
        <time>2011-08-16T13:59:48.000Z</time>
      </trkpt>
      <trkpt lat="48.72996" lon="1.74089">
        <ele>139</ele>
        <time>2011-08-16T13:59:53.000Z</time>
      </trkpt>
      <trkpt lat="48.72993" lon="1.74071">
        <ele>138.60000610352</ele>
        <time>2011-08-16T13:59:57.000Z</time>
      </trkpt>
      <trkpt lat="48.72995" lon="1.7402">
        <ele>138.19999694824</ele>
        <time>2011-08-16T14:00:05.000Z</time>
      </trkpt>
      <trkpt lat="48.72997" lon="1.73989">
        <ele>137.80000305176</ele>
        <time>2011-08-16T14:00:10.000Z</time>
      </trkpt>
      <trkpt lat="48.72998" lon="1.73972">
        <ele>137.80000305176</ele>
        <time>2011-08-16T14:00:13.000Z</time>
      </trkpt>
      <trkpt lat="48.72994" lon="1.73948">
        <ele>137.80000305176</ele>
        <time>2011-08-16T14:00:17.000Z</time>
      </trkpt>
      <trkpt lat="48.72986" lon="1.73927">
        <ele>137.80000305176</ele>
        <time>2011-08-16T14:00:21.000Z</time>
      </trkpt>
      <trkpt lat="48.72977" lon="1.73913">
        <ele>137.60000610352</ele>
        <time>2011-08-16T14:00:24.000Z</time>
      </trkpt>
      <trkpt lat="48.72963" lon="1.739">
        <ele>137</ele>
        <time>2011-08-16T14:00:29.000Z</time>
      </trkpt>
      <trkpt lat="48.72944" lon="1.7388">
        <ele>136.39999389648</ele>
        <time>2011-08-16T14:00:35.000Z</time>
      </trkpt>
      <trkpt lat="48.72925" lon="1.73861">
        <ele>135.60000610352</ele>
        <time>2011-08-16T14:00:41.000Z</time>
      </trkpt>
      <trkpt lat="48.72911" lon="1.73846">
        <ele>135.19999694824</ele>
        <time>2011-08-16T14:00:46.000Z</time>
      </trkpt>
      <trkpt lat="48.72895" lon="1.7383">
        <ele>134.80000305176</ele>
        <time>2011-08-16T14:00:51.000Z</time>
      </trkpt>
      <trkpt lat="48.72874" lon="1.73807">
        <ele>134.39999389648</ele>
        <time>2011-08-16T14:00:58.000Z</time>
      </trkpt>
      <trkpt lat="48.72853" lon="1.73785">
        <ele>133.80000305176</ele>
        <time>2011-08-16T14:01:05.000Z</time>
      </trkpt>
      <trkpt lat="48.72832" lon="1.73762">
        <ele>133.19999694824</ele>
        <time>2011-08-16T14:01:12.000Z</time>
      </trkpt>
      <trkpt lat="48.72813" lon="1.7374">
        <ele>132.39999389648</ele>
        <time>2011-08-16T14:01:18.000Z</time>
      </trkpt>
      <trkpt lat="48.72797" lon="1.73723">
        <ele>131.80000305176</ele>
        <time>2011-08-16T14:01:23.000Z</time>
      </trkpt>
      <trkpt lat="48.72782" lon="1.73707">
        <ele>131.39999389648</ele>
        <time>2011-08-16T14:01:28.000Z</time>
      </trkpt>
      <trkpt lat="48.72757" lon="1.73681">
        <ele>131</ele>
        <time>2011-08-16T14:01:36.000Z</time>
      </trkpt>
      <trkpt lat="48.72745" lon="1.73669">
        <ele>130.80000305176</ele>
        <time>2011-08-16T14:01:40.000Z</time>
      </trkpt>
      <trkpt lat="48.72729" lon="1.73654">
        <ele>130.19999694824</ele>
        <time>2011-08-16T14:01:46.000Z</time>
      </trkpt>
      <trkpt lat="48.72715" lon="1.73638">
        <ele>129.60000610352</ele>
        <time>2011-08-16T14:01:52.000Z</time>
      </trkpt>
      <trkpt lat="48.72711" lon="1.73631">
        <ele>129.39999389648</ele>
        <time>2011-08-16T14:01:57.000Z</time>
      </trkpt>
      <trkpt lat="48.72709" lon="1.73627">
        <ele>129.19999694824</ele>
        <time>2011-08-16T14:01:59.000Z</time>
      </trkpt>
      <trkpt lat="48.72703" lon="1.73621">
        <ele>129</ele>
        <time>2011-08-16T14:02:04.000Z</time>
      </trkpt>
      <trkpt lat="48.72693" lon="1.73616">
        <ele>128.80000305176</ele>
        <time>2011-08-16T14:02:12.000Z</time>
      </trkpt>
      <trkpt lat="48.72692" lon="1.73615">
        <ele>128.80000305176</ele>
        <time>2011-08-16T14:02:15.000Z</time>
      </trkpt>
      <trkpt lat="48.7269" lon="1.73613">
        <ele>128.80000305176</ele>
        <time>2011-08-16T14:02:20.000Z</time>
      </trkpt>
      <trkpt lat="48.72684" lon="1.73608">
        <ele>128.60000610352</ele>
        <time>2011-08-16T14:02:23.000Z</time>
      </trkpt>
      <trkpt lat="48.72677" lon="1.73601">
        <ele>128.39999389648</ele>
        <time>2011-08-16T14:02:29.000Z</time>
      </trkpt>
      <trkpt lat="48.72676" lon="1.736">
        <ele>128.39999389648</ele>
        <time>2011-08-16T14:02:30.000Z</time>
      </trkpt>
      <trkpt lat="48.72664" lon="1.7359">
        <ele>128</ele>
        <time>2011-08-16T14:02:38.000Z</time>
      </trkpt>
      <trkpt lat="48.72661" lon="1.73588">
        <ele>128</ele>
        <time>2011-08-16T14:02:40.000Z</time>
      </trkpt>
      <trkpt lat="48.72653" lon="1.73577">
        <ele>127.80000305176</ele>
        <time>2011-08-16T14:02:47.000Z</time>
      </trkpt>
      <trkpt lat="48.72643" lon="1.73569">
        <ele>127.80000305176</ele>
        <time>2011-08-16T14:02:53.000Z</time>
      </trkpt>
      <trkpt lat="48.7264" lon="1.73568">
        <ele>127.80000305176</ele>
        <time>2011-08-16T14:02:54.000Z</time>
      </trkpt>
      <trkpt lat="48.72624" lon="1.73552">
        <ele>127.80000305176</ele>
        <time>2011-08-16T14:03:00.000Z</time>
      </trkpt>
      <trkpt lat="48.72621" lon="1.7355">
        <ele>127.59999847412</ele>
        <time>2011-08-16T14:03:01.000Z</time>
      </trkpt>
      <trkpt lat="48.72598" lon="1.73526">
        <ele>127.40000152588</ele>
        <time>2011-08-16T14:03:09.000Z</time>
      </trkpt>
      <trkpt lat="48.72585" lon="1.73509">
        <ele>127</ele>
        <time>2011-08-16T14:03:14.000Z</time>
      </trkpt>
      <trkpt lat="48.72572" lon="1.73498">
        <ele>127.19999694824</ele>
        <time>2011-08-16T14:03:18.000Z</time>
      </trkpt>
      <trkpt lat="48.72561" lon="1.73488">
        <ele>127.59999847412</ele>
        <time>2011-08-16T14:03:22.000Z</time>
      </trkpt>
      <trkpt lat="48.72556" lon="1.73482">
        <ele>127.80000305176</ele>
        <time>2011-08-16T14:03:26.000Z</time>
      </trkpt>
      <trkpt lat="48.72553" lon="1.73475">
        <ele>128</ele>
        <time>2011-08-16T14:03:30.000Z</time>
      </trkpt>
      <trkpt lat="48.72545" lon="1.73469">
        <ele>128.19999694824</ele>
        <time>2011-08-16T14:03:34.000Z</time>
      </trkpt>
      <trkpt lat="48.72533" lon="1.73462">
        <ele>128.39999389648</ele>
        <time>2011-08-16T14:03:38.000Z</time>
      </trkpt>
      <trkpt lat="48.72513" lon="1.73452">
        <ele>128.80000305176</ele>
        <time>2011-08-16T14:03:45.000Z</time>
      </trkpt>
      <trkpt lat="48.72498" lon="1.73448">
        <ele>128.80000305176</ele>
        <time>2011-08-16T14:03:50.000Z</time>
      </trkpt>
      <trkpt lat="48.72482" lon="1.73445">
        <ele>128.19999694824</ele>
        <time>2011-08-16T14:03:55.000Z</time>
      </trkpt>
      <trkpt lat="48.72462" lon="1.73444">
        <ele>127.59999847412</ele>
        <time>2011-08-16T14:04:00.000Z</time>
      </trkpt>
      <trkpt lat="48.72435" lon="1.73437">
        <ele>126.59999847412</ele>
        <time>2011-08-16T14:04:07.000Z</time>
      </trkpt>
      <trkpt lat="48.72412" lon="1.73429">
        <ele>126</ele>
        <time>2011-08-16T14:04:13.000Z</time>
      </trkpt>
      <trkpt lat="48.72395" lon="1.73426">
        <ele>126.40000152588</ele>
        <time>2011-08-16T14:04:18.000Z</time>
      </trkpt>
      <trkpt lat="48.7238" lon="1.73424">
        <ele>126.80000305176</ele>
        <time>2011-08-16T14:04:23.000Z</time>
      </trkpt>
      <trkpt lat="48.72362" lon="1.73419">
        <ele>127.19999694824</ele>
        <time>2011-08-16T14:04:28.000Z</time>
      </trkpt>
      <trkpt lat="48.72346" lon="1.73416">
        <ele>127.59999847412</ele>
        <time>2011-08-16T14:04:33.000Z</time>
      </trkpt>
      <trkpt lat="48.72332" lon="1.73416">
        <ele>127.80000305176</ele>
        <time>2011-08-16T14:04:37.000Z</time>
      </trkpt>
      <trkpt lat="48.72318" lon="1.73416">
        <ele>127.80000305176</ele>
        <time>2011-08-16T14:04:42.000Z</time>
      </trkpt>
      <trkpt lat="48.72312" lon="1.7341">
        <ele>127.80000305176</ele>
        <time>2011-08-16T14:04:45.000Z</time>
      </trkpt>
      <trkpt lat="48.72301" lon="1.73411">
        <ele>127.80000305176</ele>
        <time>2011-08-16T14:04:49.000Z</time>
      </trkpt>
      <trkpt lat="48.72291" lon="1.73405">
        <ele>127.80000305176</ele>
        <time>2011-08-16T14:04:53.000Z</time>
      </trkpt>
      <trkpt lat="48.72283" lon="1.73403">
        <ele>127.80000305176</ele>
        <time>2011-08-16T14:04:57.000Z</time>
      </trkpt>
      <trkpt lat="48.7228" lon="1.73405">
        <ele>127.80000305176</ele>
        <time>2011-08-16T14:04:59.000Z</time>
      </trkpt>
      <trkpt lat="48.72273" lon="1.734">
        <ele>127.80000305176</ele>
        <time>2011-08-16T14:05:05.000Z</time>
      </trkpt>
      <trkpt lat="48.7226" lon="1.73396">
        <ele>127.80000305176</ele>
        <time>2011-08-16T14:05:12.000Z</time>
      </trkpt>
      <trkpt lat="48.72257" lon="1.73395">
        <ele>127.80000305176</ele>
        <time>2011-08-16T14:05:14.000Z</time>
      </trkpt>
      <trkpt lat="48.72247" lon="1.73391">
        <ele>127.80000305176</ele>
        <time>2011-08-16T14:05:21.000Z</time>
      </trkpt>
      <trkpt lat="48.72239" lon="1.7339">
        <ele>127.59999847412</ele>
        <time>2011-08-16T14:05:26.000Z</time>
      </trkpt>
      <trkpt lat="48.72234" lon="1.73392">
        <ele>127.59999847412</ele>
        <time>2011-08-16T14:05:30.000Z</time>
      </trkpt>
      <trkpt lat="48.72217" lon="1.73397">
        <ele>127.40000152588</ele>
        <time>2011-08-16T14:05:39.000Z</time>
      </trkpt>
      <trkpt lat="48.72203" lon="1.73399">
        <ele>127.19999694824</ele>
        <time>2011-08-16T14:05:46.000Z</time>
      </trkpt>
      <trkpt lat="48.72194" lon="1.73397">
        <ele>127</ele>
        <time>2011-08-16T14:05:53.000Z</time>
      </trkpt>
      <trkpt lat="48.72187" lon="1.73399">
        <ele>126.80000305176</ele>
        <time>2011-08-16T14:05:59.000Z</time>
      </trkpt>
      <trkpt lat="48.72178" lon="1.73402">
        <ele>126.80000305176</ele>
        <time>2011-08-16T14:06:04.000Z</time>
      </trkpt>
      <trkpt lat="48.72169" lon="1.73402">
        <ele>126.59999847412</ele>
        <time>2011-08-16T14:06:10.000Z</time>
      </trkpt>
      <trkpt lat="48.72165" lon="1.73404">
        <ele>126.59999847412</ele>
        <time>2011-08-16T14:06:13.000Z</time>
      </trkpt>
      <trkpt lat="48.72151" lon="1.73407">
        <ele>127.19999694824</ele>
        <time>2011-08-16T14:06:22.000Z</time>
      </trkpt>
      <trkpt lat="48.72141" lon="1.73406">
        <ele>127.59999847412</ele>
        <time>2011-08-16T14:06:29.000Z</time>
      </trkpt>
      <trkpt lat="48.7213" lon="1.73404">
        <ele>128</ele>
        <time>2011-08-16T14:06:37.000Z</time>
      </trkpt>
      <trkpt lat="48.72123" lon="1.73403">
        <ele>128.19999694824</ele>
        <time>2011-08-16T14:06:43.000Z</time>
      </trkpt>
      <trkpt lat="48.72116" lon="1.73406">
        <ele>128.39999389648</ele>
        <time>2011-08-16T14:06:48.000Z</time>
      </trkpt>
      <trkpt lat="48.72107" lon="1.7341">
        <ele>128.80000305176</ele>
        <time>2011-08-16T14:06:55.000Z</time>
      </trkpt>
      <trkpt lat="48.72099" lon="1.73412">
        <ele>129.19999694824</ele>
        <time>2011-08-16T14:07:00.000Z</time>
      </trkpt>
      <trkpt lat="48.72093" lon="1.73416">
        <ele>129.60000610352</ele>
        <time>2011-08-16T14:07:04.000Z</time>
      </trkpt>
      <trkpt lat="48.72087" lon="1.73416">
        <ele>129.80000305176</ele>
        <time>2011-08-16T14:07:09.000Z</time>
      </trkpt>
      <trkpt lat="48.72074" lon="1.7342">
        <ele>129.80000305176</ele>
        <time>2011-08-16T14:07:14.000Z</time>
      </trkpt>
      <trkpt lat="48.72063" lon="1.73421">
        <ele>129.80000305176</ele>
        <time>2011-08-16T14:07:18.000Z</time>
      </trkpt>
      <trkpt lat="48.72058" lon="1.73421">
        <ele>129.80000305176</ele>
        <time>2011-08-16T14:07:22.000Z</time>
      </trkpt>
      <trkpt lat="48.72048" lon="1.73423">
        <ele>130</ele>
        <time>2011-08-16T14:07:29.000Z</time>
      </trkpt>
      <trkpt lat="48.72036" lon="1.73426">
        <ele>130</ele>
        <time>2011-08-16T14:07:35.000Z</time>
      </trkpt>
      <trkpt lat="48.72026" lon="1.73432">
        <ele>130</ele>
        <time>2011-08-16T14:07:40.000Z</time>
      </trkpt>
      <trkpt lat="48.72014" lon="1.73436">
        <ele>130.19999694824</ele>
        <time>2011-08-16T14:07:44.000Z</time>
      </trkpt>
      <trkpt lat="48.71991" lon="1.73443">
        <ele>130.60000610352</ele>
        <time>2011-08-16T14:07:51.000Z</time>
      </trkpt>
      <trkpt lat="48.71968" lon="1.73448">
        <ele>130.60000610352</ele>
        <time>2011-08-16T14:07:57.000Z</time>
      </trkpt>
      <trkpt lat="48.7195" lon="1.7345">
        <ele>130.80000305176</ele>
        <time>2011-08-16T14:08:02.000Z</time>
      </trkpt>
      <trkpt lat="48.71933" lon="1.73455">
        <ele>130.80000305176</ele>
        <time>2011-08-16T14:08:07.000Z</time>
      </trkpt>
      <trkpt lat="48.71908" lon="1.73459">
        <ele>131.19999694824</ele>
        <time>2011-08-16T14:08:14.000Z</time>
      </trkpt>
      <trkpt lat="48.71883" lon="1.73467">
        <ele>132</ele>
        <time>2011-08-16T14:08:21.000Z</time>
      </trkpt>
      <trkpt lat="48.71863" lon="1.73472">
        <ele>132.60000610352</ele>
        <time>2011-08-16T14:08:27.000Z</time>
      </trkpt>
      <trkpt lat="48.71851" lon="1.73474">
        <ele>132.80000305176</ele>
        <time>2011-08-16T14:08:31.000Z</time>
      </trkpt>
      <trkpt lat="48.71833" lon="1.73478">
        <ele>133.39999389648</ele>
        <time>2011-08-16T14:08:36.000Z</time>
      </trkpt>
      <trkpt lat="48.71814" lon="1.73482">
        <ele>134.19999694824</ele>
        <time>2011-08-16T14:08:41.000Z</time>
      </trkpt>
      <trkpt lat="48.71788" lon="1.73489">
        <ele>135.39999389648</ele>
        <time>2011-08-16T14:08:48.000Z</time>
      </trkpt>
      <trkpt lat="48.71773" lon="1.73494">
        <ele>136</ele>
        <time>2011-08-16T14:08:52.000Z</time>
      </trkpt>
      <trkpt lat="48.7176" lon="1.73498">
        <ele>136.60000610352</ele>
        <time>2011-08-16T14:08:55.000Z</time>
      </trkpt>
      <trkpt lat="48.71736" lon="1.73503">
        <ele>137.39999389648</ele>
        <time>2011-08-16T14:08:59.000Z</time>
      </trkpt>
      <trkpt lat="48.7169" lon="1.73511">
        <ele>139.19999694824</ele>
        <time>2011-08-16T14:09:06.000Z</time>
      </trkpt>
      <trkpt lat="48.71649" lon="1.73522">
        <ele>140.80000305176</ele>
        <time>2011-08-16T14:09:12.000Z</time>
      </trkpt>
      <trkpt lat="48.71615" lon="1.73533">
        <ele>142.60000610352</ele>
        <time>2011-08-16T14:09:17.000Z</time>
      </trkpt>
      <trkpt lat="48.71564" lon="1.73544">
        <ele>146.60000610352</ele>
        <time>2011-08-16T14:09:24.000Z</time>
      </trkpt>
      <trkpt lat="48.71528" lon="1.73553">
        <ele>150.60000610352</ele>
        <time>2011-08-16T14:09:29.000Z</time>
      </trkpt>
      <trkpt lat="48.71507" lon="1.73557">
        <ele>153.19999694824</ele>
        <time>2011-08-16T14:09:32.000Z</time>
      </trkpt>
      <trkpt lat="48.71469" lon="1.73562">
        <ele>157.39999389648</ele>
        <time>2011-08-16T14:09:38.000Z</time>
      </trkpt>
      <trkpt lat="48.7145" lon="1.73569">
        <ele>159.39999389648</ele>
        <time>2011-08-16T14:09:42.000Z</time>
      </trkpt>
      <trkpt lat="48.71443" lon="1.73572">
        <ele>160</ele>
        <time>2011-08-16T14:09:44.000Z</time>
      </trkpt>
      <trkpt lat="48.71425" lon="1.73579">
        <ele>161.39999389648</ele>
        <time>2011-08-16T14:09:51.000Z</time>
      </trkpt>
      <trkpt lat="48.71415" lon="1.73577">
        <ele>162.39999389648</ele>
        <time>2011-08-16T14:09:56.000Z</time>
      </trkpt>
      <trkpt lat="48.71405" lon="1.7358">
        <ele>163.39999389648</ele>
        <time>2011-08-16T14:10:00.000Z</time>
      </trkpt>
      <trkpt lat="48.71394" lon="1.73583">
        <ele>164.39999389648</ele>
        <time>2011-08-16T14:10:05.000Z</time>
      </trkpt>
      <trkpt lat="48.71384" lon="1.73577">
        <ele>165.80000305176</ele>
        <time>2011-08-16T14:10:09.000Z</time>
      </trkpt>
      <trkpt lat="48.71372" lon="1.73563">
        <ele>168</ele>
        <time>2011-08-16T14:10:14.000Z</time>
      </trkpt>
      <trkpt lat="48.7136" lon="1.73553">
        <ele>170</ele>
        <time>2011-08-16T14:10:19.000Z</time>
      </trkpt>
      <trkpt lat="48.71351" lon="1.73541">
        <ele>171.80000305176</ele>
        <time>2011-08-16T14:10:23.000Z</time>
      </trkpt>
      <trkpt lat="48.7134" lon="1.73528">
        <ele>174</ele>
        <time>2011-08-16T14:10:28.000Z</time>
      </trkpt>
      <trkpt lat="48.71332" lon="1.73525">
        <ele>175.19999694824</ele>
        <time>2011-08-16T14:10:32.000Z</time>
      </trkpt>
      <trkpt lat="48.71326" lon="1.73529">
        <ele>175.60000610352</ele>
        <time>2011-08-16T14:10:35.000Z</time>
      </trkpt>
      <trkpt lat="48.71325" lon="1.73532">
        <ele>175.39999389648</ele>
        <time>2011-08-16T14:10:37.000Z</time>
      </trkpt>
      <trkpt lat="48.71323" lon="1.73535">
        <ele>175.39999389648</ele>
        <time>2011-08-16T14:10:42.000Z</time>
      </trkpt>
      <trkpt lat="48.7132" lon="1.73535">
        <ele>175.80000305176</ele>
        <time>2011-08-16T14:10:48.000Z</time>
      </trkpt>
      <trkpt lat="48.71315" lon="1.73539">
        <ele>176</ele>
        <time>2011-08-16T14:10:52.000Z</time>
      </trkpt>
      <trkpt lat="48.71311" lon="1.73549">
        <ele>176.19999694824</ele>
        <time>2011-08-16T14:10:57.000Z</time>
      </trkpt>
      <trkpt lat="48.71305" lon="1.73564">
        <ele>176.39999389648</ele>
        <time>2011-08-16T14:11:01.000Z</time>
      </trkpt>
      <trkpt lat="48.71299" lon="1.73581">
        <ele>176.60000610352</ele>
        <time>2011-08-16T14:11:05.000Z</time>
      </trkpt>
      <trkpt lat="48.71295" lon="1.73589">
        <ele>177.19999694824</ele>
        <time>2011-08-16T14:11:07.000Z</time>
      </trkpt>
      <trkpt lat="48.71277" lon="1.73613">
        <ele>179.39999389648</ele>
        <time>2011-08-16T14:11:14.000Z</time>
      </trkpt>
      <trkpt lat="48.71264" lon="1.73619">
        <ele>181.60000610352</ele>
        <time>2011-08-16T14:11:18.000Z</time>
      </trkpt>
      <trkpt lat="48.71244" lon="1.73618">
        <ele>183.80000305176</ele>
        <time>2011-08-16T14:11:24.000Z</time>
      </trkpt>
      <trkpt lat="48.7122" lon="1.73616">
        <ele>183</ele>
        <time>2011-08-16T14:11:30.000Z</time>
      </trkpt>
      <trkpt lat="48.71204" lon="1.73606">
        <ele>182.39999389648</ele>
        <time>2011-08-16T14:11:35.000Z</time>
      </trkpt>
      <trkpt lat="48.71188" lon="1.73619">
        <ele>182</ele>
        <time>2011-08-16T14:11:40.000Z</time>
      </trkpt>
      <trkpt lat="48.71173" lon="1.73635">
        <ele>182</ele>
        <time>2011-08-16T14:11:45.000Z</time>
      </trkpt>
      <trkpt lat="48.71154" lon="1.73654">
        <ele>182</ele>
        <time>2011-08-16T14:11:51.000Z</time>
      </trkpt>
      <trkpt lat="48.71139" lon="1.7367">
        <ele>181.60000610352</ele>
        <time>2011-08-16T14:11:56.000Z</time>
      </trkpt>
      <trkpt lat="48.71116" lon="1.73694">
        <ele>181.39999389648</ele>
        <time>2011-08-16T14:12:04.000Z</time>
      </trkpt>
      <trkpt lat="48.71097" lon="1.73713">
        <ele>181.60000610352</ele>
        <time>2011-08-16T14:12:11.000Z</time>
      </trkpt>
      <trkpt lat="48.71079" lon="1.73735">
        <ele>182</ele>
        <time>2011-08-16T14:12:18.000Z</time>
      </trkpt>
      <trkpt lat="48.71063" lon="1.73745">
        <ele>182.19999694824</ele>
        <time>2011-08-16T14:12:23.000Z</time>
      </trkpt>
      <trkpt lat="48.71049" lon="1.73763">
        <ele>182.19999694824</ele>
        <time>2011-08-16T14:12:29.000Z</time>
      </trkpt>
      <trkpt lat="48.71036" lon="1.73781">
        <ele>182</ele>
        <time>2011-08-16T14:12:35.000Z</time>
      </trkpt>
      <trkpt lat="48.71021" lon="1.73796">
        <ele>182</ele>
        <time>2011-08-16T14:12:41.000Z</time>
      </trkpt>
      <trkpt lat="48.71011" lon="1.73806">
        <ele>182.19999694824</ele>
        <time>2011-08-16T14:12:47.000Z</time>
      </trkpt>
      <trkpt lat="48.71007" lon="1.73812">
        <ele>182.39999389648</ele>
        <time>2011-08-16T14:12:52.000Z</time>
      </trkpt>
      <trkpt lat="48.71004" lon="1.73818">
        <ele>182.60000610352</ele>
        <time>2011-08-16T14:12:57.000Z</time>
      </trkpt>
      <trkpt lat="48.71001" lon="1.73828">
        <ele>182.80000305176</ele>
        <time>2011-08-16T14:13:01.000Z</time>
      </trkpt>
      <trkpt lat="48.71" lon="1.73834">
        <ele>183</ele>
        <time>2011-08-16T14:13:04.000Z</time>
      </trkpt>
      <trkpt lat="48.70999" lon="1.73848">
        <ele>183.19999694824</ele>
        <time>2011-08-16T14:13:10.000Z</time>
      </trkpt>
      <trkpt lat="48.70995" lon="1.73862">
        <ele>183.39999389648</ele>
        <time>2011-08-16T14:13:16.000Z</time>
      </trkpt>
      <trkpt lat="48.70995" lon="1.73864">
        <ele>183.39999389648</ele>
        <time>2011-08-16T14:13:18.000Z</time>
      </trkpt>
      <trkpt lat="48.70994" lon="1.73873">
        <ele>183.60000610352</ele>
        <time>2011-08-16T14:13:23.000Z</time>
      </trkpt>
      <trkpt lat="48.70989" lon="1.73888">
        <ele>184</ele>
        <time>2011-08-16T14:13:30.000Z</time>
      </trkpt>
      <trkpt lat="48.70986" lon="1.73904">
        <ele>184.19999694824</ele>
        <time>2011-08-16T14:13:37.000Z</time>
      </trkpt>
      <trkpt lat="48.70981" lon="1.7392">
        <ele>184.39999389648</ele>
        <time>2011-08-16T14:13:44.000Z</time>
      </trkpt>
      <trkpt lat="48.70977" lon="1.73934">
        <ele>183.80000305176</ele>
        <time>2011-08-16T14:13:50.000Z</time>
      </trkpt>
      <trkpt lat="48.70976" lon="1.73949">
        <ele>183.39999389648</ele>
        <time>2011-08-16T14:13:57.000Z</time>
      </trkpt>
      <trkpt lat="48.70971" lon="1.73962">
        <ele>183.19999694824</ele>
        <time>2011-08-16T14:14:03.000Z</time>
      </trkpt>
      <trkpt lat="48.70966" lon="1.73979">
        <ele>182.80000305176</ele>
        <time>2011-08-16T14:14:11.000Z</time>
      </trkpt>
      <trkpt lat="48.70963" lon="1.73996">
        <ele>182.39999389648</ele>
        <time>2011-08-16T14:14:19.000Z</time>
      </trkpt>
      <trkpt lat="48.70959" lon="1.74012">
        <ele>182.39999389648</ele>
        <time>2011-08-16T14:14:26.000Z</time>
      </trkpt>
      <trkpt lat="48.70957" lon="1.74021">
        <ele>182.39999389648</ele>
        <time>2011-08-16T14:14:30.000Z</time>
      </trkpt>
      <trkpt lat="48.70954" lon="1.74032">
        <ele>182.39999389648</ele>
        <time>2011-08-16T14:14:36.000Z</time>
      </trkpt>
      <trkpt lat="48.70951" lon="1.74041">
        <ele>182.39999389648</ele>
        <time>2011-08-16T14:14:41.000Z</time>
      </trkpt>
      <trkpt lat="48.70949" lon="1.7405">
        <ele>182.60000610352</ele>
        <time>2011-08-16T14:14:45.000Z</time>
      </trkpt>
      <trkpt lat="48.70949" lon="1.74057">
        <ele>182.60000610352</ele>
        <time>2011-08-16T14:14:49.000Z</time>
      </trkpt>
      <trkpt lat="48.70948" lon="1.74073">
        <ele>182.60000610352</ele>
        <time>2011-08-16T14:14:56.000Z</time>
      </trkpt>
      <trkpt lat="48.70945" lon="1.74083">
        <ele>182.60000610352</ele>
        <time>2011-08-16T14:15:01.000Z</time>
      </trkpt>
      <trkpt lat="48.70942" lon="1.74095">
        <ele>182.60000610352</ele>
        <time>2011-08-16T14:15:07.000Z</time>
      </trkpt>
      <trkpt lat="48.70942" lon="1.74101">
        <ele>182.39999389648</ele>
        <time>2011-08-16T14:15:10.000Z</time>
      </trkpt>
      <trkpt lat="48.7094" lon="1.7411">
        <ele>182.39999389648</ele>
        <time>2011-08-16T14:15:15.000Z</time>
      </trkpt>
      <trkpt lat="48.70938" lon="1.74119">
        <ele>182.39999389648</ele>
        <time>2011-08-16T14:15:19.000Z</time>
      </trkpt>
      <trkpt lat="48.70937" lon="1.7413">
        <ele>182.39999389648</ele>
        <time>2011-08-16T14:15:25.000Z</time>
      </trkpt>
      <trkpt lat="48.70934" lon="1.74143">
        <ele>182.39999389648</ele>
        <time>2011-08-16T14:15:32.000Z</time>
      </trkpt>
      <trkpt lat="48.70929" lon="1.74155">
        <ele>182.39999389648</ele>
        <time>2011-08-16T14:15:38.000Z</time>
      </trkpt>
      <trkpt lat="48.70928" lon="1.74167">
        <ele>182.60000610352</ele>
        <time>2011-08-16T14:15:43.000Z</time>
      </trkpt>
      <trkpt lat="48.70926" lon="1.74179">
        <ele>182.19999694824</ele>
        <time>2011-08-16T14:15:49.000Z</time>
      </trkpt>
      <trkpt lat="48.70925" lon="1.7419">
        <ele>182</ele>
        <time>2011-08-16T14:15:54.000Z</time>
      </trkpt>
      <trkpt lat="48.70924" lon="1.74202">
        <ele>181.80000305176</ele>
        <time>2011-08-16T14:16:00.000Z</time>
      </trkpt>
      <trkpt lat="48.70922" lon="1.74206">
        <ele>181.80000305176</ele>
        <time>2011-08-16T14:16:02.000Z</time>
      </trkpt>
      <trkpt lat="48.70914" lon="1.74225">
        <ele>181.39999389648</ele>
        <time>2011-08-16T14:16:11.000Z</time>
      </trkpt>
      <trkpt lat="48.70913" lon="1.74231">
        <ele>181.39999389648</ele>
        <time>2011-08-16T14:16:14.000Z</time>
      </trkpt>
      <trkpt lat="48.70909" lon="1.74246">
        <ele>181</ele>
        <time>2011-08-16T14:16:21.000Z</time>
      </trkpt>
      <trkpt lat="48.70903" lon="1.74263">
        <ele>180</ele>
        <time>2011-08-16T14:16:29.000Z</time>
      </trkpt>
      <trkpt lat="48.70896" lon="1.74273">
        <ele>179.39999389648</ele>
        <time>2011-08-16T14:16:36.000Z</time>
      </trkpt>
      <trkpt lat="48.70889" lon="1.74287">
        <ele>178.60000610352</ele>
        <time>2011-08-16T14:16:44.000Z</time>
      </trkpt>
      <trkpt lat="48.70884" lon="1.74295">
        <ele>178.19999694824</ele>
        <time>2011-08-16T14:16:49.000Z</time>
      </trkpt>
      <trkpt lat="48.70878" lon="1.74309">
        <ele>177.60000610352</ele>
        <time>2011-08-16T14:16:56.000Z</time>
      </trkpt>
      <trkpt lat="48.70872" lon="1.74318">
        <ele>177.19999694824</ele>
        <time>2011-08-16T14:17:01.000Z</time>
      </trkpt>
      <trkpt lat="48.70868" lon="1.74332">
        <ele>176.60000610352</ele>
        <time>2011-08-16T14:17:08.000Z</time>
      </trkpt>
      <trkpt lat="48.70862" lon="1.74343">
        <ele>176.39999389648</ele>
        <time>2011-08-16T14:17:15.000Z</time>
      </trkpt>
      <trkpt lat="48.70857" lon="1.74354">
        <ele>176.39999389648</ele>
        <time>2011-08-16T14:17:21.000Z</time>
      </trkpt>
      <trkpt lat="48.70853" lon="1.7436">
        <ele>176.39999389648</ele>
        <time>2011-08-16T14:17:25.000Z</time>
      </trkpt>
      <trkpt lat="48.70846" lon="1.74373">
        <ele>176.19999694824</ele>
        <time>2011-08-16T14:17:34.000Z</time>
      </trkpt>
      <trkpt lat="48.70837" lon="1.74383">
        <ele>176.19999694824</ele>
        <time>2011-08-16T14:17:42.000Z</time>
      </trkpt>
      <trkpt lat="48.70823" lon="1.74398">
        <ele>176.39999389648</ele>
        <time>2011-08-16T14:17:54.000Z</time>
      </trkpt>
      <trkpt lat="48.7081" lon="1.74407">
        <ele>176.60000610352</ele>
        <time>2011-08-16T14:18:05.000Z</time>
      </trkpt>
      <trkpt lat="48.70794" lon="1.74417">
        <ele>176.80000305176</ele>
        <time>2011-08-16T14:18:17.000Z</time>
      </trkpt>
      <trkpt lat="48.70786" lon="1.74422">
        <ele>177</ele>
        <time>2011-08-16T14:18:24.000Z</time>
      </trkpt>
      <trkpt lat="48.70769" lon="1.74432">
        <ele>177.19999694824</ele>
        <time>2011-08-16T14:18:36.000Z</time>
      </trkpt>
      <trkpt lat="48.70759" lon="1.74441">
        <ele>177.39999389648</ele>
        <time>2011-08-16T14:18:44.000Z</time>
      </trkpt>
      <trkpt lat="48.70747" lon="1.74446">
        <ele>177.60000610352</ele>
        <time>2011-08-16T14:18:53.000Z</time>
      </trkpt>
      <trkpt lat="48.70737" lon="1.74454">
        <ele>178</ele>
        <time>2011-08-16T14:19:01.000Z</time>
      </trkpt>
      <trkpt lat="48.70731" lon="1.74466">
        <ele>178</ele>
        <time>2011-08-16T14:19:09.000Z</time>
      </trkpt>
      <trkpt lat="48.70735" lon="1.74477">
        <ele>177.80000305176</ele>
        <time>2011-08-16T14:19:16.000Z</time>
      </trkpt>
      <trkpt lat="48.70738" lon="1.74478">
        <ele>177.60000610352</ele>
        <time>2011-08-16T14:19:18.000Z</time>
      </trkpt>
      <trkpt lat="48.70748" lon="1.74488">
        <ele>177.19999694824</ele>
        <time>2011-08-16T14:19:26.000Z</time>
      </trkpt>
      <trkpt lat="48.70755" lon="1.74499">
        <ele>176.80000305176</ele>
        <time>2011-08-16T14:19:34.000Z</time>
      </trkpt>
      <trkpt lat="48.70762" lon="1.74509">
        <ele>176.80000305176</ele>
        <time>2011-08-16T14:19:41.000Z</time>
      </trkpt>
      <trkpt lat="48.70773" lon="1.74522">
        <ele>176.60000610352</ele>
        <time>2011-08-16T14:19:51.000Z</time>
      </trkpt>
      <trkpt lat="48.70788" lon="1.74537">
        <ele>176.39999389648</ele>
        <time>2011-08-16T14:20:03.000Z</time>
      </trkpt>
      <trkpt lat="48.708" lon="1.74553">
        <ele>176.19999694824</ele>
        <time>2011-08-16T14:20:15.000Z</time>
      </trkpt>
      <trkpt lat="48.70806" lon="1.74567">
        <ele>176.19999694824</ele>
        <time>2011-08-16T14:20:23.000Z</time>
      </trkpt>
      <trkpt lat="48.70806" lon="1.74567">
        <ele>176.19999694824</ele>
        <time>2011-08-16T14:20:25.000Z</time>
      </trkpt>
      <trkpt lat="48.70811" lon="1.7457">
        <ele>176.19999694824</ele>
        <time>2011-08-16T14:20:31.000Z</time>
      </trkpt>
      <trkpt lat="48.70815" lon="1.74576">
        <ele>176.19999694824</ele>
        <time>2011-08-16T14:20:34.000Z</time>
      </trkpt>
      <trkpt lat="48.70821" lon="1.74583">
        <ele>176</ele>
        <time>2011-08-16T14:20:39.000Z</time>
      </trkpt>
      <trkpt lat="48.70832" lon="1.74598">
        <ele>176</ele>
        <time>2011-08-16T14:20:48.000Z</time>
      </trkpt>
      <trkpt lat="48.70843" lon="1.74609">
        <ele>175.80000305176</ele>
        <time>2011-08-16T14:20:57.000Z</time>
      </trkpt>
      <trkpt lat="48.70851" lon="1.74621">
        <ele>175.80000305176</ele>
        <time>2011-08-16T14:21:04.000Z</time>
      </trkpt>
      <trkpt lat="48.70862" lon="1.74637">
        <ele>175.80000305176</ele>
        <time>2011-08-16T14:21:14.000Z</time>
      </trkpt>
      <trkpt lat="48.70871" lon="1.74647">
        <ele>175.80000305176</ele>
        <time>2011-08-16T14:21:21.000Z</time>
      </trkpt>
      <trkpt lat="48.70881" lon="1.74658">
        <ele>175.80000305176</ele>
        <time>2011-08-16T14:21:29.000Z</time>
      </trkpt>
      <trkpt lat="48.70889" lon="1.7467">
        <ele>176</ele>
        <time>2011-08-16T14:21:38.000Z</time>
      </trkpt>
      <trkpt lat="48.70901" lon="1.74683">
        <ele>176.39999389648</ele>
        <time>2011-08-16T14:21:48.000Z</time>
      </trkpt>
      <trkpt lat="48.70916" lon="1.74703">
        <ele>176.80000305176</ele>
        <time>2011-08-16T14:22:01.000Z</time>
      </trkpt>
      <trkpt lat="48.70927" lon="1.74717">
        <ele>177.19999694824</ele>
        <time>2011-08-16T14:22:10.000Z</time>
      </trkpt>
      <trkpt lat="48.70935" lon="1.74731">
        <ele>177.60000610352</ele>
        <time>2011-08-16T14:22:19.000Z</time>
      </trkpt>
      <trkpt lat="48.70949" lon="1.7475">
        <ele>177.80000305176</ele>
        <time>2011-08-16T14:22:31.000Z</time>
      </trkpt>
      <trkpt lat="48.70958" lon="1.74759">
        <ele>178</ele>
        <time>2011-08-16T14:22:39.000Z</time>
      </trkpt>
      <trkpt lat="48.70968" lon="1.74772">
        <ele>178</ele>
        <time>2011-08-16T14:22:49.000Z</time>
      </trkpt>
      <trkpt lat="48.70981" lon="1.74787">
        <ele>178.19999694824</ele>
        <time>2011-08-16T14:22:59.000Z</time>
      </trkpt>
      <trkpt lat="48.70989" lon="1.74798">
        <ele>178.39999389648</ele>
        <time>2011-08-16T14:23:06.000Z</time>
      </trkpt>
      <trkpt lat="48.70993" lon="1.74805">
        <ele>178.60000610352</ele>
        <time>2011-08-16T14:23:10.000Z</time>
      </trkpt>
      <trkpt lat="48.70997" lon="1.74811">
        <ele>178.60000610352</ele>
        <time>2011-08-16T14:23:14.000Z</time>
      </trkpt>
      <trkpt lat="48.71003" lon="1.74821">
        <ele>178.60000610352</ele>
        <time>2011-08-16T14:23:21.000Z</time>
      </trkpt>
      <trkpt lat="48.71007" lon="1.74823">
        <ele>178.39999389648</ele>
        <time>2011-08-16T14:23:24.000Z</time>
      </trkpt>
      <trkpt lat="48.71017" lon="1.74835">
        <ele>177.80000305176</ele>
        <time>2011-08-16T14:23:32.000Z</time>
      </trkpt>
      <trkpt lat="48.71015" lon="1.74848">
        <ele>178</ele>
        <time>2011-08-16T14:23:38.000Z</time>
      </trkpt>
      <trkpt lat="48.71015" lon="1.7485">
        <ele>178</ele>
        <time>2011-08-16T14:23:39.000Z</time>
      </trkpt>
      <trkpt lat="48.71003" lon="1.74866">
        <ele>178.80000305176</ele>
        <time>2011-08-16T14:23:49.000Z</time>
      </trkpt>
      <trkpt lat="48.70994" lon="1.74877">
        <ele>178.80000305176</ele>
        <time>2011-08-16T14:23:56.000Z</time>
      </trkpt>
      <trkpt lat="48.70985" lon="1.74887">
        <ele>178.39999389648</ele>
        <time>2011-08-16T14:24:02.000Z</time>
      </trkpt>
      <trkpt lat="48.70975" lon="1.74899">
        <ele>177.80000305176</ele>
        <time>2011-08-16T14:24:11.000Z</time>
      </trkpt>
      <trkpt lat="48.70964" lon="1.74914">
        <ele>177.19999694824</ele>
        <time>2011-08-16T14:24:19.000Z</time>
      </trkpt>
      <trkpt lat="48.70955" lon="1.74925">
        <ele>176.60000610352</ele>
        <time>2011-08-16T14:24:26.000Z</time>
      </trkpt>
      <trkpt lat="48.70946" lon="1.74937">
        <ele>176.19999694824</ele>
        <time>2011-08-16T14:24:33.000Z</time>
      </trkpt>
      <trkpt lat="48.70944" lon="1.74938">
        <ele>176.19999694824</ele>
        <time>2011-08-16T14:24:34.000Z</time>
      </trkpt>
      <trkpt lat="48.70934" lon="1.74954">
        <ele>175.60000610352</ele>
        <time>2011-08-16T14:24:43.000Z</time>
      </trkpt>
      <trkpt lat="48.70923" lon="1.74973">
        <ele>175.19999694824</ele>
        <time>2011-08-16T14:24:54.000Z</time>
      </trkpt>
      <trkpt lat="48.70914" lon="1.74993">
        <ele>174.80000305176</ele>
        <time>2011-08-16T14:25:05.000Z</time>
      </trkpt>
      <trkpt lat="48.70905" lon="1.75012">
        <ele>174.80000305176</ele>
        <time>2011-08-16T14:25:15.000Z</time>
      </trkpt>
      <trkpt lat="48.70895" lon="1.75032">
        <ele>174.60000610352</ele>
        <time>2011-08-16T14:25:26.000Z</time>
      </trkpt>
      <trkpt lat="48.70887" lon="1.75048">
        <ele>174.39999389648</ele>
        <time>2011-08-16T14:25:35.000Z</time>
      </trkpt>
      <trkpt lat="48.70882" lon="1.75058">
        <ele>174.19999694824</ele>
        <time>2011-08-16T14:25:41.000Z</time>
      </trkpt>
      <trkpt lat="48.7088" lon="1.75064">
        <ele>174.19999694824</ele>
        <time>2011-08-16T14:25:46.000Z</time>
      </trkpt>
      <trkpt lat="48.70879" lon="1.75066">
        <ele>174.19999694824</ele>
        <time>2011-08-16T14:25:50.000Z</time>
      </trkpt>
      <trkpt lat="48.7086" lon="1.75123">
        <ele>174</ele>
        <time>2011-08-16T14:28:53.000Z</time>
      </trkpt>
      <trkpt lat="48.70857" lon="1.7513">
        <ele>174</ele>
        <time>2011-08-16T14:28:57.000Z</time>
      </trkpt>
      <trkpt lat="48.70851" lon="1.75141">
        <ele>174</ele>
        <time>2011-08-16T14:29:06.000Z</time>
      </trkpt>
      <trkpt lat="48.70847" lon="1.75148">
        <ele>174</ele>
        <time>2011-08-16T14:29:15.000Z</time>
      </trkpt>
      <trkpt lat="48.70835" lon="1.75174">
        <ele>174</ele>
        <time>2011-08-16T14:29:44.000Z</time>
      </trkpt>
      <trkpt lat="48.70833" lon="1.75178">
        <ele>173.80000305176</ele>
        <time>2011-08-16T14:29:46.000Z</time>
      </trkpt>
      <trkpt lat="48.7083" lon="1.75184">
        <ele>173.80000305176</ele>
        <time>2011-08-16T14:29:52.000Z</time>
      </trkpt>
      <trkpt lat="48.70826" lon="1.75191">
        <ele>173.80000305176</ele>
        <time>2011-08-16T14:30:00.000Z</time>
      </trkpt>
      <trkpt lat="48.70826" lon="1.75191">
        <ele>173.80000305176</ele>
        <time>2011-08-16T14:30:01.000Z</time>
      </trkpt>
      <trkpt lat="48.70816" lon="1.75218">
        <ele>173.60000610352</ele>
        <time>2011-08-16T14:30:27.000Z</time>
      </trkpt>
      <trkpt lat="48.70814" lon="1.75223">
        <ele>173.60000610352</ele>
        <time>2011-08-16T14:30:30.000Z</time>
      </trkpt>
      <trkpt lat="48.7081" lon="1.75228">
        <ele>173.60000610352</ele>
        <time>2011-08-16T14:30:36.000Z</time>
      </trkpt>
      <trkpt lat="48.70808" lon="1.75231">
        <ele>173.60000610352</ele>
        <time>2011-08-16T14:30:41.000Z</time>
      </trkpt>
      <trkpt lat="48.70807" lon="1.75236">
        <ele>173.60000610352</ele>
        <time>2011-08-16T14:30:46.000Z</time>
      </trkpt>
      <trkpt lat="48.70806" lon="1.75239">
        <ele>173.60000610352</ele>
        <time>2011-08-16T14:30:48.000Z</time>
      </trkpt>
      <trkpt lat="48.70804" lon="1.75246">
        <ele>173.60000610352</ele>
        <time>2011-08-16T14:30:52.000Z</time>
      </trkpt>
      <trkpt lat="48.70801" lon="1.75253">
        <ele>173.60000610352</ele>
        <time>2011-08-16T14:30:58.000Z</time>
      </trkpt>
      <trkpt lat="48.70796" lon="1.75266">
        <ele>173.39999389648</ele>
        <time>2011-08-16T14:31:05.000Z</time>
      </trkpt>
      <trkpt lat="48.70794" lon="1.75269">
        <ele>173.39999389648</ele>
        <time>2011-08-16T14:31:09.000Z</time>
      </trkpt>
      <trkpt lat="48.70794" lon="1.7527">
        <ele>173.39999389648</ele>
        <time>2011-08-16T14:31:12.000Z</time>
      </trkpt>
      <trkpt lat="48.7079" lon="1.75281">
        <ele>173.39999389648</ele>
        <time>2011-08-16T14:31:21.000Z</time>
      </trkpt>
      <trkpt lat="48.70787" lon="1.75291">
        <ele>173.39999389648</ele>
        <time>2011-08-16T14:31:26.000Z</time>
      </trkpt>
      <trkpt lat="48.70784" lon="1.75302">
        <ele>173.39999389648</ele>
        <time>2011-08-16T14:31:31.000Z</time>
      </trkpt>
      <trkpt lat="48.70782" lon="1.75313">
        <ele>173.19999694824</ele>
        <time>2011-08-16T14:31:36.000Z</time>
      </trkpt>
      <trkpt lat="48.70781" lon="1.75316">
        <ele>173.19999694824</ele>
        <time>2011-08-16T14:31:38.000Z</time>
      </trkpt>
      <trkpt lat="48.70776" lon="1.75322">
        <ele>173.19999694824</ele>
        <time>2011-08-16T14:31:43.000Z</time>
      </trkpt>
      <trkpt lat="48.70771" lon="1.75333">
        <ele>173.19999694824</ele>
        <time>2011-08-16T14:31:50.000Z</time>
      </trkpt>
      <trkpt lat="48.70766" lon="1.75346">
        <ele>173</ele>
        <time>2011-08-16T14:31:57.000Z</time>
      </trkpt>
      <trkpt lat="48.70766" lon="1.75348">
        <ele>173</ele>
        <time>2011-08-16T14:31:58.000Z</time>
      </trkpt>
      <trkpt lat="48.70761" lon="1.75357">
        <ele>172.80000305176</ele>
        <time>2011-08-16T14:32:03.000Z</time>
      </trkpt>
      <trkpt lat="48.70759" lon="1.75365">
        <ele>172.60000610352</ele>
        <time>2011-08-16T14:32:08.000Z</time>
      </trkpt>
      <trkpt lat="48.70755" lon="1.75373">
        <ele>172.60000610352</ele>
        <time>2011-08-16T14:32:13.000Z</time>
      </trkpt>
      <trkpt lat="48.70748" lon="1.75389">
        <ele>172.19999694824</ele>
        <time>2011-08-16T14:32:25.000Z</time>
      </trkpt>
      <trkpt lat="48.70743" lon="1.754">
        <ele>172</ele>
        <time>2011-08-16T14:32:32.000Z</time>
      </trkpt>
      <trkpt lat="48.70735" lon="1.75416">
        <ele>171.80000305176</ele>
        <time>2011-08-16T14:32:42.000Z</time>
      </trkpt>
      <trkpt lat="48.7073" lon="1.75429">
        <ele>171.60000610352</ele>
        <time>2011-08-16T14:32:51.000Z</time>
      </trkpt>
      <trkpt lat="48.70724" lon="1.75443">
        <ele>171.60000610352</ele>
        <time>2011-08-16T14:33:00.000Z</time>
      </trkpt>
      <trkpt lat="48.70717" lon="1.75458">
        <ele>171.60000610352</ele>
        <time>2011-08-16T14:33:10.000Z</time>
      </trkpt>
      <trkpt lat="48.70711" lon="1.75472">
        <ele>171.60000610352</ele>
        <time>2011-08-16T14:33:18.000Z</time>
      </trkpt>
      <trkpt lat="48.70707" lon="1.75477">
        <ele>171.80000305176</ele>
        <time>2011-08-16T14:33:23.000Z</time>
      </trkpt>
      <trkpt lat="48.70704" lon="1.75484">
        <ele>171.80000305176</ele>
        <time>2011-08-16T14:33:28.000Z</time>
      </trkpt>
      <trkpt lat="48.70701" lon="1.75483">
        <ele>172</ele>
        <time>2011-08-16T14:33:33.000Z</time>
      </trkpt>
      <trkpt lat="48.70686" lon="1.75534">
        <ele>173.19999694824</ele>
        <time>2011-08-16T14:36:10.000Z</time>
      </trkpt>
      <trkpt lat="48.70684" lon="1.7554">
        <ele>173.39999389648</ele>
        <time>2011-08-16T14:36:13.000Z</time>
      </trkpt>
      <trkpt lat="48.7068" lon="1.75546">
        <ele>173.60000610352</ele>
        <time>2011-08-16T14:36:19.000Z</time>
      </trkpt>
      <trkpt lat="48.70677" lon="1.75553">
        <ele>173.80000305176</ele>
        <time>2011-08-16T14:36:23.000Z</time>
      </trkpt>
      <trkpt lat="48.70671" lon="1.75569">
        <ele>174.39999389648</ele>
        <time>2011-08-16T14:36:32.000Z</time>
      </trkpt>
      <trkpt lat="48.70667" lon="1.75579">
        <ele>174.80000305176</ele>
        <time>2011-08-16T14:36:38.000Z</time>
      </trkpt>
      <trkpt lat="48.70666" lon="1.7558">
        <ele>174.80000305176</ele>
        <time>2011-08-16T14:36:39.000Z</time>
      </trkpt>
      <trkpt lat="48.70659" lon="1.75586">
        <ele>175.60000610352</ele>
        <time>2011-08-16T14:36:45.000Z</time>
      </trkpt>
      <trkpt lat="48.70659" lon="1.75587">
        <ele>175.60000610352</ele>
        <time>2011-08-16T14:36:46.000Z</time>
      </trkpt>
      <trkpt lat="48.70655" lon="1.75596">
        <ele>176</ele>
        <time>2011-08-16T14:36:53.000Z</time>
      </trkpt>
      <trkpt lat="48.70654" lon="1.756">
        <ele>176.19999694824</ele>
        <time>2011-08-16T14:36:55.000Z</time>
      </trkpt>
      <trkpt lat="48.7065" lon="1.75611">
        <ele>176.60000610352</ele>
        <time>2011-08-16T14:37:01.000Z</time>
      </trkpt>
      <trkpt lat="48.70647" lon="1.75621">
        <ele>177</ele>
        <time>2011-08-16T14:37:06.000Z</time>
      </trkpt>
      <trkpt lat="48.70648" lon="1.75624">
        <ele>177</ele>
        <time>2011-08-16T14:37:10.000Z</time>
      </trkpt>
      <trkpt lat="48.70643" lon="1.7563">
        <ele>177.60000610352</ele>
        <time>2011-08-16T14:37:16.000Z</time>
      </trkpt>
      <trkpt lat="48.70642" lon="1.7563">
        <ele>177.60000610352</ele>
        <time>2011-08-16T14:37:18.000Z</time>
      </trkpt>
      <trkpt lat="48.70639" lon="1.75651">
        <ele>178.19999694824</ele>
        <time>2011-08-16T14:37:38.000Z</time>
      </trkpt>
      <trkpt lat="48.70642" lon="1.75658">
        <ele>177.80000305176</ele>
        <time>2011-08-16T14:37:41.000Z</time>
      </trkpt>
      <trkpt lat="48.70644" lon="1.75661">
        <ele>177.60000610352</ele>
        <time>2011-08-16T14:37:43.000Z</time>
      </trkpt>
      <trkpt lat="48.7065" lon="1.75667">
        <ele>177</ele>
        <time>2011-08-16T14:37:48.000Z</time>
      </trkpt>
      <trkpt lat="48.70656" lon="1.75673">
        <ele>176</ele>
        <time>2011-08-16T14:37:54.000Z</time>
      </trkpt>
      <trkpt lat="48.7066" lon="1.75678">
        <ele>175.60000610352</ele>
        <time>2011-08-16T14:37:58.000Z</time>
      </trkpt>
      <trkpt lat="48.70662" lon="1.75678">
        <ele>175.19999694824</ele>
        <time>2011-08-16T14:38:00.000Z</time>
      </trkpt>
      <trkpt lat="48.70669" lon="1.75682">
        <ele>174.60000610352</ele>
        <time>2011-08-16T14:38:05.000Z</time>
      </trkpt>
      <trkpt lat="48.70677" lon="1.75688">
        <ele>174.39999389648</ele>
        <time>2011-08-16T14:38:11.000Z</time>
      </trkpt>
      <trkpt lat="48.7068" lon="1.75694">
        <ele>174.39999389648</ele>
        <time>2011-08-16T14:38:15.000Z</time>
      </trkpt>
      <trkpt lat="48.70685" lon="1.75697">
        <ele>174.19999694824</ele>
        <time>2011-08-16T14:38:19.000Z</time>
      </trkpt>
      <trkpt lat="48.70691" lon="1.75704">
        <ele>174.19999694824</ele>
        <time>2011-08-16T14:38:25.000Z</time>
      </trkpt>
      <trkpt lat="48.70697" lon="1.75711">
        <ele>174</ele>
        <time>2011-08-16T14:38:30.000Z</time>
      </trkpt>
      <trkpt lat="48.70702" lon="1.75719">
        <ele>174</ele>
        <time>2011-08-16T14:38:36.000Z</time>
      </trkpt>
      <trkpt lat="48.70709" lon="1.75728">
        <ele>173.80000305176</ele>
        <time>2011-08-16T14:38:42.000Z</time>
      </trkpt>
      <trkpt lat="48.70713" lon="1.75734">
        <ele>173.80000305176</ele>
        <time>2011-08-16T14:38:46.000Z</time>
      </trkpt>
      <trkpt lat="48.70714" lon="1.75736">
        <ele>173.80000305176</ele>
        <time>2011-08-16T14:38:47.000Z</time>
      </trkpt>
      <trkpt lat="48.70722" lon="1.75744">
        <ele>173.80000305176</ele>
        <time>2011-08-16T14:38:54.000Z</time>
      </trkpt>
      <trkpt lat="48.70726" lon="1.75748">
        <ele>173.80000305176</ele>
        <time>2011-08-16T14:38:58.000Z</time>
      </trkpt>
      <trkpt lat="48.70731" lon="1.75755">
        <ele>173.80000305176</ele>
        <time>2011-08-16T14:39:03.000Z</time>
      </trkpt>
      <trkpt lat="48.70733" lon="1.75761">
        <ele>173.80000305176</ele>
        <time>2011-08-16T14:39:06.000Z</time>
      </trkpt>
      <trkpt lat="48.70736" lon="1.75767">
        <ele>173.60000610352</ele>
        <time>2011-08-16T14:39:12.000Z</time>
      </trkpt>
      <trkpt lat="48.70737" lon="1.75769">
        <ele>173.60000610352</ele>
        <time>2011-08-16T14:39:15.000Z</time>
      </trkpt>
      <trkpt lat="48.7074" lon="1.75775">
        <ele>173.60000610352</ele>
        <time>2011-08-16T14:39:20.000Z</time>
      </trkpt>
      <trkpt lat="48.70746" lon="1.7578">
        <ele>173.60000610352</ele>
        <time>2011-08-16T14:39:24.000Z</time>
      </trkpt>
      <trkpt lat="48.70752" lon="1.75788">
        <ele>173.39999389648</ele>
        <time>2011-08-16T14:39:29.000Z</time>
      </trkpt>
      <trkpt lat="48.70758" lon="1.75797">
        <ele>173.19999694824</ele>
        <time>2011-08-16T14:39:35.000Z</time>
      </trkpt>
      <trkpt lat="48.70762" lon="1.75805">
        <ele>173</ele>
        <time>2011-08-16T14:39:40.000Z</time>
      </trkpt>
      <trkpt lat="48.70766" lon="1.75806">
        <ele>173</ele>
        <time>2011-08-16T14:39:43.000Z</time>
      </trkpt>
      <trkpt lat="48.70769" lon="1.75812">
        <ele>172.80000305176</ele>
        <time>2011-08-16T14:39:46.000Z</time>
      </trkpt>
      <trkpt lat="48.70773" lon="1.75816">
        <ele>172.80000305176</ele>
        <time>2011-08-16T14:39:49.000Z</time>
      </trkpt>
      <trkpt lat="48.70776" lon="1.75822">
        <ele>172.60000610352</ele>
        <time>2011-08-16T14:39:53.000Z</time>
      </trkpt>
      <trkpt lat="48.70782" lon="1.75832">
        <ele>172.60000610352</ele>
        <time>2011-08-16T14:40:00.000Z</time>
      </trkpt>
      <trkpt lat="48.70786" lon="1.75838">
        <ele>172.60000610352</ele>
        <time>2011-08-16T14:40:05.000Z</time>
      </trkpt>
      <trkpt lat="48.70793" lon="1.75844">
        <ele>172.60000610352</ele>
        <time>2011-08-16T14:40:10.000Z</time>
      </trkpt>
      <trkpt lat="48.70797" lon="1.7585">
        <ele>172.60000610352</ele>
        <time>2011-08-16T14:40:15.000Z</time>
      </trkpt>
      <trkpt lat="48.708" lon="1.75857">
        <ele>172.60000610352</ele>
        <time>2011-08-16T14:40:20.000Z</time>
      </trkpt>
      <trkpt lat="48.70801" lon="1.75858">
        <ele>172.60000610352</ele>
        <time>2011-08-16T14:40:22.000Z</time>
      </trkpt>
      <trkpt lat="48.70804" lon="1.75866">
        <ele>172.80000305176</ele>
        <time>2011-08-16T14:40:27.000Z</time>
      </trkpt>
      <trkpt lat="48.7081" lon="1.75871">
        <ele>172.80000305176</ele>
        <time>2011-08-16T14:40:33.000Z</time>
      </trkpt>
      <trkpt lat="48.70813" lon="1.75874">
        <ele>172.80000305176</ele>
        <time>2011-08-16T14:40:38.000Z</time>
      </trkpt>
      <trkpt lat="48.70814" lon="1.75874">
        <ele>172.80000305176</ele>
        <time>2011-08-16T14:40:41.000Z</time>
      </trkpt>
      <trkpt lat="48.70818" lon="1.75878">
        <ele>173</ele>
        <time>2011-08-16T14:40:43.000Z</time>
      </trkpt>
      <trkpt lat="48.70822" lon="1.75882">
        <ele>173</ele>
        <time>2011-08-16T14:40:48.000Z</time>
      </trkpt>
      <trkpt lat="48.70824" lon="1.75883">
        <ele>173</ele>
        <time>2011-08-16T14:40:50.000Z</time>
      </trkpt>
      <trkpt lat="48.70833" lon="1.75888">
        <ele>173.19999694824</ele>
        <time>2011-08-16T14:40:57.000Z</time>
      </trkpt>
      <trkpt lat="48.70839" lon="1.75891">
        <ele>173.39999389648</ele>
        <time>2011-08-16T14:41:02.000Z</time>
      </trkpt>
      <trkpt lat="48.70844" lon="1.75898">
        <ele>173.60000610352</ele>
        <time>2011-08-16T14:41:07.000Z</time>
      </trkpt>
      <trkpt lat="48.70845" lon="1.75899">
        <ele>173.60000610352</ele>
        <time>2011-08-16T14:41:08.000Z</time>
      </trkpt>
      <trkpt lat="48.70846" lon="1.75899">
        <ele>173.60000610352</ele>
        <time>2011-08-16T14:41:11.000Z</time>
      </trkpt>
    </trkseg>
  </trk>
</gpx>